[[{"header":{"parameterUnit":"m.s-1","parameterCategory":1,"la1":31.0,"la2":29.5877,"lo1":-88.7671,"lo2":-86.6584,"dy":0.0162,"dx":0.0185,"nx":115,"ny":88,"refTime":"2023-07-20T00:00:00:Z","depth":0,"parameterNumber":2,"parameterNumberName":"U-component_of_WINDS"},"data":[0.0,0.0,0.0,0.0,0.0,0.0,0.0,0.0,0.0,0.0,0.0,0.0,0.0,0.0,0.0,0.0,0.0,0.0,0.0,0.0,0.0,0.0,0.0,0.0,0.0,0.0,0.0,0.0,0.0,0.0,0.0,0.0,0.0,0.0,0.0,0.0,0.0,0.0,0.0,0.0,0.0,0.0,0.0,0.0,0.0,0.0,0.0,0.0,0.0,0.0,0.0,0.0,0.0,0.0,0.0,0.0,0.0,0.0,0.0,0.0,0.0,0.0,0.0,0.0,0.0,0.0,0.0,0.0,0.0,0.0,0.0,0.0,0.0,0.0,0.0,0.0,0.0,0.0,0.0,0.0,0.0,0.0,0.0,0.0,0.0,0.0,0.0,0.0,0.0,0.0,0.0,0.0,0.0,0.0,0.0,0.0,0.0,0.0,0.0,0.0,0.0,0.0,0.0,0.0,0.0,0.0,0.0,0.0,0.0,0.0,0.0,0.0,0.0,0.0,0.0,0.0,0.0,0.0,0.0,0.0,0.0,0.0,0.0,0.0,0.0,0.0,0.0,0.0,0.0,0.0,0.0,0.0,0.0,0.0,0.0,0.0,0.0,0.0,0.0,0.0,0.0,0.0,0.0,0.0,0.0,0.0,0.0,0.0,0.0,0.0,0.0,0.0,0.0,0.0,0.0,0.0,0.0,0.0,0.0,0.0,0.0,0.0,0.0,0.0,0.0,0.0,0.0,0.0,0.0,0.0,0.0,0.0,0.0,0.0,0.0,0.0,0.0,0.0,0.0,0.0,0.0,0.0,0.0,0.0,0.0,0.0,0.0,0.0,0.0,0.0,0.0,0.0,0.0,0.0,0.0,0.0,0.0,0.0,0.0,0.0,0.0,0.0,0.0,0.0,0.0,0.0,0.0,0.0,0.0,0.0,0.0,0.0,0.0,0.0,0.0,0.0,0.0,0.0,0.0,0.0,0.0,0.0,0.0,0.0,0.0,0.0,0.0,0.0,0.0,0.0,0.0,0.0,0.0,0.0,0.0,0.0,0.0,0.0,0.0,0.0,0.0,0.0,0.0,0.0,0.0,0.0,0.0,0.0,0.0,0.0,0.0,0.0,0.0,0.0,0.0,0.0,0.0,0.0,0.0,0.0,0.0,0.0,0.0,0.0,0.0,0.0,0.0,0.0,0.0,0.0,0.0,0.0,0.0,0.0,0.0,0.0,0.0,0.0,0.0,0.0,0.0,0.0,0.0,0.0,0.0,0.0,0.0,0.0,0.0,0.0,0.0,0.0,0.0,0.0,0.0,0.0,0.0,0.0,0.0,0.0,0.0,0.0,0.0,0.0,0.0,0.0,0.0,0.0,0.0,0.0,0.0,0.0,0.0,0.0,0.0,0.0,0.0,0.0,0.0,0.0,0.0,0.0,0.0,0.0,0.0,0.0,0.0,0.0,0.0,0.0,0.0,0.0,0.0,0.0,0.0,0.0,0.0,0.0,0.0,0.0,0.0,0.0,0.0,0.0,0.0,0.0,0.0,0.0,0.0,0.0,0.0,0.0,0.0,0.0,0.0,0.0,0.0,0.0,0.0,0.0,0.0,0.0,0.0,0.0,0.0,0.0,0.0,0.0,0.0,0.0,0.0,0.0,0.0,0.0,0.0,0.0,0.0,0.0,0.0,0.0,0.0,0.0,0.0,0.0,0.0,0.0,0.0,0.0,0.0,0.0,0.0,0.0,0.0,0.0,0.0,0.0,0.0,0.0,0.0,0.0,0.0,0.0,0.0,0.0,0.0,0.0,0.0,0.0,0.0,0.0,0.0,0.0,0.0,0.0,0.0,0.0,0.0,0.0,0.0,0.0,0.0,0.0,0.0,0.0,0.0,0.0,0.0,0.0,0.0,0.0,0.0,0.0,0.0,0.0,0.0,0.0,0.0,0.0,0.0,0.0,0.0,0.0,0.0,0.0,0.0,0.0,0.0,0.0,0.0,0.0,0.0,0.0,0.0,0.0,0.0,0.0,0.0,0.0,0.0,0.0,0.0,0.0,0.0,0.0,0.0,0.0,0.0,0.0,0.0,0.0,0.0,0.0,0.0,0.0,0.0,0.0,0.0,0.0,0.0,0.0,0.0,0.0,0.0,0.0,0.0,0.0,0.0,0.0,0.0,0.0,0.0,0.0,0.0,0.0,0.0,0.0,0.0,0.0,0.0,0.0,0.0,0.0,0.0,0.0,0.0,0.0,0.0,0.0,0.0,0.0,0.0,0.0,0.0,0.0,0.0,0.0,0.0,0.0,0.0,0.0,0.0,0.0,0.0,0.0,0.0,0.0,0.0,0.0,0.0,0.0,0.0,0.0,0.0,0.0,0.0,0.0,0.0,0.0,0.0,0.0,0.0,0.0,0.0,0.0,0.0,0.0,0.0,0.0,0.0,0.0,0.0,0.0,0.0,0.0,0.0,0.0,0.0,0.0,0.0,0.0,0.0,0.0,0.0,0.0,0.0,0.0,0.0,0.0,0.0,0.0,0.0,0.0,0.0,0.0,0.0,0.0,0.0,0.0,0.0,0.0,0.0,0.0,0.0,0.0,0.0,0.0,0.0,0.0,0.0,0.0,0.0,0.0,0.0,0.0,0.0,0.0,0.0,0.0,0.0,0.0,0.0,0.0,0.0,0.0,0.0,0.0,0.0,0.0,0.0,0.0,0.0,0.0,0.0,0.0,0.0,0.0,0.0,0.0,0.0,0.0,0.0,0.0,0.0,0.0,0.0,0.0,0.0,0.0,0.0,0.0,0.0,0.0,0.0,0.0,0.0,0.0,0.0,0.0,0.0,0.0,0.0,0.0,0.0,0.0,0.0,0.0,0.0,0.0,0.0,0.0,0.0,0.0,0.0,0.0,0.0,0.0,0.0,0.0,0.0,0.0,0.0,0.0,0.0,0.0,0.0,0.0,0.0,0.0,0.0,0.0,0.0,0.0,0.0,0.0,0.0,0.0,0.0,0.0,0.0,0.0,0.0,0.0,0.0,0.0,0.0,0.0,0.0,0.0,0.0,0.0,0.0,0.0,0.0,0.0,0.0,0.0,0.0,0.0,0.0,0.0,0.0,0.0,0.0,0.0,0.0,0.0,0.0,0.0,0.0,0.0,0.0,0.0,0.0,0.0,0.0,0.0,0.0,0.0,0.0,0.0,0.0,0.0,0.0,0.0,0.0,0.0,0.0,0.0,0.0,0.0,0.0,0.0,0.0,0.0,0.0,0.0,0.0,0.0,0.0,0.0,0.0,0.0,0.0,0.0,0.0,0.0,0.0,0.0,0.0,0.0,0.0,0.0,0.0,0.0,0.0,0.0,0.0,0.0,0.0,0.0,0.0,0.0,0.0,0.0,0.0,0.0,0.0,0.0,0.0,0.0,0.0,0.0,0.0,0.0,0.0,0.0,0.0,0.0,0.0,0.0,0.0,0.0,0.0,0.0,0.0,0.0,0.0,0.0,0.0,0.0,0.0,0.0,0.0,0.0,0.0,0.0,0.0,0.0,0.0,0.0,0.0,0.0,0.0,0.0,0.0,0.0,0.0,0.0,0.0,0.0,0.0,0.0,0.0,0.0,0.0,0.0,0.0,0.0,0.0,0.0,0.0,0.0,0.0,0.0,0.0,0.0,0.0,0.0,0.0,0.0,0.0,0.0,0.0,0.0,0.0,0.0,0.0,0.0,0.0,0.0,0.0,0.0,0.0,0.0,0.0,0.0,0.0,0.0,0.0,0.0,0.0,0.0,0.0,0.0,0.0,0.0,0.0,0.0,0.0,0.0,0.0,0.0,0.0,0.0,0.0,0.0,0.0,0.0,0.0,0.0,0.0,0.0,0.0,0.0,0.0,0.0,0.0,0.0,0.0,0.0,0.0,0.0,0.0,0.0,0.0,0.0,0.0,0.0,0.0,0.0,0.0,0.0,0.0,0.0,0.0,0.0,0.0,0.0,0.0,0.0,0.0,0.0,0.0,0.0,0.0,0.0,0.0,0.0,0.0,0.0,0.0,0.0,0.0,0.0,0.0,0.0,0.0,0.0,0.0,0.0,0.0,0.0,0.0,0.0,0.0,0.0,0.0,0.0,0.0,0.0,0.0,0.0,0.0,0.0,0.0,0.0,0.0,0.0,0.0,0.0,0.0,0.0,0.0,0.0,0.0,0.0,0.0,0.0,0.0,0.0,0.0,0.0,0.0,0.0,0.0,0.0,0.0,0.0,0.0,0.0,0.0,0.0,0.0,0.0,0.0,0.0,1.0142,0.0,0.0,0.0,0.0,0.0,0.0,0.0,0.0,0.0,0.0,0.0,0.0,0.0,0.0,0.0,0.0,0.0,0.0,0.0,0.0,0.0,0.0,0.0,0.0,0.0,0.0,0.0,0.0,0.0,0.0,0.0,0.0,0.0,0.0,0.0,0.0,0.0,0.0,0.0,0.0,0.0,0.0,0.0,0.0,0.0,0.0,0.0,0.0,0.0,0.0,0.0,0.0,0.0,0.0,0.0,0.0,0.0,0.0,0.0,0.0,0.0,0.0,0.0,0.0,0.0,0.0,0.0,0.0,0.0,0.0,0.0,0.0,0.0,0.0,0.0,0.0,0.0,0.0,0.0,0.0,0.0,0.0,0.0,0.0,0.0,0.0,0.0,0.0,0.0,0.0,0.0,0.0,0.0,0.0,0.0,0.0,0.0,0.0,0.0,0.0,0.0,0.0,0.0,0.0,0.0,0.0,0.0,0.0,0.0,0.0,1.1239,1.117,1.1307,1.1079,1.0407,0.0,0.0,0.0,0.0,0.0,0.0,0.0,0.0,0.0,0.0,0.0,0.0,0.0,0.0,0.0,0.0,0.0,0.0,0.0,0.0,0.0,0.0,0.0,0.0,0.0,0.0,0.0,0.0,0.0,0.0,0.0,0.0,0.0,0.0,0.0,0.0,0.0,0.0,0.0,0.0,0.0,0.0,0.0,0.0,0.0,0.0,0.0,0.0,0.0,0.0,0.0,0.0,0.0,0.0,0.0,0.0,0.0,0.0,0.0,0.0,0.0,0.0,0.0,0.0,0.0,0.0,0.0,0.0,0.0,0.0,0.0,0.0,0.0,0.0,0.0,0.0,0.0,0.0,0.0,0.0,0.0,0.0,0.0,0.0,0.0,0.0,0.0,0.0,0.0,0.0,0.0,0.0,0.0,0.0,0.0,0.0,0.0,0.0,0.0,0.0,0.0,0.0,0.0,0.0,0.0,0.0,0.0,0.0,0.0,0.0,0.0,0.0,1.1678,1.1308,1.0329,0.0,0.0,0.0,0.0,0.0,0.0,0.0,0.0,0.0,0.0,0.0,0.0,0.0,0.0,0.0,0.0,0.0,0.0,0.0,0.0,0.0,0.0,0.0,0.0,0.0,0.0,0.0,0.0,0.0,0.0,0.0,0.0,0.0,0.0,0.0,0.0,0.0,0.0,0.0,0.0,0.0,0.0,0.0,0.0,0.0,0.0,0.0,0.0,0.0,0.0,0.0,0.0,0.0,0.0,0.0,0.0,0.0,0.0,0.0,0.0,0.0,0.0,0.0,0.0,0.0,0.0,0.0,0.0,0.0,0.0,0.0,0.0,0.0,0.0,0.0,0.0,0.0,0.0,0.0,0.0,0.0,0.0,0.0,0.0,0.0,0.0,0.0,0.0,0.0,0.0,0.0,0.0,0.0,0.0,0.0,0.0,0.0,0.0,0.0,0.0,0.0,0.0,0.0,0.0,0.0,0.0,0.0,0.0,0.0,0.0,1.1384,1.126,1.1271,0.0,0.9517,0.0,0.0,0.0,0.0,0.0,0.0,0.0,0.0,0.0,0.0,0.0,0.0,0.0,0.0,0.0,0.0,0.0,0.0,0.0,0.0,0.0,0.0,0.0,0.0,0.0,0.0,0.0,0.0,0.0,0.0,0.0,0.0,0.0,0.0,0.0,0.0,0.0,0.0,0.0,0.0,0.0,0.0,0.0,0.0,0.0,0.0,0.0,0.0,0.0,0.0,0.0,0.0,0.0,0.0,0.0,0.0,0.0,0.0,0.0,0.0,0.0,0.0,0.0,0.0,0.0,0.0,0.0,0.0,0.0,0.0,0.0,0.0,0.0,0.0,0.0,0.0,0.0,0.0,0.0,0.0,0.0,0.0,0.0,0.0,0.0,0.0,0.0,0.0,0.0,0.0,0.0,0.0,0.0,0.0,0.0,0.0,0.0,0.0,0.0,0.0,0.0,0.0,0.0,0.0,0.0,0.0,0.0,0.0,0.0,0.0,1.1174,1.1012,1.0899,1.0535,0.0,0.0,0.0,0.0,0.0,0.0,0.0,0.0,0.0,0.0,0.0,0.0,0.0,0.0,0.0,0.0,0.0,0.0,0.0,0.0,0.0,0.0,0.0,0.0,0.0,0.0,0.0,0.0,0.0,0.0,0.0,0.0,0.0,0.0,0.0,0.0,0.0,0.0,0.0,0.0,0.0,0.0,0.0,0.0,0.0,0.0,0.0,0.0,0.0,0.0,0.0,0.0,0.0,0.0,0.0,0.0,0.0,0.0,0.0,0.0,0.0,0.0,0.0,0.0,0.0,0.0,0.0,0.0,0.0,0.0,0.0,0.0,0.0,0.0,0.0,0.0,0.0,0.0,0.0,0.0,0.0,0.0,0.0,0.0,0.0,0.0,0.0,0.0,0.0,0.0,0.0,0.0,0.0,0.0,0.0,0.0,0.0,0.0,0.0,0.0,0.0,0.0,0.0,0.0,0.0,0.0,0.0,0.0,0.0,0.0,1.1012,1.0926,1.0812,1.0611,1.0487,1.0288,0.0,0.0,0.0,0.0,0.0,0.0,0.0,0.0,0.0,0.0,0.0,0.0,0.0,0.0,0.0,0.0,0.0,0.0,0.0,0.0,0.0,0.0,0.0,0.0,0.0,0.0,0.0,0.0,0.0,0.0,0.0,0.0,0.0,0.0,0.0,0.0,0.0,0.0,0.0,0.0,0.0,0.0,0.0,0.0,0.0,0.0,0.0,0.0,0.0,0.0,0.0,0.0,0.0,0.0,0.0,0.0,0.0,0.0,0.0,0.0,0.0,0.0,0.0,0.0,0.0,0.0,0.0,0.0,0.0,0.0,0.0,0.0,0.0,0.0,0.0,0.0,0.0,0.0,0.0,0.0,0.0,0.0,0.0,0.0,0.0,0.0,0.0,0.0,0.0,0.0,0.0,0.0,0.0,0.0,0.0,0.0,0.0,0.0,0.0,0.0,0.0,0.0,0.0,0.0,0.0,0.0,0.0,0.0,1.0926,1.0736,1.0621,1.0631,1.0467,1.0374,0.0,0.0,0.0,0.0,0.0,0.0,0.0,0.0,0.0,0.0,0.0,0.0,0.0,0.0,0.0,0.0,0.0,0.0,0.0,0.0,0.0,0.0,0.0,0.0,0.0,0.0,0.0,0.0,0.0,0.0,0.0,0.0,0.0,0.0,0.0,0.0,0.0,0.0,0.0,0.0,0.0,0.0,0.0,0.0,0.0,0.0,0.0,0.0,0.0,0.0,0.0,0.0,0.0,0.0,0.0,0.0,0.0,0.0,0.0,0.0,0.0,0.0,0.0,0.0,0.0,0.0,0.0,0.0,0.0,0.0,0.0,0.0,0.0,0.0,0.0,0.0,0.0,0.0,0.0,0.0,0.0,0.0,0.0,0.0,0.0,0.0,0.0,0.0,0.0,0.0,0.0,0.0,0.0,0.0,0.0,0.0,0.0,0.0,0.0,0.0,0.0,0.0,0.0,0.0,0.0,0.0,0.0,0.0,0.0,1.0708,1.0854,1.0735,1.0426,1.0604,1.0567,0.0,0.0,0.0,0.0,0.0,0.0,0.0,0.0,0.0,0.0,0.0,0.0,0.0,0.0,0.0,0.0,0.0,0.0,0.0,0.0,0.0,0.0,0.0,0.0,0.0,0.0,0.0,0.0,0.0,0.0,0.0,0.0,0.0,0.0,0.0,0.0,0.0,0.0,0.0,0.0,0.0,0.0,0.0,0.0,0.0,0.0,0.0,0.0,0.0,0.0,0.0,0.0,0.0,0.0,0.0,0.0,0.0,0.0,0.0,0.0,0.0,0.0,0.0,0.0,0.0,0.0,0.0,0.0,0.0,0.0,0.0,0.0,0.0,0.0,0.0,0.0,0.0,0.0,0.0,0.0,0.0,0.0,0.0,0.0,0.0,0.0,0.0,0.0,0.0,0.0,0.0,0.0,0.0,0.0,0.0,0.0,0.0,0.0,0.0,0.0,0.0,0.0,0.0,0.0,0.0,0.0,0.0,0.0,0.0,1.0636,0.0,1.1071,1.077,1.0801,1.0709,0.0,0.0,0.0,0.0,0.0,0.0,0.0,0.0,0.0,0.0,0.0,0.0,0.0,0.0,0.0,0.0,0.0,0.0,0.0,0.0,0.0,0.0,0.0,0.0,0.0,0.0,0.0,0.0,0.0,0.0,0.0,0.0,0.0,0.0,0.0,0.0,0.0,0.0,0.0,0.0,0.0,0.0,0.0,0.0,0.0,0.0,0.0,0.0,0.0,0.0,0.0,0.0,0.0,0.0,0.0,0.0,0.0,0.0,0.0,0.0,0.0,0.0,0.0,0.0,0.0,0.0,0.0,0.0,0.0,0.0,0.0,0.0,0.0,0.0,0.0,0.0,0.0,0.0,0.0,0.0,0.0,0.0,0.0,0.0,0.0,0.0,0.0,0.0,0.0,0.0,0.0,0.0,0.0,0.0,0.0,0.0,0.0,0.0,0.0,0.0,0.0,0.0,0.0,0.0,0.0,0.0,0.0,0.0,1.0498,1.0701,1.1195,1.1499,1.1655,1.1008,1.0647,0.0,0.0,0.0,0.0,0.0,0.0,0.0,0.0,0.0,0.0,0.0,0.0,0.0,0.0,0.0,0.0,0.0,0.0,0.0,0.0,0.0,0.0,0.0,0.0,0.0,0.0,0.0,0.0,0.0,0.0,0.0,0.0,0.0,0.0,0.0,0.0,0.0,0.0,0.0,0.0,0.0,0.0,0.0,0.0,0.0,0.0,0.0,0.0,0.0,0.0,0.0,0.0,0.0,0.0,0.0,0.0,0.0,0.0,0.0,0.0,0.0,0.0,0.0,0.0,0.0,0.0,0.0,0.0,0.0,0.0,0.0,0.0,0.0,0.0,0.0,0.0,0.0,0.0,0.0,0.0,0.0,0.0,0.0,0.0,0.0,0.0,0.0,0.0,0.0,0.0,0.0,0.0,0.0,0.0,0.0,0.0,0.0,0.0,0.0,0.0,0.0,0.0,0.0,0.0,0.0,0.0,0.0,0.0,0.0,1.1046,1.1483,1.1796,1.2083,1.142,1.0923,0.0,0.0,0.0,0.0,0.0,0.0,0.0,0.0,0.0,0.0,0.0,0.0,0.0,0.0,0.0,0.0,0.0,0.0,0.0,0.0,0.0,0.0,0.0,0.0,0.0,0.0,0.0,0.0,0.0,0.0,0.0,0.0,0.0,0.0,0.0,0.0,0.0,0.0,0.0,0.0,0.0,0.0,0.0,0.0,0.0,0.0,0.0,0.0,0.0,0.0,0.0,0.0,0.0,0.0,0.0,0.0,0.0,0.0,0.0,0.0,0.0,0.0,0.0,0.0,0.0,0.0,0.0,0.0,0.0,0.0,0.0,0.0,0.0,0.0,0.0,0.0,0.0,0.0,0.0,0.0,0.0,0.0,0.0,0.0,0.0,0.0,0.0,0.0,0.0,0.0,0.0,0.0,0.0,0.0,0.0,0.0,0.0,0.0,0.0,0.0,0.0,0.0,0.0,0.0,0.0,0.0,0.0,0.0,0.0,1.1086,1.1574,1.192,1.2062,1.1351,1.0869,1.0609,0.0,0.0,0.0,0.0,0.0,0.0,0.0,0.0,0.0,0.0,0.0,0.0,0.0,0.0,0.0,0.0,0.0,0.0,0.0,0.0,0.0,0.0,0.0,0.0,0.0,0.0,0.0,0.0,0.0,0.0,0.0,0.0,0.0,0.0,0.0,0.0,0.0,0.0,0.0,0.0,0.0,0.0,0.0,0.0,0.0,0.0,0.0,0.0,0.0,0.0,0.0,0.0,0.0,0.0,0.0,0.0,0.0,0.0,0.0,0.0,0.0,0.0,0.0,0.0,0.0,0.0,0.0,0.0,0.0,0.0,0.0,0.0,0.0,0.0,0.0,0.0,0.0,0.0,0.0,0.0,0.0,0.0,0.0,0.0,0.0,0.0,0.0,0.0,0.0,0.0,0.0,0.0,0.0,0.0,0.0,0.0,0.0,0.0,0.0,0.0,0.0,0.0,0.0,0.0,0.0,0.0,0.0,0.0,1.0898,1.1541,1.1778,1.166,1.0933,1.048,0.0,0.0,0.0,0.0,0.0,0.0,0.0,0.0,0.0,0.0,0.0,0.0,0.0,0.0,0.0,0.0,0.0,0.0,0.0,0.0,0.0,0.0,0.0,0.0,0.0,0.0,0.0,0.0,0.0,0.0,0.0,0.0,0.0,0.0,0.0,0.0,0.0,0.0,0.0,0.0,0.0,0.0,0.0,0.0,0.0,0.0,0.0,0.0,0.0,0.0,0.0,0.0,0.0,0.0,0.0,0.0,0.0,0.0,0.0,0.0,0.0,0.0,0.0,0.0,0.0,0.0,0.0,0.0,0.0,0.0,0.0,0.0,0.0,0.0,0.0,0.0,0.0,0.0,0.0,0.0,0.0,0.0,0.0,0.0,0.0,0.0,0.0,0.0,0.0,0.0,0.0,0.0,0.0,0.0,0.0,0.0,0.0,0.0,0.0,0.0,0.0,0.0,0.0,0.0,0.0,0.0,0.0,0.0,0.0,1.0897,1.0973,1.1124,1.136,1.091,1.053,0.0,0.0,0.0,0.0,0.0,0.0,0.0,0.0,0.0,0.0,0.0,0.0,0.0,0.0,0.0,0.0,0.0,0.0,0.0,0.0,0.0,0.0,0.0,0.0,0.0,0.0,0.0,0.0,0.0,0.0,0.0,0.0,0.0,0.0,0.0,0.0,0.0,0.0,0.0,0.0,0.0,0.0,0.0,0.0,0.0,0.0,0.0,0.0,0.0,0.0,0.0,0.0,0.0,0.0,0.0,0.0,0.0,0.0,0.0,0.0,0.0,0.0,0.0,0.0,0.0,0.0,0.0,0.0,0.0,0.0,0.0,0.0,0.0,0.0,0.0,0.0,0.0,0.0,0.0,0.0,0.0,0.0,0.0,0.0,0.0,0.0,0.0,0.0,0.0,0.0,0.0,0.0,0.0,0.0,0.0,0.0,0.0,0.0,0.0,0.0,0.0,0.0,0.0,0.0,0.0,0.0,0.0,0.0,1.0437,1.0702,1.0624,1.0616,1.0761,1.0565,1.0295,0.0,0.0,0.0,0.0,0.0,0.0,0.0,0.0,0.0,0.0,0.0,0.0,0.0,0.0,0.0,0.0,0.0,0.0,0.0,0.0,0.0,0.0,0.0,0.0,0.0,0.0,0.0,0.0,0.0,0.0,0.0,0.0,0.0,0.0,0.0,0.0,0.0,0.0,0.0,0.0,0.0,0.0,0.0,0.0,0.0,0.0,0.0,0.0,0.0,0.0,0.0,0.0,0.0,0.0,0.0,0.0,0.0,0.0,0.0,0.0,0.0,0.0,0.0,0.0,0.0,0.0,0.0,0.0,0.0,0.0,0.0,0.0,0.0,0.0,0.0,0.0,0.0,0.0,0.0,0.0,0.0,0.0,0.0,0.0,0.0,0.0,0.0,0.0,0.0,0.0,0.0,0.0,0.0,0.0,0.0,0.0,0.0,0.0,0.0,0.0,0.0,0.0,0.0,0.0,0.0,0.0,0.0,0.0,1.0434,1.0458,1.0371,1.0223,1.0044,1.0069,1.0011,0.0,0.0,0.0,0.0,0.0,0.0,0.0,0.0,0.0,0.0,0.0,0.0,0.0,0.0,0.0,0.0,0.0,0.0,0.0,0.0,0.0,0.0,0.0,0.0,0.0,0.0,0.0,0.0,0.0,0.0,0.0,0.0,0.0,0.0,0.0,0.0,0.0,0.0,0.0,0.0,0.0,0.0,0.0,0.0,0.0,0.0,0.0,0.0,0.0,0.0,0.0,0.0,0.0,0.0,0.0,0.0,0.0,0.0,0.0,0.0,0.0,0.0,0.0,0.0,0.0,0.0,0.0,0.0,0.0,0.0,0.0,0.0,0.0,0.0,0.0,0.0,0.0,0.0,0.0,0.0,0.0,0.0,0.0,0.0,0.0,0.0,0.0,0.0,0.0,0.0,0.0,0.0,0.0,0.0,0.0,0.0,0.0,0.0,0.0,0.0,0.0,0.0,0.0,0.0,0.0,0.0,0.0,0.0,1.0139,1.0325,1.0294,1.0294,1.024,1.0119,0.9934,0.0,0.0,0.0,0.0,0.0,0.0,0.0,0.0,0.0,0.0,0.0,0.0,0.0,0.0,0.0,0.0,0.0,0.0,0.0,0.0,0.0,0.0,0.0,0.0,0.0,0.0,0.0,0.0,0.0,0.0,0.0,0.0,0.0,0.0,0.0,0.0,0.0,0.0,0.0,0.0,0.0,0.0,0.0,0.0,0.0,0.0,0.0,0.0,0.1944,0.0,0.0,0.0,0.0,0.0,0.0,0.0,0.0,0.0,0.0,0.0,0.0,0.0,0.0,0.0,0.0,0.0,0.0,0.0,0.0,0.0,0.0,0.0,0.0,0.0,0.0,0.0,0.0,0.0,0.0,0.0,0.0,0.0,0.0,0.0,0.0,0.0,0.0,0.0,0.0,0.0,0.0,0.0,0.0,0.0,0.0,0.0,0.0,0.0,0.0,0.0,0.0,0.0,0.0,0.0,0.0,0.0,0.0,0.0,1.0248,1.0228,1.0265,1.029,1.0275,1.0085,0.9888,0.0,0.0,0.0,0.0,0.0,0.0,0.0,0.0,0.0,0.0,0.0,0.0,0.0,0.0,0.0,0.0,0.0,0.0,0.0,0.0,0.0,0.0,0.0,0.0,0.0,0.0,0.0,0.0,0.0,0.0,0.0,0.0,0.0,0.0,0.0,0.0,0.0,0.0,0.0,0.0,0.0,0.0,0.0,0.0,0.0,0.0,0.0,0.0,0.0,0.0,0.0,0.0,0.0,0.0,0.0,0.0,0.0,0.0,0.0,0.0,0.0,0.0,0.0,0.0,0.0,0.0,0.0,0.0,0.0,0.0,0.0,0.0,0.0,0.0,0.0,0.0,0.0,0.0,0.0,0.0,0.0,0.0,0.0,0.0,0.0,0.0,0.0,0.0,0.0,0.0,0.0,0.0,0.0,0.0,0.0,0.0,0.0,0.0,0.0,0.0,0.0,0.0,0.0,0.0,0.0,0.0,0.0,1.0272,1.0476,1.0159,1.0272,1.0372,1.0307,1.0108,0.9958,0.9772,0.0,0.0,0.0,0.0,0.0,0.0,0.0,0.0,0.0,0.0,0.0,0.0,0.0,0.0,0.0,0.0,0.0,0.0,0.0,0.0,0.0,0.0,0.0,0.0,0.0,0.0,0.0,0.0,0.0,0.0,0.0,0.0,0.0,0.0,0.0,0.0,0.0,0.0,0.1355,0.1387,0.0,0.0,0.0,0.0,0.0,0.0,0.0,0.0,0.112,0.0,0.0,0.0,0.0,0.0,0.0,0.0,0.0,0.0,0.0,0.0,0.0,0.0,0.0,0.0,0.0,0.0,0.0,0.0,0.0,0.0,0.0,0.0,0.0,0.0,0.0,0.0,0.0,0.0,0.0,0.0,0.0,0.0,0.0,0.0,0.0,0.0,0.0,0.0,0.0,0.0,0.0,0.0,0.0,0.0,0.0,0.0,0.0,0.0,0.0,0.0,0.0,0.0,0.0,0.0,0.0,0.9843,1.0188,1.0361,1.0279,1.0477,1.052,1.0513,1.0509,1.0315,1.0048,0.0,0.0,0.0,0.0,0.0,0.0,0.0,0.0,0.0,0.0,0.0,0.0,0.0,0.0,0.0,0.0,0.0,0.0,0.0,0.0,0.0,0.0,0.0,0.0,0.0,0.0,0.0,0.0,0.0,0.0,0.0,0.0,0.0,0.0,0.0,0.0,0.0,0.0,0.0,0.0512,0.0358,0.0,0.0,0.0,0.0,0.0,0.0,0.0,0.0,0.019,0.0,0.0,0.0,0.0,0.0,0.0,0.0,0.0,0.0,0.0,0.0,0.0,0.0,0.0,0.0,0.0,0.0,0.0,0.0,0.0,0.0,0.0,0.0,0.0,0.0,0.0,0.0,0.0,0.0,0.0,0.0,0.0,0.0,0.0,0.0,0.0,0.0,0.0,0.0,0.0,0.0,0.0,0.0,0.0,0.0,0.0,0.0,0.0,0.0,0.0,0.0,0.0,0.0,0.0,0.0,0.9899,1.0193,1.0286,1.0189,1.037,1.0533,1.0588,1.0431,1.0373,0.0,0.0,0.0,0.0,0.0,0.0,0.0,0.0,0.0,0.0,0.0,0.0,0.0,0.0,0.0,0.0,0.0,0.0,0.0,0.0,0.0,0.0,0.0,0.0,0.0,0.0,0.0,0.0,0.0,0.0,0.0,0.0,0.0,0.0,0.0,0.0,0.0,0.0,0.0,0.0,-0.0178,-0.0377,-0.059,0.0,0.0,0.0,0.0,0.0,0.0,-0.0964,-0.0892,0.0,0.0,0.0,0.0,0.0,0.0,0.0,0.0,0.0,0.0,0.0,0.0,0.0,0.0,0.0,0.0,0.0,0.0,0.0,0.0,0.0,0.0,0.0,0.0,0.0,0.0,0.0,0.0,0.0,0.0,0.0,0.0,0.0,0.0,0.0,0.0,0.0,0.0,0.0,0.0,0.0,0.0,0.0,0.0,0.0,0.0,0.0,0.0,0.0,0.0,0.0,0.0,0.0,0.0,0.0,0.9918,1.012,1.0165,0.9992,1.0158,1.0244,1.0428,1.021,1.0248,0.0,0.0,0.0,0.0,0.0,0.0,0.0,0.0,0.0,0.0,0.0,0.0,0.0,0.0,0.0,0.0,0.0,0.0,0.0,0.0,0.0,0.0,0.0,0.0,0.0,0.0,0.0,0.0,0.0,0.0,0.0,0.0,0.0,0.0,0.0,0.0,0.0,0.0,0.0,0.0,0.0,-0.0989,-0.1157,-0.1533,0.0,0.0,0.0,0.0,-0.1896,-0.1896,0.0,0.0,0.0,0.0,0.0,0.0,0.0,0.0,0.0,0.0,0.0,0.0,0.0,0.0,0.0,0.0,0.0,0.0,0.0,0.0,0.0,0.0,0.0,0.0,0.0,0.0,0.0,0.0,0.0,0.0,0.0,0.0,0.0,0.0,0.0,0.0,0.0,0.0,0.0,0.0,0.0,0.0,0.0,0.0,0.0,0.0,0.0,0.0,0.0,0.0,0.0,0.0,0.0,0.0,0.0,0.0,0.9962,0.9883,0.9813,0.9695,0.9781,0.9862,0.9932,1.0098,1.0194,0.0,0.0,0.0,0.0,0.0,0.0,0.0,0.0,0.0,0.0,0.0,0.0,0.0,0.0,0.0,0.0,0.0,0.0,0.0,0.0,0.0,0.0,0.0,0.0,0.0,0.0,0.0,0.0,0.0,0.0,0.0,0.0,0.0,0.0,0.0,0.0,0.0,0.0,0.0,0.0,0.0,-0.1501,-0.1507,-0.1594,-0.1816,0.0,0.0,-0.2402,-0.233,-0.2187,0.0,0.0,0.0,0.0,0.0,0.0,0.0,0.0,0.0,0.0,0.0,0.0,0.0,0.0,0.0,0.0,0.0,0.0,0.0,0.0,0.0,0.0,0.0,0.0,0.0,0.0,0.0,0.0,0.0,0.0,0.0,0.0,0.0,0.0,0.0,0.0,0.0,0.0,0.0,0.0,0.0,0.0,0.0,0.0,0.0,0.0,0.0,0.0,0.0,0.0,0.0,0.0,0.0,0.0,0.0,0.9821,0.9904,0.9649,0.9469,0.9432,0.9438,0.9431,0.9491,0.9622,0.9753,0.0,0.0,0.0,0.0,0.0,0.0,0.0,0.0,0.0,0.0,0.0,0.0,0.0,0.0,0.0,0.0,0.0,0.0,0.0,0.0,0.0,0.0,0.0,0.0,0.0,0.0,0.0,0.0,0.0,0.0,0.0,0.0,0.0,0.0,0.0,0.0,0.0,0.0,0.0,0.0,0.0,0.0,-0.1734,-0.2278,0.0,0.0,0.0,-0.3399,-0.3399,0.0,0.0,0.0,0.0,0.0,0.0,0.0,0.0,0.0,0.0,0.0,0.0,0.0,0.0,0.0,0.0,0.0,0.0,0.0,0.0,0.0,0.0,0.0,0.0,0.0,0.0,0.0,0.0,0.0,0.0,0.0,0.0,0.0,0.0,0.0,0.0,0.0,0.0,0.0,0.0,0.0,0.0,0.0,0.0,0.0,0.0,0.0,0.0,0.0,0.0,0.0,0.0,0.0,0.0,0.0,0.0,0.0,0.9595,0.9308,0.914,0.903,0.8978,0.901,0.914,0.9135,0.0,0.0,0.0,0.0,0.0,0.0,0.0,0.0,0.0,0.0,0.0,0.0,0.0,0.0,0.0,0.0,0.0,0.0,0.0,0.0,0.0,0.0,0.0,0.0,0.0,0.0,0.0,0.3426,0.0,0.0,0.0,0.0,0.0,0.0,0.0,0.0,0.0,0.0,0.0,0.0,0.0,0.0,-0.2417,-0.2136,-0.3107,-0.404,0.0,0.0,-0.4279,-0.4279,-0.3973,-0.3767,0.0,0.0,0.0,0.0,0.0,0.0,0.0,0.0,0.0,0.0,0.0,0.0,0.0,0.0,0.0,0.0,0.0,0.0,0.0,0.0,0.0,0.0,0.0,0.0,0.0,0.0,0.0,0.0,0.0,0.0,0.0,0.0,0.0,0.0,0.0,0.0,0.0,0.0,0.0,0.0,0.0,0.0,0.0,0.0,0.0,0.0,0.0,0.0,0.0,0.0,0.0,0.0,0.0,0.0,0.0,0.8961,0.8924,0.8734,0.8393,0.8523,0.8629,0.8629,0.8629,0.8853,0.0,0.0,0.0,0.0,0.0,0.0,0.0,0.0,0.0,0.0,0.0,0.0,0.0,0.0,0.0,0.0,0.0,0.0,0.0,0.0,0.0,0.0,0.0,0.0,0.0,0.0,0.0,0.0,0.0,0.0,0.0,0.0,0.0,0.0,0.0,0.0,0.0,0.0,0.0,0.0,0.0,-0.2939,-0.2991,-0.3928,-0.4856,0.0,0.0,-0.4957,-0.4703,-0.4446,-0.4356,-0.4356,0.0,0.0,0.0,0.0,0.0,0.0,0.0,0.0,0.0,0.0,0.0,0.0,0.0,0.0,0.0,0.0,0.0,0.0,0.0,0.0,0.0,0.0,0.0,0.0,0.0,0.0,0.0,0.0,0.0,0.0,0.0,0.0,0.0,0.0,0.0,0.0,0.0,0.0,0.0,0.0,0.0,0.0,0.0,0.0,0.0,0.0,0.0,0.0,0.0,0.0,0.0,0.0,0.0,0.9258,0.9036,0.8749,0.8565,0.8364,0.8317,0.821,0.8206,0.8206,0.8394,0.0,0.0,0.0,0.0,0.0,0.0,0.0,0.0,0.0,0.0,0.0,0.0,0.0,0.0,0.0,0.0,0.0,0.0,0.0,0.0,0.0,0.0,0.0,0.0,0.0,0.0,0.0,0.0,0.2506,0.1988,0.1648,0.0,0.0,0.0,0.0,0.0,0.0,0.0,0.0,0.0,0.0,-0.3812,-0.4091,-0.4796,0.0,0.0,-0.6025,-0.5849,-0.5759,-0.5523,-0.5307,-0.5139,-0.4711,0.0,0.0,0.0,0.0,0.0,0.0,0.0,0.0,0.0,0.0,0.0,0.0,0.0,0.0,0.0,0.0,0.0,0.0,0.0,0.0,0.0,0.0,0.0,0.0,0.0,0.0,0.0,0.0,0.0,0.0,0.0,0.0,0.0,0.0,0.0,0.0,0.0,0.0,0.0,0.0,0.0,0.0,0.0,0.0,0.0,0.0,0.0,0.0,0.0,0.0,0.0,0.0,0.91,0.8829,0.8539,0.8245,0.8024,0.7869,0.7755,0.775,0.775,0.7881,0.0,0.0,0.0,0.0,0.0,0.0,0.0,0.0,0.0,0.0,0.0,0.0,0.0,0.0,0.0,0.0,0.0,0.0,0.0,0.0,0.0,0.0,0.0,0.0,0.0,0.0,0.0,0.0,0.2236,0.1619,0.117,0.0,0.0,0.0,0.0,0.0,0.0,0.0,0.0,0.0,0.0,-0.4444,-0.479,-0.5336,-0.5987,-0.652,-0.6526,-0.6428,-0.6428,-0.6177,-0.6034,-0.5863,0.0,0.0,0.0,0.0,0.0,0.0,0.0,0.0,0.0,0.0,0.0,0.0,0.0,0.0,0.0,0.0,0.0,0.0,0.0,0.0,0.0,0.0,0.0,0.0,0.0,0.0,0.0,0.0,0.0,0.0,1.0714,0.0,0.0,0.0,0.0,0.0,0.0,0.0,0.0,0.0,0.0,0.0,0.0,0.0,0.0,0.0,0.0,0.0,0.0,0.0,0.0,0.0,0.0,0.8753,0.8138,0.8075,0.7729,0.7315,0.7243,0.7257,0.7261,0.718,0.7247,0.7438,0.0,0.0,0.0,0.0,0.0,0.0,0.0,0.0,0.0,0.0,0.0,0.0,0.0,0.0,0.0,0.0,0.0,0.0,0.0,0.0,0.0,0.0,0.0,0.0,0.0,0.0,0.2502,0.1931,0.1089,0.0,0.0,0.0,0.0,0.0,0.0,0.0,0.0,0.0,0.0,-0.4588,-0.4887,-0.4982,-0.5628,-0.6358,-0.6989,-0.6707,-0.6432,-0.6435,-0.6425,-0.6425,0.0,0.0,0.0,0.0,0.0,0.0,0.0,0.0,0.0,0.0,0.0,0.0,0.0,0.0,0.0,0.0,0.0,0.0,0.0,0.0,0.0,0.0,0.0,0.0,0.0,0.0,0.0,1.2175,1.1705,0.0,0.0,0.0,0.0,0.0,0.0,0.0,0.0,0.0,0.0,0.0,1.0454,1.0645,0.0,0.0,0.0,0.0,0.0,0.0,0.0,0.0,0.0,0.0,0.0,0.0,0.8533,0.8423,0.7852,0.7559,0.7492,0.7085,0.6929,0.7108,0.6869,0.6748,0.6714,0.0,0.0,0.0,0.0,0.0,0.0,0.0,0.0,0.0,0.0,0.0,0.0,0.0,0.0,0.0,0.0,0.0,0.0,0.0,0.0,0.0,0.0,0.0,0.0,0.0,0.2491,0.0,0.0,0.0,0.0,0.0,0.0,0.0,0.0,0.0,0.0,0.0,-0.3863,-0.4416,-0.5109,-0.5549,-0.547,-0.623,-0.698,0.0,0.0,0.0,0.0,0.0,0.0,0.0,0.0,0.0,0.0,0.0,0.0,0.0,0.0,-0.5534,-0.5355,-0.5012,-0.4857,-0.5134,0.0,0.0,0.0,0.0,0.0,0.0,0.0,0.0,0.0,0.0,0.0,0.0,0.0,0.0,1.2431,0.0,1.1728,0.0,0.0,0.0,0.0,0.0,0.0,0.0,0.0,1.0021,1.0067,1.0099,1.0216,1.0149,0.0,0.9734,0.9921,0.0,0.0,0.0,0.0,0.0,0.0,0.0,0.0,0.8369,0.8263,0.7593,0.7312,0.7346,0.6718,0.6355,0.6526,0.628,0.6113,0.6089,0.6328,0.6479,0.0,0.0,0.0,0.0,0.0,0.0,0.0,0.0,0.0,0.0,0.0,0.0,0.0,0.0,0.0,0.0,0.0,0.0,0.0,0.0,0.0,0.0,0.0,0.1704,0.0,0.0,0.0,0.0,0.0,0.0,0.0,0.0,0.0,-0.3079,-0.3694,-0.4427,-0.5058,-0.5707,-0.6081,-0.615,0.0,0.0,0.0,0.0,0.0,0.0,0.0,-0.7212,-0.7125,-0.7034,-0.7031,-0.6753,-0.6557,-0.6459,-0.6156,0.0,0.0,-0.6128,-0.5923,-0.5761,-0.5976,-0.6312,-0.6747,-0.7267,-0.7876,-0.8652,0.0,0.0,0.0,0.0,0.0,0.0,0.0,0.0,1.2987,1.2608,0.0,1.1626,0.0,0.0,0.0,0.0,0.0,0.9489,0.0,0.0,0.9633,0.9625,0.9514,0.9682,0.973,0.9725,0.9498,0.9539,0.9884,1.0056,0.0,0.0,0.0,0.0,0.0,0.0,0.8286,0.7739,0.7277,0.6873,0.6698,0.596,0.5633,0.5558,0.5379,0.5371,0.5527,0.533,0.5533,0.6022,0.5885,0.0,0.0,0.0,0.0,0.0,0.0,0.0,0.0,0.0,0.0,0.0,0.0,0.0,0.0,0.0,0.0,0.0,0.0,0.0,0.0,0.1422,0.0,0.0,0.0,0.0,0.0,0.0,0.0,0.0,0.0,0.0,-0.4011,-0.4431,-0.506,-0.5807,0.0,0.0,0.0,0.0,-0.7419,-0.7911,-0.7802,-0.7607,-0.7604,-0.76,-0.7594,-0.7594,0.0,0.0,-0.7214,-0.7032,-0.6948,-0.6951,-0.6966,-0.6948,-0.6944,-0.6917,-0.691,-0.7095,-0.7356,-0.7854,-0.8509,-0.9011,-0.9776,1.6081,0.0,0.0,0.0,0.0,1.405,1.3714,1.3186,1.3067,1.2697,1.2211,1.2157,0.0,0.0,0.0,0.0,0.0,0.0,0.9285,0.9075,0.9111,0.9068,0.8836,0.8787,0.8673,0.8418,0.8363,0.8563,0.893,0.8876,0.8812,0.879,0.0,0.0,0.0,0.0,0.7867,0.7604,0.71,0.6625,0.6348,0.584,0.537,0.5012,0.4592,0.4466,0.4547,0.4541,0.4637,0.4849,0.5066,0.0,0.0,0.0,0.0,0.0,0.0,0.0,0.0,0.0,0.0,0.0,0.0,0.0,0.0,0.0,0.0,0.0,0.0,0.0,0.0725,-0.0,-0.0573,0.0,0.0,0.0,0.0,0.0,0.0,0.0,0.0,0.0,-0.5356,-0.5519,-0.5747,0.0,0.0,-0.7208,-0.7107,-0.7514,-0.7815,-0.8014,-0.7824,0.0,-0.775,-0.7665,-0.7597,-0.7597,-0.7597,-0.7631,-0.7634,-0.7555,-0.7594,-0.7693,-0.7717,-0.7717,-0.7707,-0.735,-0.7227,-0.7396,-0.7868,-0.8243,-0.8905,-0.9554,-1.0209,1.5717,1.5035,1.4911,1.4502,1.3932,1.385,1.3558,1.3024,1.2879,1.2654,1.2289,1.199,1.1298,1.0367,0.9677,0.0,0.0,0.0,0.8793,0.8488,0.8483,0.8459,0.8296,0.8203,0.8066,0.7885,0.7889,0.7942,0.7967,0.7967,0.7874,0.7761,0.0,0.0,0.8151,0.7778,0.7438,0.7188,0.6615,0.6178,0.5703,0.518,0.4597,0.4117,0.3894,0.369,0.3601,0.373,0.3776,0.3827,0.4195,0.4367,0.0,0.0,0.0,0.0,0.0,0.0,0.0,0.0,0.0,0.0,0.0,0.4467,0.4333,0.0,0.0,0.0,0.129,0.0082,-0.067,-0.1429,0.0,0.0,0.0,0.0,0.0,0.0,0.0,-0.4383,-0.4954,-0.548,-0.613,-0.6375,-0.6573,-0.6734,-0.7186,-0.7546,-0.7528,0.0,-0.8038,-0.8038,-0.796,-0.7902,-0.7902,-0.7831,-0.7773,-0.7777,-0.7773,-0.7801,-0.7879,-0.7899,-0.7936,-0.8011,-0.8038,-0.8038,-0.8038,-0.769,-0.7571,-0.7859,-0.8243,-0.8722,-0.9303,-0.9875,-1.0441,1.5322,1.5034,1.4721,1.4309,1.3712,1.3712,1.34,1.2772,1.2618,1.2451,1.2277,1.1526,1.0792,1.0142,0.9345,0.0,0.7915,0.8359,0.8292,0.7895,0.7909,0.7916,0.7935,0.791,0.7893,0.7805,0.7805,0.7548,0.7152,0.7505,0.7168,0.6344,0.7431,0.7832,0.7544,0.73,0.6965,0.6433,0.6005,0.5452,0.494,0.4228,0.36,0.3153,0.3153,0.3063,0.2883,0.2882,0.2856,0.2979,0.3144,0.3371,0.3551,0.0,0.0,0.0,0.0,0.0,0.0,0.0,0.0,0.0,0.0,0.0,0.0,0.0,0.0,0.0,-0.0676,0.0,-0.1952,-0.2806,0.0,0.0,0.0,-0.3709,-0.4121,-0.4591,-0.4936,-0.5032,0.0,0.0,-0.6365,-0.7061,-0.7547,-0.7547,-0.7563,-0.7743,-0.7939,-0.7939,-0.8038,-0.8038,-0.8038,-0.8038,-0.8024,-0.8018,-0.8011,-0.8011,-0.8038,-0.8024,-0.8028,-0.8031,-0.8035,-0.8038,-0.8038,-0.8038,-0.8038,-0.8024,-0.8038,-0.8418,-0.8616,-0.9015,-0.9792,-1.0284,-1.0765,1.549,1.4128,1.385,1.3818,1.3986,1.3986,1.3548,1.2768,1.268,1.2412,1.202,1.1475,1.0454,0.8932,0.8436,0.811,0.7885,0.7979,0.7955,0.7827,0.8001,0.7959,0.7894,0.7656,0.7489,0.7389,0.7207,0.7006,0.6977,0.7069,0.6771,0.6182,0.6365,0.6665,0.7045,0.6701,0.6396,0.6271,0.5636,0.4869,0.4029,0.3473,0.3099,0.2723,0.2538,0.2445,0.2351,0.2351,0.2346,0.2427,0.2665,0.2708,0.2654,0.3026,0.0,0.0,0.0,0.0,0.0,0.0,0.0,0.0,0.0,0.3228,0.2472,0.0,0.0334,0.0,-0.2482,-0.3639,-0.3417,-0.3981,0.0,0.0,-0.4623,-0.4734,-0.5062,-0.5533,-0.5871,-0.6013,-0.6509,-0.6946,-0.7282,-0.7496,-0.769,-0.7888,-0.7918,-0.7942,-0.8038,-0.8038,-0.8038,-0.8038,-0.8038,-0.8038,-0.8038,-0.8038,-0.8038,-0.8038,-0.8038,-0.8038,-0.8038,-0.8038,-0.8038,-0.8038,-0.8038,-0.8038,-0.8038,-0.8038,-0.8134,-0.8627,-0.8726,-0.9122,-1.0113,-1.0511,-1.0998,1.5084,1.3665,1.3077,1.3077,1.3362,1.3409,1.2945,1.2038,1.2032,1.193,1.1563,1.0244,0.8937,0.796,0.7793,0.7618,0.745,0.7535,0.7444,0.7346,0.7434,0.7516,0.7402,0.7218,0.7029,0.6835,0.6646,0.6555,0.6367,0.6661,0.6375,0.5601,0.5228,0.533,0.5787,0.5784,0.5671,0.5609,0.4678,0.3858,0.3234,0.2859,0.2573,0.2383,0.2193,0.2004,0.1908,0.1908,0.1908,0.1907,0.2075,0.2052,0.2031,0.2372,0.2772,0.0,0.0,0.0,0.0,0.0,0.0,0.0,0.0,0.0,0.0,0.0,-0.1139,-0.2257,-0.3696,-0.4514,-0.4371,-0.4851,-0.5235,-0.5516,-0.5608,-0.5815,-0.6157,-0.6353,-0.6594,-0.6724,-0.7033,-0.7356,-0.7534,-0.7746,-0.7842,-0.8038,-0.8038,-0.8038,-0.8038,-0.8038,-0.8038,-0.8038,-0.8038,-0.8038,-0.8038,-0.8038,-0.8038,-0.8038,-0.8038,-0.8038,-0.8038,-0.8038,-0.8038,-0.8038,-0.8038,-0.8038,-0.8038,-0.8038,-0.8134,-0.8627,-0.8825,-0.9126,-1.0015,-1.0408,-1.0801,1.443,1.3318,1.2211,1.193,1.2242,1.24,1.1944,1.1111,1.1111,1.113,1.0968,0.8438,0.7286,0.7007,0.7305,0.7214,0.6826,0.6926,0.6941,0.6865,0.6774,0.6783,0.6798,0.6795,0.6605,0.6314,0.6311,0.6026,0.5553,0.6241,0.605,0.4791,0.4122,0.3931,0.4319,0.4699,0.4786,0.4583,0.3543,0.2785,0.2496,0.2306,0.2115,0.1923,0.1923,0.173,0.1442,0.1442,0.1442,0.1442,0.1438,0.1437,0.1436,0.172,0.216,0.0,0.2443,0.0,0.0,0.0,0.0,0.0,0.0,0.0,0.0,-0.152,-0.2846,-0.4,-0.4581,-0.4968,-0.5172,-0.5651,-0.6032,-0.6227,-0.6412,-0.6742,-0.7043,-0.7158,-0.7205,-0.7223,-0.754,-0.7646,-0.7646,-0.7856,-0.8069,-0.8079,-0.8109,-0.8022,-0.7995,-0.7969,-0.8038,-0.8038,-0.8038,-0.8038,-0.8038,-0.8038,-0.8038,-0.8038,-0.8038,-0.8038,-0.8038,-0.8038,-0.8038,-0.8038,-0.8038,-0.8038,-0.8038,-0.8038,-0.8137,-0.8627,-0.8726,-0.9023,-0.9821,-1.0216,-1.0609,1.3858,1.2754,1.1327,1.0947,1.1385,1.1011,1.0882,1.0882,1.0687,1.0329,0.9723,0.7732,0.6726,0.6538,0.6832,0.6744,0.6455,0.6744,0.6899,0.6912,0.7009,0.6869,0.6767,0.6569,0.6369,0.6075,0.5681,0.5381,0.5284,0.5693,0.5295,0.4187,0.3188,0.2992,0.3396,0.0,0.0,0.0,0.2971,0.2597,0.2099,0.2199,0.2,0.17,0.1299,0.0,0.09,0.09,0.09,0.0899,0.0886,0.0,0.0,0.0,0.0,0.0,0.0,0.0,0.0,0.0,0.0,0.0,-0.2615,-0.317,-0.1872,-0.3006,-0.4277,-0.5144,-0.5647,-0.6076,-0.6462,-0.677,-0.6961,-0.6964,-0.7063,-0.7075,-0.7195,-0.7403,-0.7515,-0.754,-0.7746,-0.7942,-0.7959,-0.8147,-0.8225,-0.8231,-0.8326,-0.8284,-0.8066,-0.7988,-0.8048,-0.8038,-0.8062,-0.8045,-0.8038,-0.8052,-0.8065,-0.8038,-0.8038,-0.8041,-0.8041,-0.8038,-0.8038,-0.8038,-0.8038,-0.8038,-0.8038,-0.8038,-0.8137,-0.8432,-0.8627,-0.9023,-0.9821,-1.0216,-1.0609,1.3166,0.0,1.0596,1.0275,0.0,0.9916,0.9616,0.962,0.9616,0.9284,0.8732,0.7058,0.6346,0.6352,0.6257,0.616,0.6058,0.616,0.6293,0.635,0.6251,0.6281,0.6139,0.5937,0.5639,0.5338,0.5039,0.4638,0.4435,0.4643,0.4342,0.3429,0.2519,0.2319,0.2927,0.2726,0.2513,0.2489,0.2513,0.2324,0.1819,0.1819,0.1819,0.1617,0.1313,0.0,0.0,0.0,0.0,0.0,0.0,0.0,0.0,0.0,0.0,-0.0581,-0.0968,-0.1349,-0.1622,-0.1811,-0.2008,-0.2122,-0.4479,-0.5271,-0.3671,-0.4536,-0.5349,-0.5937,-0.6448,-0.6773,-0.7033,-0.7241,-0.7338,-0.7441,-0.754,-0.7662,-0.773,-0.785,-0.7981,-0.8044,-0.8156,-0.8258,-0.8255,-0.8319,-0.8374,-0.8377,-0.8435,-0.8486,-0.8256,-0.825,-0.8258,-0.8255,-0.8255,-0.8258,-0.8258,-0.8258,-0.8225,-0.8177,-0.8153,-0.8119,-0.8052,-0.8038,-0.8038,-0.8038,-0.8038,-0.8038,-0.8038,-0.8038,-0.8141,-0.8336,-0.8531,-0.8829,-0.9426,-0.9924,-1.0212,1.24,1.1028,0.995,0.9697,0.9817,0.908,0.8453,0.8031,0.0,0.0,0.0,0.6434,0.5934,0.6047,0.5739,0.5536,0.5334,0.5434,0.5436,0.5436,0.5434,0.5434,0.5336,0.514,0.4939,0.4634,0.4336,0.3934,0.353,0.3633,0.3332,0.2725,0.1917,0.1816,0.2322,0.2223,0.2123,0.2123,0.2022,0.1819,0.1516,0.1516,0.1617,0.1617,0.1212,0.0606,-0.0303,-0.101,-0.1516,-0.1617,-0.1313,-0.101,-0.0808,-0.101,-0.1204,-0.1483,-0.2073,-0.2745,-0.3278,-0.3768,-0.4001,-0.3872,-0.5954,-0.6762,-0.5424,-0.5804,-0.6235,-0.6531,-0.7056,-0.7375,-0.7378,-0.7604,-0.772,-0.772,-0.7918,-0.8174,-0.8289,-0.8309,-0.835,-0.8459,-0.8469,-0.8479,-0.8469,-0.8503,-0.8523,-0.8526,-0.856,-0.856,-0.8554,-0.8509,-0.856,-0.8452,-0.8442,-0.8465,-0.8476,-0.8465,-0.8435,-0.8326,-0.8306,-0.8252,-0.8126,-0.8079,-0.8072,-0.8041,-0.8038,-0.8038,-0.8038,-0.8038,-0.8038,-0.8237,-0.8333,-0.8535,-0.9034,-0.9529,-0.9924,1.1897,1.0402,0.9649,0.9338,0.9242,0.8586,0.7746,0.6736,0.6736,0.6945,0.7266,0.6142,0.5434,0.5037,0.5646,0.524,0.4227,0.4732,0.4935,0.4935,0.4935,0.4836,0.4539,0.4539,0.4234,0.3729,0.3531,0.323,0.2925,0.2725,0.2524,0.2225,0.1819,0.1415,0.1111,0.101,0.1212,0.1617,0.1212,0.101,0.0909,0.1414,0.1617,0.1516,-0.0202,-0.1212,-0.1313,-0.1111,-0.1111,-0.1617,-0.1921,-0.2123,-0.2123,-0.2324,-0.262,-0.2917,-0.2815,-0.3111,-0.3804,-0.4264,-0.5158,-0.6719,-0.7383,-0.7188,-0.6337,-0.6515,-0.6924,-0.7347,-0.7652,-0.7926,-0.8139,-0.8237,-0.8297,-0.8307,-0.8418,-0.8431,-0.8452,-0.8455,-0.8465,-0.8499,-0.8482,-0.8492,-0.852,-0.8604,-0.8679,-0.8696,-0.8757,-0.8855,-0.8811,-0.8866,-0.8716,-0.8587,-0.8482,-0.8482,-0.8516,-0.8486,-0.8492,-0.8455,-0.8452,-0.8404,-0.8262,-0.8225,-0.8184,-0.8069,-0.8045,-0.8038,-0.8038,-0.8038,-0.8038,-0.8137,-0.8237,-0.8432,-0.8535,-0.9031,-0.943,1.105,0.9617,0.8912,0.8465,0.8266,0.736,0.6474,0.5707,0.5496,0.5777,0.6248,0.5424,0.4732,0.4255,0.4778,0.4675,0.4048,0.4257,0.4257,0.4257,0.4257,0.405,0.3843,0.3638,0.3431,0.3222,0.2911,0.2703,0.2495,0.2391,0.208,0.1458,0.1562,0.1457,0.125,0.0937,0.1041,0.1561,0.1327,0.101,0.0404,0.0606,0.0404,-0.0101,-0.1111,-0.1617,-0.1617,-0.1617,-0.1725,-0.1947,-0.2256,-0.2576,-0.2704,-0.2809,-0.3119,-0.3535,-0.3635,-0.3945,-0.457,-0.5016,-0.5793,-0.7015,-0.7871,-0.803,-0.7367,-0.7461,-0.7564,-0.7875,-0.8037,-0.8273,-0.8387,-0.8445,-0.8482,-0.8482,-0.8482,-0.8516,-0.8591,-0.8608,-0.8638,-0.871,-0.873,-0.873,-0.873,-0.8791,-0.8835,-0.8842,-0.8903,-0.8937,-0.8937,-0.8937,-0.8841,-0.873,-0.873,-0.8733,-0.8726,-0.873,-0.8696,-0.8625,-0.8608,-0.8543,-0.8411,-0.8336,-0.8248,-0.8174,-0.8102,-0.8045,-0.8038,-0.8038,-0.8038,-0.8038,-0.8035,-0.8233,-0.8432,-0.873,-0.9225,1.0497,0.8598,0.7965,0.7487,0.7149,0.6201,0.5448,0.4896,0.4466,0.4656,0.5037,0.4599,0.3995,0.351,0.4048,0.405,0.362,0.362,0.3621,0.3514,0.3514,0.3407,0.3086,0.2876,0.2772,0.2664,0.2558,0.2344,0.2132,0.2132,0.1705,0.0747,0.1067,0.128,0.128,0.0854,0.0854,0.1172,0.0934,0.0409,-0.0409,-0.0409,-0.0716,-0.133,-0.1535,-0.1637,-0.1739,-0.2046,-0.2265,-0.2501,-0.2609,-0.2835,-0.3194,-0.3302,-0.3621,-0.4151,-0.4466,-0.49,-0.5561,-0.5984,-0.6526,-0.72,-0.8278,-0.8711,-0.8378,-0.8268,-0.8236,-0.8187,-0.8404,-0.8533,-0.8543,-0.8574,-0.8584,-0.8584,-0.8584,-0.8642,-0.874,-0.876,-0.8804,-0.892,-0.8937,-0.893,-0.8937,-0.8937,-0.893,-0.8927,-0.8937,-0.8937,-0.8937,-0.8937,-0.8937,-0.8937,-0.8937,-0.8923,-0.8937,-0.8927,-0.8876,-0.8774,-0.876,-0.8693,-0.8567,-0.8438,-0.8333,-0.8282,-0.8174,-0.8092,-0.8052,-0.8038,-0.8038,-0.8038,-0.8038,-0.8141,-0.8333,-0.8531,-0.8928,1.0249,0.8103,0.6979,0.6381,0.6199,0.5554,0.4864,0.4269,0.3726,0.3542,0.3687,0.3743,0.3402,0.2978,0.3735,0.3525,0.2562,0.2664,0.2774,0.2667,0.2664,0.2558,0.2562,0.256,0.2451,0.2241,0.2242,0.2032,0.1819,0.171,0.1174,0.0213,0.0107,-0.0,-0.0,-0.0,0.0107,0.0107,-0.0957,-0.1487,-0.1593,-0.1593,-0.1381,-0.0956,-0.1486,-0.191,-0.2222,-0.2227,-0.244,-0.2871,-0.3295,-0.3508,-0.3834,-0.4259,-0.4684,-0.5114,-0.532,-0.5882,-0.6727,-0.6737,-0.7214,-0.821,-0.8659,-0.8882,-0.8773,-0.8776,-0.8774,-0.8587,-0.8618,-0.8686,-0.8696,-0.8801,-0.8862,-0.8852,-0.8866,-0.8903,-0.8899,-0.892,-0.8927,-0.8933,-0.8937,-0.8937,-0.8937,-0.8937,-0.8937,-0.8937,-0.8937,-0.8937,-0.8937,-0.8937,-0.8937,-0.8937,-0.8937,-0.8937,-0.8937,-0.8937,-0.8923,-0.8903,-0.891,-0.8838,-0.8723,-0.8659,-0.8601,-0.8387,-0.8258,-0.8191,-0.8099,-0.8038,-0.8038,-0.8038,-0.8038,-0.8041,-0.8333,-0.8432,-0.863,0.9154,0.7017,0.6465,0.6005,0.5539,0.4657,0.4088,0.3844,0.3296,0.2978,0.2993,0.2865,0.2746,0.2526,0.3077,0.2969,0.2527,0.2308,0.2198,0.2308,0.2418,0.2308,0.2087,0.2087,0.1978,0.1978,0.1978,0.1868,0.1649,0.0989,0.044,-0.0,-0.0,-0.0,-0.0,-0.0,-0.033,-0.1099,-0.1539,-0.1759,-0.1755,-0.1833,-0.1813,-0.1705,-0.1706,-0.1919,-0.2451,-0.2769,-0.3102,-0.335,-0.3786,-0.4236,-0.4822,-0.5045,-0.5372,-0.5816,-0.6248,-0.6811,-0.7298,-0.7405,-0.7755,-0.8481,-0.8712,-0.8937,-0.8937,-0.8937,-0.8879,-0.8791,-0.8808,-0.8845,-0.8849,-0.8903,-0.8937,-0.8937,-0.8937,-0.8937,-0.8937,-0.8937,-0.8937,-0.8937,-0.8937,-0.8937,-0.8937,-0.8937,-0.8937,-0.8937,-0.8937,-0.8937,-0.8937,-0.8937,-0.8937,-0.8937,-0.8937,-0.8937,-0.8937,-0.8937,-0.8937,-0.8937,-0.8937,-0.8896,-0.8859,-0.8757,-0.8659,-0.8537,-0.8284,-0.817,-0.8201,-0.8089,-0.8038,-0.8038,-0.8038,-0.8038,-0.8137,-0.8137,-0.8233,0.8149,0.6442,0.6113,0.5554,0.4879,0.3977,0.3524,0.3184,0.273,0.2503,0.2503,0.2276,0.2162,0.2273,0.2367,0.2468,0.2356,0.2019,0.1907,0.2131,0.2244,0.2019,0.157,0.157,0.157,0.157,0.1681,0.1682,0.1234,0.0448,-0.0,-0.0,-0.0,-0.0,-0.0,-0.0336,-0.0897,-0.1682,-0.1795,-0.1795,-0.19,-0.1863,-0.2056,-0.227,-0.2053,-0.227,-0.281,-0.3349,-0.3692,-0.3957,-0.4402,-0.4977,-0.559,-0.5708,-0.6042,-0.6606,-0.7157,-0.7487,-0.7826,-0.7925,-0.8143,-0.8595,-0.8823,-0.8937,-0.8937,-0.8937,-0.8937,-0.893,-0.8937,-0.8933,-0.8937,-0.8937,-0.8937,-0.8937,-0.8937,-0.8937,-0.8937,-0.8937,-0.8937,-0.8937,-0.8937,-0.8937,-0.8937,-0.8937,-0.8937,-0.8937,-0.8937,-0.8937,-0.8937,-0.8937,-0.8937,-0.8937,-0.8937,-0.8937,-0.8937,-0.8937,-0.8937,-0.8937,-0.8937,-0.8937,-0.8937,-0.8828,-0.873,-0.8638,-0.8347,-0.8176,-0.817,-0.8079,-0.8038,-0.8038,-0.8038,-0.8038,-0.8038,-0.8038,-0.8038,0.7383,0.6199,0.5512,0.4688,0.3759,0.3638,0.3171,0.2462,0.2348,0.2232,0.1994,0.1879,0.188,0.1874,0.1937,0.1909,0.1797,0.1687,0.1688,0.18,0.1797,0.1459,0.1009,0.0897,0.0897,0.1009,0.1458,0.1121,0.0224,-0.0,-0.0,-0.0,-0.0,-0.0,-0.0,-0.1121,-0.1683,-0.1795,-0.1795,-0.2019,-0.2244,-0.224,-0.2234,-0.2345,-0.2461,-0.2903,-0.3462,-0.3578,-0.4136,-0.5252,-0.5359,-0.559,-0.6161,-0.6492,-0.6937,-0.7496,-0.7823,-0.8156,-0.8374,-0.8146,-0.8257,-0.8712,-0.8937,-0.8937,-0.8937,-0.8937,-0.8937,-0.8937,-0.8937,-0.8937,-0.8937,-0.8937,-0.8937,-0.8937,-0.8937,-0.8937,-0.8937,-0.8937,-0.8937,-0.8937,-0.8937,-0.8937,-0.8937,-0.8937,-0.8937,-0.8937,-0.8937,-0.8937,-0.8937,-0.8937,-0.8937,-0.8937,-0.8937,-0.8937,-0.8937,-0.8937,-0.8937,-0.8937,-0.8937,-0.8937,-0.8937,-0.8916,-0.8835,-0.8743,-0.8587,-0.8498,-0.8362,-0.8151,-0.8041,-0.8038,-0.8038,-0.8038,-0.8038,-0.8038,-0.8038,0.6584,0.4226,0.4234,0.3885,0.3414,0.2946,0.2711,0.2475,0.2121,0.2003,0.1885,0.1414,0.1414,0.1767,0.1747,0.1621,0.1158,0.0811,0.081,0.1272,0.1604,0.171,0.148,0.0677,0.0336,0.0336,0.0561,0.0448,-0.0,-0.0,-0.0,-0.0,-0.0,-0.0,-0.0,-0.1234,-0.1795,-0.1795,-0.2019,-0.2244,-0.2356,-0.2579,-0.2915,-0.3027,-0.3253,-0.3477,-0.3813,-0.4706,-0.5262,-0.5369,-0.5708,-0.6158,-0.6492,-0.7049,-0.7493,-0.7826,-0.8156,-0.8374,-0.8484,-0.8595,-0.8709,-0.8826,-0.8937,-0.8947,-0.8937,-0.8937,-0.8937,-0.894,-0.894,-0.8937,-0.8937,-0.8937,-0.8937,-0.8937,-0.8937,-0.8937,-0.8937,-0.8937,-0.8937,-0.8937,-0.8937,-0.8937,-0.8937,-0.8937,-0.8937,-0.8937,-0.8937,-0.8937,-0.8937,-0.8937,-0.8937,-0.8937,-0.8937,-0.8937,-0.8937,-0.8937,-0.8937,-0.8937,-0.8937,-0.8937,-0.8937,-0.8937,-0.8872,-0.8845,-0.8821,-0.8659,-0.8429,-0.8206,-0.8085,-0.8038,-0.8038,-0.8038,-0.8038,-0.8038,-0.8038,0.5493,0.3223,0.3346,0.3229,0.2989,0.2512,0.2393,0.2274,0.1795,0.1675,0.1795,0.1436,0.1436,0.1795,0.1795,0.1316,0.0597,0.0237,0.0236,0.0588,0.1048,0.1275,0.1042,0.0344,-0.0,-0.0,-0.0,-0.0,-0.0,-0.0,-0.0,-0.0,-0.0,-0.0226,-0.0678,-0.1237,-0.157,-0.1795,-0.2132,-0.2356,-0.2356,-0.2915,-0.3362,-0.3703,-0.4055,-0.4281,-0.4484,-0.5375,-0.5822,-0.5929,-0.627,-0.6733,-0.7214,-0.7708,-0.8066,-0.8289,-0.863,-0.8848,-0.8739,-0.8963,-0.897,-0.9083,-0.9086,-0.9083,-0.9079,-0.9083,-0.9083,-0.9083,-0.9083,-0.9079,-0.9083,-0.9086,-0.9045,-0.8967,-0.8937,-0.8937,-0.8937,-0.8937,-0.8937,-0.8937,-0.8937,-0.8937,-0.8937,-0.8937,-0.8937,-0.8937,-0.8937,-0.8937,-0.8937,-0.8937,-0.8937,-0.8937,-0.8937,-0.8937,-0.8937,-0.8937,-0.8937,-0.8937,-0.8937,-0.8937,-0.8937,-0.8937,-0.893,-0.891,-0.8825,-0.8679,-0.8482,-0.8238,-0.8116,-0.8052,-0.8038,-0.8038,-0.8038,-0.8038,-0.8038,0.3939,0.2949,0.2958,0.2829,0.2581,0.2457,0.2341,0.1969,0.1355,0.1475,0.1719,0.1848,0.1598,0.1725,0.1597,0.1109,-0.0,-0.0,-0.0,-0.0,-0.0,-0.0,-0.0,-0.0,-0.0,-0.0,-0.0,-0.0,-0.0,-0.0,-0.0,-0.0,-0.0,-0.0,-0.1725,-0.1363,-0.135,-0.1803,-0.2143,-0.2478,-0.2694,-0.3379,-0.3831,-0.417,-0.5015,-0.5471,-0.5392,-0.55,-0.596,-0.6626,-0.707,-0.7558,-0.8136,-0.8587,-0.89,-0.8881,-0.9129,-0.9367,-0.9357,-0.9228,-0.9215,-0.933,-0.9473,-0.9449,-0.932,-0.9334,-0.9337,-0.933,-0.9337,-0.9351,-0.9344,-0.9337,-0.9245,-0.9008,-0.8991,-0.8994,-0.8974,-0.8954,-0.895,-0.8974,-0.8988,-0.8954,-0.8954,-0.8991,-0.9008,-0.9001,-0.8994,-0.8988,-0.8981,-0.8974,-0.895,-0.8937,-0.8937,-0.8937,-0.8937,-0.8937,-0.8937,-0.8937,-0.8937,-0.8937,-0.8937,-0.8937,-0.8937,-0.892,-0.8759,-0.8726,-0.8462,-0.8235,-0.8203,-0.8041,-0.8038,-0.8038,-0.8038,-0.8038,-0.8038,0.3328,0.2342,0.259,0.2468,0.2222,0.2222,0.2099,0.1977,0.173,0.1235,0.0741,0.0618,0.0618,-0.0,0.0618,-0.0,-0.0,-0.0,-0.0,-0.0,-0.0,-0.0,-0.0,-0.0,-0.0,-0.0,-0.0,-0.0,-0.0,-0.0,-0.0,-0.0,-0.0938,-0.152,-0.1871,-0.1745,-0.1857,-0.2322,-0.2554,-0.29,-0.3481,-0.3826,-0.4402,-0.5101,-0.5474,-0.5931,-0.6481,-0.6594,-0.6827,-0.7287,-0.7634,-0.7996,-0.8621,-0.8778,-0.9036,-0.9265,-0.9381,-0.9381,-0.9381,-0.9388,-0.9391,-0.9384,-0.9504,-0.9497,-0.9381,-0.9388,-0.9391,-0.9388,-0.9381,-0.9381,-0.9381,-0.9381,-0.9344,-0.9256,-0.9242,-0.9228,-0.9218,-0.9228,-0.9245,-0.9242,-0.9242,-0.9245,-0.9239,-0.9232,-0.9215,-0.9218,-0.9222,-0.9201,-0.9113,-0.8974,-0.892,-0.8964,-0.8954,-0.8957,-0.8967,-0.896,-0.8937,-0.8937,-0.8937,-0.8937,-0.8937,-0.8937,-0.8937,-0.8923,-0.8766,-0.8629,-0.8472,-0.8347,-0.8203,-0.8148,-0.8048,-0.8045,-0.8041,-0.8038,-0.8038,0.2835,0.2096,0.2221,0.2223,0.1977,0.1977,0.1977,0.1853,0.1482,0.0741,-0.0,-0.0,-0.0,-0.0,-0.0,-0.0,-0.0,-0.0,-0.0,-0.0,-0.0,-0.0,-0.0,-0.0,-0.0,-0.0,-0.0,-0.0,-0.0,-0.0,-0.0,-0.0,-0.1312,-0.2022,-0.202,-0.2128,-0.2357,-0.2593,-0.2943,-0.3414,-0.3886,-0.4472,-0.5057,-0.5647,-0.6029,-0.6636,-0.7225,-0.7501,-0.7606,-0.778,-0.814,-0.8639,-0.9118,-0.9281,-0.9311,-0.9544,-0.9547,-0.9551,-0.9547,-0.9561,-0.9547,-0.9544,-0.9544,-0.9547,-0.9547,-0.9544,-0.9544,-0.9544,-0.9551,-0.9547,-0.9547,-0.9547,-0.9544,-0.9544,-0.9432,-0.9391,-0.9381,-0.9381,-0.9374,-0.9364,-0.9367,-0.9381,-0.9381,-0.9381,-0.9381,-0.9381,-0.9381,-0.9367,-0.9262,-0.9124,-0.9167,-0.91,-0.9072,-0.9059,-0.9025,-0.8988,-0.8944,-0.8937,-0.8937,-0.8937,-0.8937,-0.8937,-0.8937,-0.8937,-0.8793,-0.8716,-0.8587,-0.8459,-0.8354,-0.8155,-0.8092,-0.8045,-0.8038,-0.8038,-0.8038,0.2343,0.1974,0.1975,0.1977,0.1977,0.1977,0.1853,0.1606,0.0618,-0.0,-0.0,-0.0,-0.0,-0.0,-0.0,-0.0,-0.0,-0.0,-0.0,-0.0,-0.0,-0.0,-0.0,-0.0,-0.0,-0.0,-0.0,-0.0,-0.0,-0.0,-0.0,-0.0,-0.1336,-0.1934,-0.205,-0.2383,-0.2491,-0.2613,-0.3318,-0.379,-0.3909,-0.4968,-0.5793,-0.5915,-0.6698,-0.7462,-0.7714,-0.8147,-0.8357,-0.8175,-0.8841,-0.9255,-0.9523,-0.9751,-0.9788,-0.9781,-0.9812,-0.9791,-0.9805,-0.9771,-0.9778,-0.9771,-0.9771,-0.9819,-0.9778,-0.9761,-0.9761,-0.9768,-0.9778,-0.9788,-0.9788,-0.9785,-0.9785,-0.9778,-0.9591,-0.9462,-0.9415,-0.9429,-0.9456,-0.9445,-0.9415,-0.9415,-0.9449,-0.9445,-0.9442,-0.9442,-0.9449,-0.9445,-0.9405,-0.9395,-0.9384,-0.9313,-0.9329,-0.9191,-0.9164,-0.9062,-0.9022,-0.9005,-0.8981,-0.894,-0.8937,-0.8937,-0.8937,-0.8937,-0.8927,-0.8845,-0.8713,-0.8623,-0.8435,-0.835,-0.8208,-0.8096,-0.8055,-0.8072,-0.8041,0.2344,0.1976,0.1976,0.1977,0.1977,0.1977,0.1359,-0.0,-0.0,-0.0,-0.0,-0.0,-0.0,-0.0,-0.0,-0.0,-0.0,-0.0,-0.0,-0.0,-0.0,-0.0,-0.0,-0.0,-0.0,-0.0,-0.0,-0.0,-0.0,-0.0,-0.0494,-0.1482,-0.1353,-0.1595,-0.1962,-0.2319,-0.2683,-0.2925,-0.3533,-0.4137,-0.4624,-0.5352,-0.6088,-0.6577,-0.7319,-0.7944,-0.8193,-0.8711,-0.9073,-0.9001,-0.9376,-0.964,-0.9761,-0.9798,-0.9819,-0.9819,-0.9819,-0.9819,-0.9819,-0.9819,-0.9819,-0.9819,-0.9819,-0.9819,-0.9819,-0.9819,-0.9819,-0.9819,-0.9819,-0.9819,-0.9819,-0.9819,-0.9819,-0.9815,-0.9724,-0.968,-0.9683,-0.9703,-0.9707,-0.9707,-0.9693,-0.9683,-0.9676,-0.968,-0.9676,-0.968,-0.9669,-0.9649,-0.9578,-0.9547,-0.9537,-0.9542,-0.9571,-0.9446,-0.9286,-0.9174,-0.911,-0.9089,-0.9035,-0.8947,-0.894,-0.8937,-0.8937,-0.8937,-0.8937,-0.8879,-0.8722,-0.8665,-0.8584,-0.8435,-0.8326,-0.8214,-0.8163,-0.8153,-0.8072,0.2222,0.1977,0.1359,0.1483,0.1853,0.1359,0.0741,-0.0,-0.0,-0.0,-0.0,-0.0,-0.0,-0.0,-0.0,-0.0,-0.0,-0.0,-0.0,-0.0,-0.0,-0.0,-0.0,-0.0,-0.0,-0.0,-0.0,-0.0,-0.0,-0.0494,-0.1235,-0.173,-0.1606,-0.1729,-0.222,-0.2591,-0.296,-0.3452,-0.3946,-0.4685,-0.5302,-0.6039,-0.6528,-0.7143,-0.7752,-0.8366,-0.8729,-0.9217,-0.9457,-0.9576,-0.9697,-0.9819,-0.9819,-0.9819,-0.9819,-0.9819,-0.9819,-0.9819,-0.9819,-0.9819,-0.9819,-0.9819,-0.9819,-0.9819,-0.9819,-0.9819,-0.9819,-0.9819,-0.9819,-0.9819,-0.9819,-0.9819,-0.9819,-0.9819,-0.9819,-0.9819,-0.9819,-0.9808,-0.9819,-0.9819,-0.9819,-0.9819,-0.9819,-0.9819,-0.9819,-0.9812,-0.9791,-0.9758,-0.9713,-0.97,-0.9669,-0.9689,-0.961,-0.9597,-0.9435,-0.9337,-0.9242,-0.9211,-0.9103,-0.9005,-0.896,-0.8954,-0.8937,-0.8937,-0.8937,-0.8923,-0.8769,-0.8702,-0.8686,-0.8543,-0.8435,-0.8347,-0.8286,-0.8241,-0.8153,0.1977,0.1853,0.0618,0.0741,0.1483,-0.0,-0.0,-0.0,-0.0,-0.0,-0.0,-0.0,-0.0,-0.0,-0.0,-0.0,-0.0,-0.0,-0.0,-0.0,-0.0,-0.0,-0.0,-0.0,-0.0,-0.0,-0.0,-0.0,-0.0,-0.1235,-0.1853,-0.1977,-0.1977,-0.2223,-0.2468,-0.2837,-0.333,-0.3821,-0.4439,-0.5056,-0.5794,-0.6407,-0.7021,-0.751,-0.8122,-0.8729,-0.9217,-0.9579,-0.9822,-0.9819,-0.9819,-0.9819,-0.9819,-0.9819,-0.9819,-0.9819,-0.9819,-0.9819,-0.9819,-0.9819,-0.9819,-0.9819,-0.9819,-0.9819,-0.9819,-0.9819,-0.9819,-0.9819,-0.9819,-0.9819,-0.9819,-0.9819,-0.9819,-0.9819,-0.9819,-0.9819,-0.9819,-0.9819,-0.9819,-0.9819,-0.9819,-0.9819,-0.9819,-0.9819,-0.9819,-0.9819,-0.9819,-0.9802,-0.9781,-0.9768,-0.9768,-0.9758,-0.969,-0.9632,-0.9574,-0.95,-0.9412,-0.934,-0.9195,-0.9086,-0.9011,-0.8984,-0.8954,-0.8937,-0.8937,-0.8937,-0.8923,-0.8838,-0.8747,-0.8689,-0.8604,-0.8482,-0.8374,-0.8343,-0.8279,0.1977,0.1853,0.0618,0.0124,0.0371,-0.0,-0.0,-0.0,-0.0,-0.0,-0.0,-0.0,-0.0,-0.0,-0.0,-0.0,-0.0,-0.0,-0.0,-0.0,-0.0,-0.0,-0.0,-0.0,-0.0,-0.0,-0.0,-0.0,-0.0,-0.1237,-0.1977,-0.1977,-0.21,-0.2222,-0.2591,-0.296,-0.333,-0.3946,-0.4562,-0.5302,-0.5919,-0.6655,-0.7266,-0.7875,-0.8607,-0.9214,-0.9579,-0.9697,-0.9819,-0.9819,-0.9819,-0.9819,-0.9819,-0.9819,-0.9819,-0.9819,-0.9819,-0.9819,-0.9819,-0.9819,-0.9819,-0.9819,-0.9819,-0.9819,-0.9819,-0.9819,-0.9819,-0.9819,-0.9819,-0.9819,-0.9819,-0.9819,-0.9819,-0.9819,-0.9819,-0.9819,-0.9819,-0.9819,-0.9819,-0.9819,-0.9819,-0.9819,-0.9819,-0.9819,-0.9819,-0.9819,-0.9819,-0.9819,-0.9819,-0.9819,-0.9819,-0.9819,-0.9791,-0.9724,-0.9693,-0.9622,-0.954,-0.9462,-0.9327,-0.9164,-0.9089,-0.9022,-0.8988,-0.896,-0.8937,-0.8937,-0.8933,-0.893,-0.8849,-0.8811,-0.8767,-0.8652,-0.855,-0.8492,-0.8408,0.1606,0.0988,0.0247,-0.0,-0.0,-0.0,-0.0,-0.0,-0.0,-0.0,-0.0,-0.0,-0.0,-0.0,-0.0,-0.0,-0.0,-0.0,-0.0,-0.0,-0.0,-0.0,-0.0,-0.0,-0.0,-0.0,-0.0,-0.076,-0.0501,-0.1247,-0.1991,-0.2101,-0.21,-0.2468,-0.2715,-0.3207,-0.3822,-0.4439,-0.5054,-0.5671,-0.6285,-0.69,-0.751,-0.8241,-0.8973,-0.9457,-0.9697,-0.9819,-0.9819,-0.9819,-0.9819,-0.9819,-0.9819,-0.9819,-0.9819,-0.9819,-0.9819,-0.9819,-0.9819,-0.9819,-0.9819,-0.9819,-0.9819,-0.9819,-0.9819,-0.9819,-0.9819,-0.9819,-0.9819,-0.9819,-0.9819,-0.9819,-0.9819,-0.9819,-0.9819,-0.9819,-0.9819,-0.9819,-0.9819,-0.9819,-0.9819,-0.9819,-0.9819,-0.9819,-0.9819,-0.9819,-0.9819,-0.9819,-0.9819,-0.9819,-0.9819,-0.9819,-0.9819,-0.9802,-0.9795,-0.9737,-0.9652,-0.9574,-0.9483,-0.9303,-0.9161,-0.9089,-0.9025,-0.8984,-0.8937,-0.8937,-0.8937,-0.8937,-0.8937,-0.8896,-0.8842,-0.8788,-0.872,-0.8628,-0.8533,0.0988,-0.0,-0.0,-0.0,-0.0,-0.0,-0.0,-0.0,-0.0,-0.0,-0.0,-0.0,-0.0,-0.0,-0.0,-0.0,-0.0,-0.0,-0.0,-0.0,-0.0,-0.0,-0.0,-0.0,-0.0,-0.0,-0.1427,-0.1414,-0.1017,-0.1392,-0.2143,-0.2244,-0.2355,-0.2731,-0.3222,-0.3577,-0.4192,-0.5056,-0.5548,-0.6162,-0.6898,-0.7266,-0.7997,-0.8729,-0.9217,-0.9579,-0.97,-0.9819,-0.9819,-0.9819,-0.9819,-0.9819,-0.9819,-0.9819,-0.9819,-0.9819,-0.9819,-0.9819,-0.9819,-0.9819,-0.9819,-0.9819,-0.9819,-0.9819,-0.9819,-0.9819,-0.9819,-0.9819,-0.9819,-0.9819,-0.9819,-0.9819,-0.9819,-0.9819,-0.9819,-0.9819,-0.9819,-0.9819,-0.9819,-0.9819,-0.9819,-0.9819,-0.9819,-0.9819,-0.9819,-0.9819,-0.9819,-0.9819,-0.9819,-0.9819,-0.9819,-0.9819,-0.9819,-0.9819,-0.9812,-0.9805,-0.9727,-0.9676,-0.9605,-0.9459,-0.9269,-0.9161,-0.9083,-0.8981,-0.8937,-0.8937,-0.8937,-0.8937,-0.8937,-0.8937,-0.8916,-0.8859,-0.8808,-0.8754,-0.8676,0.0247,-0.0,-0.0,-0.0,-0.0,-0.0,-0.0,-0.0,-0.0,-0.0,-0.0,-0.0,-0.0,-0.0,-0.0,-0.0,-0.0,-0.0,-0.0,-0.0,-0.0,-0.0,-0.1481,-0.1481,-0.1341,-0.1202,-0.1851,-0.1956,-0.1805,-0.2055,-0.2306,-0.2683,-0.2656,-0.3017,-0.3632,-0.3977,-0.47,-0.5563,-0.5931,-0.6544,-0.7141,-0.7752,-0.8238,-0.9095,-0.9457,-0.97,-0.97,-0.9819,-0.9819,-0.9819,-0.9819,-0.9819,-0.9819,-0.9819,-0.9819,-0.9819,-0.9819,-0.9819,-0.9819,-0.9819,-0.9819,-0.9819,-0.9819,-0.9819,-0.9819,-0.9819,-0.9819,-0.9819,-0.9819,-0.9819,-0.9819,-0.9819,-0.9819,-0.9819,-0.9819,-0.9819,-0.9819,-0.9819,-0.9819,-0.9819,-0.9819,-0.9819,-0.9819,-0.9819,-0.9819,-0.9819,-0.9819,-0.9819,-0.9819,-0.9819,-0.9819,-0.9819,-0.9819,-0.9819,-0.9819,-0.9819,-0.9788,-0.9754,-0.9693,-0.9615,-0.9439,-0.9262,-0.9144,-0.9045,-0.8964,-0.8937,-0.8937,-0.8937,-0.8937,-0.8937,-0.8933,-0.8927,-0.8882,-0.8838,-0.8862,-0.0,-0.0,-0.0,-0.0,-0.0,-0.0,-0.0,-0.0,-0.0,-0.0,-0.0,-0.0,-0.0,-0.0,-0.0,-0.0,-0.0,-0.0,-0.0,-0.0,-0.0808,-0.1346,-0.2155,-0.2155,-0.202,-0.1882,-0.2271,-0.2646,-0.2614,-0.2218,-0.2601,-0.3224,-0.3327,-0.37,-0.4205,-0.4815,-0.527,-0.5998,-0.6478,-0.695,-0.7396,-0.8002,-0.8735,-0.922,-0.9585,-0.9822,-0.9819,-0.9819,-0.9819,-0.9819,-0.9819,-0.9822,-0.9829,-0.9829,-0.9825,-0.9832,-0.9825,-0.9819,-0.9819,-0.9819,-0.9819,-0.9819,-0.9819,-0.9819,-0.9819,-0.9819,-0.9819,-0.9819,-0.9819,-0.9819,-0.9819,-0.9819,-0.9819,-0.9819,-0.9819,-0.9819,-0.9819,-0.9819,-0.9819,-0.9819,-0.9819,-0.9819,-0.9819,-0.9819,-0.9819,-0.9819,-0.9819,-0.9819,-0.9819,-0.9819,-0.9819,-0.9819,-0.9819,-0.9819,-0.9819,-0.9819,-0.9819,-0.9798,-0.9771,-0.9696,-0.9605,-0.9432,-0.9256,-0.9113,-0.9042,-0.8998,-0.8937,-0.8937,-0.8937,-0.8937,-0.8933,-0.8933,-0.8937,-0.8937,-0.8937,-0.0,-0.0,-0.0,-0.0,-0.0,-0.0,-0.0,-0.0,-0.0,-0.0,-0.0,-0.0,-0.0,-0.0,-0.0,-0.0,-0.0,-0.0,-0.0,-0.0,-0.1481,-0.2155,-0.2155,-0.229,-0.229,-0.2289,-0.2689,-0.308,-0.292,-0.2516,-0.2893,-0.3662,-0.4161,-0.4402,-0.4786,-0.5527,-0.6133,-0.6604,-0.7079,-0.7536,-0.797,-0.8562,-0.918,-0.9426,-0.9787,-0.993,-0.9951,-0.9954,-0.9951,-0.9947,-0.9937,-0.9927,-0.9917,-0.9914,-0.991,-0.9903,-0.9863,-0.9825,-0.9819,-0.9819,-0.9819,-0.9819,-0.9819,-0.9819,-0.9819,-0.9819,-0.9819,-0.9819,-0.9819,-0.9819,-0.9819,-0.9819,-0.9819,-0.9819,-0.9819,-0.9819,-0.9819,-0.9819,-0.9819,-0.9819,-0.9819,-0.9819,-0.9819,-0.9819,-0.9819,-0.9819,-0.9819,-0.9819,-0.9819,-0.9819,-0.9819,-0.9819,-0.9819,-0.9819,-0.9819,-0.9819,-0.9819,-0.9812,-0.9798,-0.9758,-0.9693,-0.9602,-0.9429,-0.9269,-0.9171,-0.912,-0.9032,-0.894,-0.8937,-0.8937,-0.8937,-0.8937,-0.8937,-0.8937,-0.8937,-0.0,-0.0,-0.0,-0.0,-0.0,-0.0,-0.0,-0.0,-0.0,-0.0,-0.0,-0.0,-0.0,-0.0,-0.0,-0.0,-0.0,-0.0,-0.0673,-0.1481,-0.202,-0.229,-0.229,-0.2694,-0.2694,-0.2693,-0.3095,-0.3094,-0.3083,-0.2946,-0.3483,-0.44,-0.4754,-0.4862,-0.5771,-0.6249,-0.6688,-0.7314,-0.7694,-0.819,-0.8931,-0.9428,-0.981,-1.0069,-1.0195,-1.0185,-1.0168,-1.0164,-1.0178,-1.0188,-1.0205,-1.0219,-1.0226,-1.0226,-1.0226,-1.0148,-1.0005,-0.9822,-0.9839,-0.9825,-0.9819,-0.9819,-0.9819,-0.9819,-0.9819,-0.9822,-0.9822,-0.9819,-0.9829,-0.9859,-0.9873,-0.9836,-0.9825,-0.9825,-0.9832,-0.9825,-0.9819,-0.9819,-0.9819,-0.9819,-0.9819,-0.9819,-0.9819,-0.9819,-0.9819,-0.9819,-0.9819,-0.9819,-0.9819,-0.9819,-0.9819,-0.9819,-0.9819,-0.9819,-0.9819,-0.9819,-0.9819,-0.9819,-0.9815,-0.9805,-0.9758,-0.9693,-0.9629,-0.9483,-0.9367,-0.9222,-0.9106,-0.9025,-0.8967,-0.8937,-0.8937,-0.8937,-0.8937,-0.8937,-0.8937,-0.0,-0.0,-0.0,-0.0,-0.0,-0.0,-0.0,-0.0,-0.0,-0.0,-0.0,-0.0,-0.0,-0.0,-0.0,-0.0,-0.1077,-0.1212,-0.1212,-0.1616,-0.202,-0.229,-0.2559,-0.2694,-0.2828,-0.3096,-0.3499,-0.3769,-0.3635,-0.3499,-0.3767,-0.5108,-0.5754,-0.6133,-0.6649,-0.7012,-0.735,-0.7816,-0.814,-0.8742,-0.9376,-0.9761,-1.0019,-1.0283,-1.0287,-1.0293,-1.0293,-1.028,-1.028,-1.028,-1.028,-1.028,-1.0276,-1.0276,-1.0276,-1.0263,-1.0168,-1.0053,-0.9964,-0.988,-0.9849,-0.9825,-0.9829,-0.9819,-0.9819,-0.9836,-0.988,-0.9947,-0.9951,-0.9981,-1.0025,-0.9995,-0.9964,-0.9941,-0.9903,-0.9866,-0.9852,-0.9822,-0.9819,-0.9819,-0.9832,-0.9866,-0.9886,-0.988,-0.9863,-0.9819,-0.9819,-0.9819,-0.9819,-0.9819,-0.9819,-0.9819,-0.9819,-0.9819,-0.9819,-0.9819,-0.9819,-0.9819,-0.9819,-0.9812,-0.9808,-0.9761,-0.97,-0.9639,-0.953,-0.9378,-0.9211,-0.912,-0.9072,-0.9005,-0.8937,-0.8957,-0.8971,-0.8937,-0.9047,-0.0,-0.0,-0.0,-0.0,-0.0,-0.0,-0.0,-0.0,-0.0,-0.0,-0.0,-0.0,-0.0,-0.0,-0.0,-0.0673,-0.2155,-0.2155,-0.1885,-0.1751,-0.202,-0.2559,-0.2828,-0.2962,-0.323,-0.3497,-0.4305,-0.471,-0.4708,-0.4438,-0.4571,-0.5649,-0.6719,-0.7121,-0.7254,-0.7633,-0.799,-0.8322,-0.8903,-0.9383,-0.989,-1.0016,-1.0144,-1.0399,-1.0392,-1.0392,-1.0388,-1.0402,-1.0405,-1.0409,-1.0419,-1.0432,-1.0429,-1.0436,-1.0432,-1.0415,-1.0354,-1.0273,-1.0164,-0.9938,-0.9828,-0.9808,-0.9934,-0.9978,-0.9964,-0.9941,-0.9964,-1.0103,-1.0107,-1.0168,-1.0219,-1.0158,-1.0127,-1.0076,-1.0032,-0.9971,-0.9934,-0.9954,-0.9985,-1.0022,-1.0029,-0.9998,-1.0002,-0.9971,-0.992,-0.9842,-0.9819,-0.9829,-0.9829,-0.9836,-0.9825,-0.9825,-0.9819,-0.9819,-0.9819,-0.9819,-0.9819,-0.9819,-0.9819,-0.9819,-0.9815,-0.9808,-0.9768,-0.971,-0.9656,-0.9564,-0.9415,-0.9296,-0.9181,-0.9147,-0.9106,-0.9143,-0.9116,-0.9089,-0.9282,-0.0,-0.0,-0.0,-0.0,-0.0,-0.0,-0.0,-0.0,-0.0,-0.0,-0.0,-0.0,-0.0,-0.0,-0.0,-0.0808,-0.2155,-0.2155,-0.2155,-0.229,-0.2559,-0.2828,-0.3098,-0.3636,-0.4174,-0.4307,-0.4978,-0.5649,-0.6049,-0.551,-0.578,-0.6453,-0.7263,-0.7665,-0.7927,-0.8189,-0.8584,-0.8944,-0.9575,-0.9981,-1.0244,-1.0383,-1.0646,-1.0656,-1.0673,-1.0687,-1.0683,-1.0649,-1.0633,-1.0633,-1.0622,-1.0626,-1.0609,-1.0616,-1.0612,-1.0595,-1.0531,-1.0463,-1.0395,-1.0146,-0.9846,-0.9849,-1.0089,-1.0181,-1.0164,-1.0215,-1.0253,-1.0249,-1.0259,-1.0283,-1.03,-1.027,-1.0263,-1.0236,-1.0192,-1.0154,-1.0134,-1.0161,-1.0192,-1.0236,-1.0212,-1.0151,-1.0137,-1.0114,-1.0063,-0.9988,-0.9821,-0.9828,-0.9886,-0.9876,-0.9842,-0.9832,-0.9822,-0.9819,-0.9819,-0.9819,-0.9819,-0.9819,-0.9819,-0.9819,-0.9819,-0.9812,-0.9805,-0.9791,-0.9741,-0.9683,-0.9629,-0.9624,-0.9521,-0.934,-0.9387,-0.9408,-0.9571,-0.9658,-0.9831,-0.0,-0.0,-0.0,-0.0,-0.0,-0.0,-0.0,-0.0,-0.0,-0.0,-0.0,-0.0,-0.0,-0.0,-0.0,-0.0808,-0.202,-0.2155,-0.229,-0.2425,-0.2694,-0.3097,-0.3636,-0.4039,-0.4442,-0.4978,-0.5781,-0.6185,-0.6319,-0.6447,-0.6985,-0.7524,-0.7932,-0.8197,-0.8462,-0.8859,-0.9256,-0.9655,-1.0057,-1.0323,-1.0455,-1.0588,-1.0721,-1.0721,-1.0721,-1.0721,-1.0714,-1.0717,-1.0717,-1.0721,-1.0721,-1.0721,-1.0721,-1.0721,-1.0721,-1.0721,-1.0646,-1.0626,-1.0575,-1.0297,-1.0153,-1.0276,-1.0407,-1.0551,-1.0314,-1.029,-1.0337,-1.0368,-1.0412,-1.0429,-1.0534,-1.047,-1.0405,-1.0388,-1.0361,-1.0327,-1.0321,-1.0341,-1.0341,-1.0354,-1.0307,-1.0246,-1.0249,-1.0259,-1.0202,-1.0141,-0.9978,-0.9814,-0.9878,-0.9954,-0.9941,-0.9893,-0.9883,-0.9856,-0.9852,-0.9839,-0.9822,-0.9819,-0.9819,-0.9819,-0.9819,-0.9819,-0.9815,-0.9819,-0.9819,-0.9885,-0.9837,-0.9922,-0.9958,-0.9828,-0.9736,-0.9774,-0.9949,-1.0239,-1.0537,-0.0,-0.0,-0.0,-0.0,-0.0,-0.0,-0.0,-0.0,-0.0,-0.0,-0.0,-0.0399,-0.0669,-0.0669,-0.0672,-0.1077,-0.2155,-0.2425,-0.2559,-0.2828,-0.3098,-0.3636,-0.4174,-0.4844,-0.5381,-0.5783,-0.6453,-0.6855,-0.7123,-0.7386,-0.7784,-0.8323,-0.8728,-0.8862,-0.8859,-0.9392,-0.9927,-1.019,-1.0323,-1.0455,-1.0717,-1.0717,-1.0721,-1.0721,-1.0721,-1.0721,-1.0721,-1.0721,-1.0721,-1.0721,-1.0721,-1.0721,-1.0721,-1.0721,-1.0721,-1.0721,-1.0721,-1.0721,-1.066,-1.0565,-1.0544,-1.0449,-1.0575,-1.0568,-1.0412,-1.0409,-1.0497,-1.0541,-1.0565,-1.0602,-1.0714,-1.0612,-1.0561,-1.0548,-1.0521,-1.049,-1.0483,-1.049,-1.0473,-1.0463,-1.0432,-1.0443,-1.0449,-1.0456,-1.0348,-1.0276,-1.0202,-1.0045,-1.0022,-1.0107,-1.009,-1.0029,-0.9964,-0.993,-0.9897,-0.9866,-0.9836,-0.9819,-0.9819,-0.9819,-0.9819,-0.9819,-0.994,-0.994,-1.0061,-1.0061,-1.0279,-1.0474,-1.0386,-1.0281,-1.0325,-1.0379,-1.0382,-1.0677,-1.1048,-0.0,-0.0,-0.0,-0.0,-0.0,-0.0,-0.0,-0.0,-0.0,-0.0,-0.0,-0.1442,-0.1981,-0.1986,-0.1737,-0.2015,-0.229,-0.2828,-0.3098,-0.3098,-0.3636,-0.4174,-0.4845,-0.5515,-0.6185,-0.6587,-0.7123,-0.7524,-0.7922,-0.7779,-0.8176,-0.8851,-0.9392,-0.9525,-0.9253,-0.9791,-1.0193,-1.0193,-1.0588,-1.0585,-1.0717,-1.0721,-1.0721,-1.0721,-1.0721,-1.0721,-1.0721,-1.0721,-1.0721,-1.0721,-1.0721,-1.0721,-1.0721,-1.0721,-1.0721,-1.0721,-1.0721,-1.0721,-1.0711,-1.07,-1.0666,-1.0643,-1.074,-1.0629,-1.0673,-1.0687,-1.0656,-1.0656,-1.068,-1.069,-1.0717,-1.0711,-1.069,-1.0673,-1.0639,-1.0626,-1.0612,-1.0609,-1.0585,-1.0571,-1.0643,-1.07,-1.0694,-1.066,-1.0524,-1.0419,-1.0317,-1.0276,-1.0276,-1.0259,-1.0239,-1.0158,-1.008,-1.0066,-1.0022,-0.99,-0.9849,-0.9832,-0.9819,-0.9819,-0.9819,-0.994,-1.0061,-1.0183,-1.0179,-1.0297,-1.0547,-1.0906,-1.094,-1.0986,-1.0948,-1.0992,-1.1097,-1.1277,-1.1687,-0.0,-0.0,-0.0,-0.0,-0.0,-0.0,-0.0,-0.0,-0.0,-0.0507,-0.1276,-0.1939,-0.2094,-0.2108,-0.2252,-0.2402,-0.269,-0.2961,-0.3229,-0.3769,-0.4308,-0.4978,-0.5649,-0.6185,-0.6721,-0.7123,-0.766,-0.8056,-0.8454,-0.831,-0.8712,-0.9389,-0.9788,-0.9921,-0.9921,-1.0323,-1.0591,-1.0588,-1.0588,-1.0721,-1.0721,-1.0721,-1.0721,-1.0721,-1.0721,-1.0721,-1.0721,-1.0721,-1.0721,-1.0721,-1.0721,-1.0721,-1.0721,-1.0721,-1.0721,-1.0721,-1.0721,-1.0721,-1.0721,-1.0714,-1.0717,-1.0721,-1.0721,-1.0721,-1.0721,-1.0721,-1.0717,-1.0721,-1.0721,-1.0721,-1.0717,-1.0717,-1.0707,-1.0707,-1.069,-1.0694,-1.0687,-1.069,-1.0683,-1.0677,-1.0717,-1.0721,-1.0721,-1.0721,-1.0619,-1.0588,-1.0507,-1.0449,-1.0436,-1.0541,-1.0517,-1.029,-1.0215,-1.0209,-1.0161,-1.0053,-0.9985,-0.9981,-0.9903,-0.9819,-0.9819,-0.9957,-1.0183,-1.0422,-1.0418,-1.0415,-1.1027,-1.1518,-1.176,-1.1836,-1.1774,-1.1749,-1.1798,-1.2141,-1.2561,-0.0,-0.0,-0.0,-0.0247,-0.0618,-0.0247,-0.0247,-0.0618,-0.0749,-0.1128,-0.1635,-0.1909,-0.2187,-0.2338,-0.2233,-0.2512,-0.3076,-0.3763,-0.3767,-0.4441,-0.4978,-0.5649,-0.6319,-0.6855,-0.739,-0.7791,-0.8189,-0.8587,-0.8851,-0.8978,-0.9383,-0.9921,-1.019,-1.0319,-1.0455,-1.0588,-1.0721,-1.0721,-1.0721,-1.0721,-1.0721,-1.0721,-1.0721,-1.0721,-1.0721,-1.0721,-1.0721,-1.0721,-1.0721,-1.0721,-1.0721,-1.0721,-1.0721,-1.0721,-1.0721,-1.0721,-1.0721,-1.0721,-1.0721,-1.0721,-1.0721,-1.0721,-1.0721,-1.0721,-1.0721,-1.0721,-1.0721,-1.0721,-1.0721,-1.0721,-1.0721,-1.0721,-1.0721,-1.0721,-1.0721,-1.0721,-1.0721,-1.0721,-1.0721,-1.0721,-1.0721,-1.0721,-1.0721,-1.0721,-1.0687,-1.0697,-1.0704,-1.0639,-1.0578,-1.0682,-1.0658,-1.0453,-1.0371,-1.0354,-1.0307,-1.0212,-1.0161,-1.0134,-1.0029,-0.9907,-0.9992,-1.0257,-1.034,-1.0543,-1.066,-1.1023,-1.1514,-1.2001,-1.2238,-1.2479,-1.2697,-1.2693,-1.2599,-1.284,-1.3204,-0.0,-0.0,-0.0,-0.0865,-0.1606,-0.0618,-0.0865,-0.1853,-0.1978,-0.1607,-0.1114,-0.1757,-0.215,-0.2543,-0.2339,-0.2632,-0.3439,-0.4546,-0.4833,-0.4977,-0.5647,-0.6319,-0.6853,-0.7522,-0.7922,-0.832,-0.872,-0.8984,-0.9117,-0.9516,-1.005,-1.0455,-1.0588,-1.0585,-1.0588,-1.0721,-1.0721,-1.0721,-1.0721,-1.0721,-1.0721,-1.0721,-1.0721,-1.0721,-1.0721,-1.0721,-1.0721,-1.0721,-1.0721,-1.0721,-1.0721,-1.0721,-1.0721,-1.0721,-1.0721,-1.0721,-1.0721,-1.0721,-1.0721,-1.0721,-1.0721,-1.0721,-1.0721,-1.0721,-1.0721,-1.0721,-1.0721,-1.0721,-1.0721,-1.0721,-1.0721,-1.0721,-1.0721,-1.0721,-1.0721,-1.0721,-1.0721,-1.0721,-1.0721,-1.0721,-1.0721,-1.0721,-1.0721,-1.0721,-1.0721,-1.0721,-1.0721,-1.0707,-1.066,-1.0666,-1.0646,-1.0639,-1.0565,-1.0507,-1.0439,-1.0365,-1.0314,-1.028,-1.0287,-1.017,-1.0376,-1.0429,-1.0741,-1.0944,-1.1156,-1.1514,-1.2247,-1.2728,-1.284,-1.308,-1.3444,-1.3449,-1.3329,-1.3449,-1.3808,-0.0494,-0.1359,-0.1482,-0.1606,-0.1977,-0.1606,-0.1359,-0.1359,-0.173,-0.1853,-0.173,-0.1859,-0.2249,-0.2527,-0.2163,-0.2845,-0.3932,-0.4901,-0.5471,-0.6027,-0.6319,-0.6989,-0.7524,-0.7922,-0.8323,-0.872,-0.9117,-0.9383,-0.9788,-1.0187,-1.0449,-1.0717,-1.0721,-1.0721,-1.0721,-1.0721,-1.0721,-1.0721,-1.0721,-1.0721,-1.0721,-1.0721,-1.0721,-1.0721,-1.0721,-1.0721,-1.0721,-1.0721,-1.0721,-1.0721,-1.0721,-1.0721,-1.0721,-1.0721,-1.0721,-1.0721,-1.0721,-1.0721,-1.0721,-1.0721,-1.0721,-1.0721,-1.0721,-1.0721,-1.0721,-1.0721,-1.0721,-1.0721,-1.0721,-1.0721,-1.0721,-1.0721,-1.0721,-1.0721,-1.0721,-1.0721,-1.0721,-1.0721,-1.0721,-1.0721,-1.0721,-1.0721,-1.0721,-1.0721,-1.0721,-1.0721,-1.0721,-1.0721,-1.0721,-1.0721,-1.0717,-1.0707,-1.069,-1.0612,-1.0585,-1.0521,-1.047,-1.0412,-1.0421,-1.0559,-1.0603,-1.0772,-1.1168,-1.1465,-1.1667,-1.2376,-1.3222,-1.3453,-1.3555,-1.3808,-1.4052,-1.4052,-1.4052,-1.4291,-1.4525,-0.1235,-0.1977,-0.1977,-0.1977,-0.21,-0.2223,-0.1975,-0.1728,-0.2099,-0.2222,-0.2222,-0.2221,-0.248,-0.2873,-0.2517,-0.2936,-0.4695,-0.579,-0.6374,-0.6305,-0.6989,-0.7524,-0.8056,-0.832,-0.872,-0.912,-0.9519,-0.9785,-1.019,-1.0455,-1.0717,-1.0717,-1.0721,-1.0721,-1.0721,-1.0721,-1.0721,-1.0721,-1.0721,-1.0721,-1.0721,-1.0721,-1.0721,-1.0721,-1.0721,-1.0721,-1.0721,-1.0721,-1.0721,-1.0721,-1.0721,-1.0721,-1.0721,-1.0721,-1.0721,-1.0721,-1.0721,-1.0721,-1.0721,-1.0721,-1.0721,-1.0721,-1.0721,-1.0721,-1.0721,-1.0721,-1.0721,-1.0721,-1.0721,-1.0721,-1.0721,-1.0721,-1.0721,-1.0721,-1.0721,-1.0721,-1.0721,-1.0721,-1.0721,-1.0721,-1.0721,-1.0721,-1.0721,-1.0721,-1.0721,-1.0721,-1.0721,-1.0721,-1.0721,-1.0721,-1.0721,-1.0714,-1.0714,-1.0694,-1.067,-1.0643,-1.0602,-1.0664,-1.0701,-1.0845,-1.0858,-1.1143,-1.1569,-1.1939,-1.2418,-1.3018,-1.374,-1.3937,-1.4157,-1.4525,-1.4888,-1.5002,-1.5002,-1.5002,-1.5359,-0.1853,-0.1853,-0.1977,-0.1977,-0.2099,-0.2467,-0.259,-0.259,-0.2714,-0.259,-0.259,-0.259,-0.3083,-0.347,-0.3121,-0.3802,-0.5288,-0.6528,-0.7012,-0.6717,-0.7522,-0.8189,-0.8451,-0.8715,-0.912,-0.9655,-0.9924,-1.0054,-1.0319,-1.0588,-1.0721,-1.0721,-1.0721,-1.0721,-1.0721,-1.0721,-1.0721,-1.0721,-1.0721,-1.0721,-1.0721,-1.0721,-1.0721,-1.0721,-1.0721,-1.0721,-1.0721,-1.0721,-1.0721,-1.0721,-1.0721,-1.0721,-1.0721,-1.0721,-1.0721,-1.0721,-1.0721,-1.0721,-1.0721,-1.0721,-1.0721,-1.0721,-1.0721,-1.0721,-1.0721,-1.0721,-1.0721,-1.0721,-1.0721,-1.0721,-1.0721,-1.0721,-1.0721,-1.0721,-1.0721,-1.0721,-1.0721,-1.0721,-1.0721,-1.0721,-1.0721,-1.0721,-1.0721,-1.0721,-1.0721,-1.0721,-1.0721,-1.0721,-1.0721,-1.0721,-1.0721,-1.0721,-1.0721,-1.0721,-1.0711,-1.069,-1.0704,-1.0781,-1.0953,-1.1131,-1.14,-1.1691,-1.2113,-1.261,-1.3219,-1.3583,-1.4024,-1.449,-1.4944,-1.5245,-1.5601,-1.5952,-1.5952,-1.5963,-1.607,-0.1235,-0.1235,-0.1853,-0.2099,-0.2344,-0.2467,-0.2714,-0.296,-0.3452,-0.3329,-0.296,-0.2958,-0.3328,-0.395,-0.4581,-0.5279,-0.604,-0.6997,-0.7498,-0.7737,-0.8323,-0.872,-0.8984,-0.9253,-0.9658,-0.9924,-1.0193,-1.0323,-1.0455,-1.0721,-1.0721,-1.0721,-1.0721,-1.0721,-1.0721,-1.0721,-1.0721,-1.0721,-1.0721,-1.0721,-1.0721,-1.0721,-1.0721,-1.0721,-1.0721,-1.0721,-1.0721,-1.0721,-1.0721,-1.0721,-1.0721,-1.0721,-1.0721,-1.0721,-1.0721,-1.0721,-1.0721,-1.0721,-1.0721,-1.0721,-1.0721,-1.0721,-1.0721,-1.0721,-1.0721,-1.0721,-1.0721,-1.0721,-1.0721,-1.0721,-1.0721,-1.0721,-1.0721,-1.0721,-1.0721,-1.0721,-1.0721,-1.0721,-1.0721,-1.0721,-1.0721,-1.0721,-1.0721,-1.0721,-1.0721,-1.0721,-1.0721,-1.0721,-1.0721,-1.0721,-1.0721,-1.0721,-1.0721,-1.0721,-1.0721,-1.0853,-1.0853,-1.1118,-1.1311,-1.1627,-1.1812,-1.2327,-1.2834,-1.3546,-1.4194,-1.4406,-1.4786,-1.5266,-1.5702,-1.6106,-1.63,-1.6578,-1.6741,-1.6724,-1.6808,-0.1482,-0.1482,-0.1975,-0.2468,-0.2714,-0.2959,-0.3206,-0.3453,-0.4069,-0.4192,-0.3944,-0.3697,-0.3943,-0.4684,-0.555,-0.6264,-0.6666,-0.7594,-0.8003,-0.8397,-0.872,-0.912,-0.9519,-0.9788,-1.0057,-1.0323,-1.0455,-1.0588,-1.0721,-1.0721,-1.0721,-1.0721,-1.0721,-1.0721,-1.0721,-1.0721,-1.0721,-1.0721,-1.0721,-1.0721,-1.0721,-1.0721,-1.0721,-1.0721,-1.0721,-1.0721,-1.0721,-1.0721,-1.0721,-1.0721,-1.0721,-1.0721,-1.0721,-1.0721,-1.0721,-1.0721,-1.0721,-1.0721,-1.0721,-1.0721,-1.0721,-1.0721,-1.0721,-1.0721,-1.0721,-1.0721,-1.0721,-1.0721,-1.0721,-1.0721,-1.0721,-1.0721,-1.0721,-1.0721,-1.0721,-1.0721,-1.0721,-1.0721,-1.0721,-1.0721,-1.0721,-1.0721,-1.0721,-1.0721,-1.0721,-1.0721,-1.0721,-1.0721,-1.0721,-1.0721,-1.0721,-1.0721,-1.0721,-1.0721,-1.0721,-1.0853,-1.0986,-1.1383,-1.1644,-1.2127,-1.2564,-1.305,-1.3562,-1.4309,-1.4741,-1.519,-1.5601,-1.6097,-1.6564,-1.7,-1.7058,-1.7247,-1.7392,-1.7541,-1.7636,-0.21,-0.2223,-0.2592,-0.2837,-0.3207,-0.3698,-0.3944,-0.419,-0.4687,-0.5177,-0.53,-0.4682,-0.5053,-0.5669,-0.6171,-0.6674,-0.7409,-0.8356,-0.8649,-0.8797,-0.9117,-0.9522,-0.9921,-1.0187,-1.0323,-1.0588,-1.0588,-1.0721,-1.0721,-1.0721,-1.0721,-1.0721,-1.0721,-1.0721,-1.0721,-1.0721,-1.0721,-1.0721,-1.0721,-1.0721,-1.0721,-1.0721,-1.0721,-1.0721,-1.0721,-1.0721,-1.0721,-1.0721,-1.0721,-1.0721,-1.0721,-1.0721,-1.0721,-1.0721,-1.0721,-1.0721,-1.0721,-1.0721,-1.0721,-1.0721,-1.0721,-1.0721,-1.0721,-1.0721,-1.0721,-1.0721,-1.0721,-1.0721,-1.0721,-1.0721,-1.0721,-1.0721,-1.0721,-1.0721,-1.0721,-1.0721,-1.0721,-1.0721,-1.0721,-1.0721,-1.0721,-1.0721,-1.0721,-1.0721,-1.0721,-1.0721,-1.0721,-1.0721,-1.0721,-1.0721,-1.0721,-1.0853,-1.0986,-1.085,-1.0853,-1.0986,-1.1251,-1.1648,-1.2045,-1.2704,-1.3198,-1.3712,-1.4263,-1.4752,-1.5286,-1.581,-1.6236,-1.6723,-1.732,-1.776,-1.7887,-1.7913,-1.8239,-1.8394,-1.8546,-0.2962,-0.3086,-0.3457,-0.3702,-0.3822,-0.419,-0.4439,-0.481,-0.5425,-0.5794,-0.5914,-0.6285,-0.6407,-0.6403,-0.7268,-0.7637,-0.7819,-0.8884,-0.9169,-0.9085,-0.9649,-0.9924,-1.019,-1.0455,-1.0588,-1.0721,-1.0721,-1.0721,-1.0721,-1.0721,-1.0721,-1.0721,-1.0721,-1.0721,-1.0721,-1.0721,-1.0721,-1.0721,-1.0721,-1.0721,-1.0721,-1.0721,-1.0721,-1.0721,-1.0721,-1.0721,-1.0721,-1.0721,-1.0721,-1.0721,-1.0721,-1.0721,-1.0721,-1.0721,-1.0721,-1.0721,-1.0721,-1.0721,-1.0721,-1.0721,-1.0721,-1.0721,-1.0721,-1.0721,-1.0721,-1.0721,-1.0721,-1.0721,-1.0721,-1.0721,-1.0721,-1.0721,-1.0721,-1.0721,-1.0721,-1.0721,-1.0721,-1.0721,-1.0721,-1.0721,-1.0721,-1.0721,-1.0721,-1.0721,-1.0721,-1.0721,-1.0721,-1.0721,-1.0717,-1.0721,-1.0857,-1.0986,-1.1115,-1.1115,-1.1115,-1.1247,-1.1512,-1.1912,-1.2309,-1.3095,-1.3748,-1.4272,-1.4855,-1.5555,-1.608,-1.6669,-1.7108,-1.7479,-1.7917,-1.8345,-1.8441,-1.871,-1.8935,-1.9153,-1.9197]},{"header":{"parameterUnit":"m.s-1","parameterCategory":1,"la1":31.0,"la2":29.5877,"lo1":-88.7671,"lo2":-86.6584,"dy":0.0162,"dx":0.0185,"nx":115,"ny":88,"refTime":"2023-07-20T00:00:00:Z","depth":0,"parameterNumber":3,"parameterNumberName":"V-component_of_WINDS"},"data":[0.0,0.0,0.0,0.0,0.0,0.0,0.0,0.0,0.0,0.0,0.0,0.0,0.0,0.0,0.0,0.0,0.0,0.0,0.0,0.0,0.0,0.0,0.0,0.0,0.0,0.0,0.0,0.0,0.0,0.0,0.0,0.0,0.0,0.0,0.0,0.0,0.0,0.0,0.0,0.0,0.0,0.0,0.0,0.0,0.0,0.0,0.0,0.0,0.0,0.0,0.0,0.0,0.0,0.0,0.0,0.0,0.0,0.0,0.0,0.0,0.0,0.0,0.0,0.0,0.0,0.0,0.0,0.0,0.0,0.0,0.0,0.0,0.0,0.0,0.0,0.0,0.0,0.0,0.0,0.0,0.0,0.0,0.0,0.0,0.0,0.0,0.0,0.0,0.0,0.0,0.0,0.0,0.0,0.0,0.0,0.0,0.0,0.0,0.0,0.0,0.0,0.0,0.0,0.0,0.0,0.0,0.0,0.0,0.0,0.0,0.0,0.0,0.0,0.0,0.0,0.0,0.0,0.0,0.0,0.0,0.0,0.0,0.0,0.0,0.0,0.0,0.0,0.0,0.0,0.0,0.0,0.0,0.0,0.0,0.0,0.0,0.0,0.0,0.0,0.0,0.0,0.0,0.0,0.0,0.0,0.0,0.0,0.0,0.0,0.0,0.0,0.0,0.0,0.0,0.0,0.0,0.0,0.0,0.0,0.0,0.0,0.0,0.0,0.0,0.0,0.0,0.0,0.0,0.0,0.0,0.0,0.0,0.0,0.0,0.0,0.0,0.0,0.0,0.0,0.0,0.0,0.0,0.0,0.0,0.0,0.0,0.0,0.0,0.0,0.0,0.0,0.0,0.0,0.0,0.0,0.0,0.0,0.0,0.0,0.0,0.0,0.0,0.0,0.0,0.0,0.0,0.0,0.0,0.0,0.0,0.0,0.0,0.0,0.0,0.0,0.0,0.0,0.0,0.0,0.0,0.0,0.0,0.0,0.0,0.0,0.0,0.0,0.0,0.0,0.0,0.0,0.0,0.0,0.0,0.0,0.0,0.0,0.0,0.0,0.0,0.0,0.0,0.0,0.0,0.0,0.0,0.0,0.0,0.0,0.0,0.0,0.0,0.0,0.0,0.0,0.0,0.0,0.0,0.0,0.0,0.0,0.0,0.0,0.0,0.0,0.0,0.0,0.0,0.0,0.0,0.0,0.0,0.0,0.0,0.0,0.0,0.0,0.0,0.0,0.0,0.0,0.0,0.0,0.0,0.0,0.0,0.0,0.0,0.0,0.0,0.0,0.0,0.0,0.0,0.0,0.0,0.0,0.0,0.0,0.0,0.0,0.0,0.0,0.0,0.0,0.0,0.0,0.0,0.0,0.0,0.0,0.0,0.0,0.0,0.0,0.0,0.0,0.0,0.0,0.0,0.0,0.0,0.0,0.0,0.0,0.0,0.0,0.0,0.0,0.0,0.0,0.0,0.0,0.0,0.0,0.0,0.0,0.0,0.0,0.0,0.0,0.0,0.0,0.0,0.0,0.0,0.0,0.0,0.0,0.0,0.0,0.0,0.0,0.0,0.0,0.0,0.0,0.0,0.0,0.0,0.0,0.0,0.0,0.0,0.0,0.0,0.0,0.0,0.0,0.0,0.0,0.0,0.0,0.0,0.0,0.0,0.0,0.0,0.0,0.0,0.0,0.0,0.0,0.0,0.0,0.0,0.0,0.0,0.0,0.0,0.0,0.0,0.0,0.0,0.0,0.0,0.0,0.0,0.0,0.0,0.0,0.0,0.0,0.0,0.0,0.0,0.0,0.0,0.0,0.0,0.0,0.0,0.0,0.0,0.0,0.0,0.0,0.0,0.0,0.0,0.0,0.0,0.0,0.0,0.0,0.0,0.0,0.0,0.0,0.0,0.0,0.0,0.0,0.0,0.0,0.0,0.0,0.0,0.0,0.0,0.0,0.0,0.0,0.0,0.0,0.0,0.0,0.0,0.0,0.0,0.0,0.0,0.0,0.0,0.0,0.0,0.0,0.0,0.0,0.0,0.0,0.0,0.0,0.0,0.0,0.0,0.0,0.0,0.0,0.0,0.0,0.0,0.0,0.0,0.0,0.0,0.0,0.0,0.0,0.0,0.0,0.0,0.0,0.0,0.0,0.0,0.0,0.0,0.0,0.0,0.0,0.0,0.0,0.0,0.0,0.0,0.0,0.0,0.0,0.0,0.0,0.0,0.0,0.0,0.0,0.0,0.0,0.0,0.0,0.0,0.0,0.0,0.0,0.0,0.0,0.0,0.0,0.0,0.0,0.0,0.0,0.0,0.0,0.0,0.0,0.0,0.0,0.0,0.0,0.0,0.0,0.0,0.0,0.0,0.0,0.0,0.0,0.0,0.0,0.0,0.0,0.0,0.0,0.0,0.0,0.0,0.0,0.0,0.0,0.0,0.0,0.0,0.0,0.0,0.0,0.0,0.0,0.0,0.0,0.0,0.0,0.0,0.0,0.0,0.0,0.0,0.0,0.0,0.0,0.0,0.0,0.0,0.0,0.0,0.0,0.0,0.0,0.0,0.0,0.0,0.0,0.0,0.0,0.0,0.0,0.0,0.0,0.0,0.0,0.0,0.0,0.0,0.0,0.0,0.0,0.0,0.0,0.0,0.0,0.0,0.0,0.0,0.0,0.0,0.0,0.0,0.0,0.0,0.0,0.0,0.0,0.0,0.0,0.0,0.0,0.0,0.0,0.0,0.0,0.0,0.0,0.0,0.0,0.0,0.0,0.0,0.0,0.0,0.0,0.0,0.0,0.0,0.0,0.0,0.0,0.0,0.0,0.0,0.0,0.0,0.0,0.0,0.0,0.0,0.0,0.0,0.0,0.0,0.0,0.0,0.0,0.0,0.0,0.0,0.0,0.0,0.0,0.0,0.0,0.0,0.0,0.0,0.0,0.0,0.0,0.0,0.0,0.0,0.0,0.0,0.0,0.0,0.0,0.0,0.0,0.0,0.0,0.0,0.0,0.0,0.0,0.0,0.0,0.0,0.0,0.0,0.0,0.0,0.0,0.0,0.0,0.0,0.0,0.0,0.0,0.0,0.0,0.0,0.0,0.0,0.0,0.0,0.0,0.0,0.0,0.0,0.0,0.0,0.0,0.0,0.0,0.0,0.0,0.0,0.0,0.0,0.0,0.0,0.0,0.0,0.0,0.0,0.0,0.0,0.0,0.0,0.0,0.0,0.0,0.0,0.0,0.0,0.0,0.0,0.0,0.0,0.0,0.0,0.0,0.0,0.0,0.0,0.0,0.0,0.0,0.0,0.0,0.0,0.0,0.0,0.0,0.0,0.0,0.0,0.0,0.0,0.0,0.0,0.0,0.0,0.0,0.0,0.0,0.0,0.0,0.0,0.0,0.0,0.0,0.0,0.0,0.0,0.0,0.0,0.0,0.0,0.0,0.0,0.0,0.0,0.0,0.0,0.0,0.0,0.0,0.0,0.0,0.0,0.0,0.0,0.0,0.0,0.0,0.0,0.0,0.0,0.0,0.0,0.0,0.0,0.0,0.0,0.0,0.0,0.0,0.0,0.0,0.0,0.0,0.0,0.0,0.0,0.0,0.0,0.0,0.0,0.0,0.0,0.0,0.0,0.0,0.0,0.0,0.0,0.0,0.0,0.0,0.0,0.0,0.0,0.0,0.0,0.0,0.0,0.0,0.0,0.0,0.0,0.0,0.0,0.0,0.0,0.0,0.0,0.0,0.0,0.0,0.0,0.0,0.0,0.0,0.0,0.0,0.0,0.0,0.0,0.0,0.0,0.0,0.0,0.0,0.0,0.0,0.0,0.0,0.0,0.0,0.0,0.0,0.0,0.0,0.0,0.0,0.0,0.0,0.0,0.0,0.0,0.0,0.0,0.0,0.0,0.0,0.0,0.0,0.0,0.0,0.0,0.0,0.0,0.0,0.0,0.0,0.0,0.0,0.0,0.0,0.0,0.0,0.0,0.0,0.0,0.0,0.0,0.0,0.0,0.0,0.0,0.0,0.0,0.0,0.0,0.0,0.0,0.0,0.0,0.0,0.0,0.0,0.0,0.0,0.0,0.0,0.0,0.0,0.0,0.0,0.0,0.0,0.0,0.0,0.0,0.0,0.0,0.0,0.0,0.0,0.0,0.0,0.0,0.0,0.0,0.0,0.0,0.0,0.0,0.0,0.0,0.0,0.0,0.0,0.0,0.0,0.0,0.0,0.0,0.0,0.0,0.0,0.0,0.0,0.0,0.0,0.0,0.0,0.0,-1.462,0.0,0.0,0.0,0.0,0.0,0.0,0.0,0.0,0.0,0.0,0.0,0.0,0.0,0.0,0.0,0.0,0.0,0.0,0.0,0.0,0.0,0.0,0.0,0.0,0.0,0.0,0.0,0.0,0.0,0.0,0.0,0.0,0.0,0.0,0.0,0.0,0.0,0.0,0.0,0.0,0.0,0.0,0.0,0.0,0.0,0.0,0.0,0.0,0.0,0.0,0.0,0.0,0.0,0.0,0.0,0.0,0.0,0.0,0.0,0.0,0.0,0.0,0.0,0.0,0.0,0.0,0.0,0.0,0.0,0.0,0.0,0.0,0.0,0.0,0.0,0.0,0.0,0.0,0.0,0.0,0.0,0.0,0.0,0.0,0.0,0.0,0.0,0.0,0.0,0.0,0.0,0.0,0.0,0.0,0.0,0.0,0.0,0.0,0.0,0.0,0.0,0.0,0.0,0.0,0.0,0.0,0.0,0.0,0.0,0.0,-1.583,-1.5879,-1.5925,-1.5823,-1.5502,0.0,0.0,0.0,0.0,0.0,0.0,0.0,0.0,0.0,0.0,0.0,0.0,0.0,0.0,0.0,0.0,0.0,0.0,0.0,0.0,0.0,0.0,0.0,0.0,0.0,0.0,0.0,0.0,0.0,0.0,0.0,0.0,0.0,0.0,0.0,0.0,0.0,0.0,0.0,0.0,0.0,0.0,0.0,0.0,0.0,0.0,0.0,0.0,0.0,0.0,0.0,0.0,0.0,0.0,0.0,0.0,0.0,0.0,0.0,0.0,0.0,0.0,0.0,0.0,0.0,0.0,0.0,0.0,0.0,0.0,0.0,0.0,0.0,0.0,0.0,0.0,0.0,0.0,0.0,0.0,0.0,0.0,0.0,0.0,0.0,0.0,0.0,0.0,0.0,0.0,0.0,0.0,0.0,0.0,0.0,0.0,0.0,0.0,0.0,0.0,0.0,0.0,0.0,0.0,0.0,0.0,0.0,0.0,0.0,0.0,0.0,0.0,-1.7071,-1.6686,-1.5905,0.0,0.0,0.0,0.0,0.0,0.0,0.0,0.0,0.0,0.0,0.0,0.0,0.0,0.0,0.0,0.0,0.0,0.0,0.0,0.0,0.0,0.0,0.0,0.0,0.0,0.0,0.0,0.0,0.0,0.0,0.0,0.0,0.0,0.0,0.0,0.0,0.0,0.0,0.0,0.0,0.0,0.0,0.0,0.0,0.0,0.0,0.0,0.0,0.0,0.0,0.0,0.0,0.0,0.0,0.0,0.0,0.0,0.0,0.0,0.0,0.0,0.0,0.0,0.0,0.0,0.0,0.0,0.0,0.0,0.0,0.0,0.0,0.0,0.0,0.0,0.0,0.0,0.0,0.0,0.0,0.0,0.0,0.0,0.0,0.0,0.0,0.0,0.0,0.0,0.0,0.0,0.0,0.0,0.0,0.0,0.0,0.0,0.0,0.0,0.0,0.0,0.0,0.0,0.0,0.0,0.0,0.0,0.0,0.0,0.0,-1.7199,-1.7257,-1.7273,0.0,-1.5379,0.0,0.0,0.0,0.0,0.0,0.0,0.0,0.0,0.0,0.0,0.0,0.0,0.0,0.0,0.0,0.0,0.0,0.0,0.0,0.0,0.0,0.0,0.0,0.0,0.0,0.0,0.0,0.0,0.0,0.0,0.0,0.0,0.0,0.0,0.0,0.0,0.0,0.0,0.0,0.0,0.0,0.0,0.0,0.0,0.0,0.0,0.0,0.0,0.0,0.0,0.0,0.0,0.0,0.0,0.0,0.0,0.0,0.0,0.0,0.0,0.0,0.0,0.0,0.0,0.0,0.0,0.0,0.0,0.0,0.0,0.0,0.0,0.0,0.0,0.0,0.0,0.0,0.0,0.0,0.0,0.0,0.0,0.0,0.0,0.0,0.0,0.0,0.0,0.0,0.0,0.0,0.0,0.0,0.0,0.0,0.0,0.0,0.0,0.0,0.0,0.0,0.0,0.0,0.0,0.0,0.0,0.0,0.0,0.0,0.0,-1.7289,-1.737,-1.7441,-1.7024,0.0,0.0,0.0,0.0,0.0,0.0,0.0,0.0,0.0,0.0,0.0,0.0,0.0,0.0,0.0,0.0,0.0,0.0,0.0,0.0,0.0,0.0,0.0,0.0,0.0,0.0,0.0,0.0,0.0,0.0,0.0,0.0,0.0,0.0,0.0,0.0,0.0,0.0,0.0,0.0,0.0,0.0,0.0,0.0,0.0,0.0,0.0,0.0,0.0,0.0,0.0,0.0,0.0,0.0,0.0,0.0,0.0,0.0,0.0,0.0,0.0,0.0,0.0,0.0,0.0,0.0,0.0,0.0,0.0,0.0,0.0,0.0,0.0,0.0,0.0,0.0,0.0,0.0,0.0,0.0,0.0,0.0,0.0,0.0,0.0,0.0,0.0,0.0,0.0,0.0,0.0,0.0,0.0,0.0,0.0,0.0,0.0,0.0,0.0,0.0,0.0,0.0,0.0,0.0,0.0,0.0,0.0,0.0,0.0,0.0,-1.737,-1.7401,-1.7472,-1.7572,-1.7282,-1.6625,0.0,0.0,0.0,0.0,0.0,0.0,0.0,0.0,0.0,0.0,0.0,0.0,0.0,0.0,0.0,0.0,0.0,0.0,0.0,0.0,0.0,0.0,0.0,0.0,0.0,0.0,0.0,0.0,0.0,0.0,0.0,0.0,0.0,0.0,0.0,0.0,0.0,0.0,0.0,0.0,0.0,0.0,0.0,0.0,0.0,0.0,0.0,0.0,0.0,0.0,0.0,0.0,0.0,0.0,0.0,0.0,0.0,0.0,0.0,0.0,0.0,0.0,0.0,0.0,0.0,0.0,0.0,0.0,0.0,0.0,0.0,0.0,0.0,0.0,0.0,0.0,0.0,0.0,0.0,0.0,0.0,0.0,0.0,0.0,0.0,0.0,0.0,0.0,0.0,0.0,0.0,0.0,0.0,0.0,0.0,0.0,0.0,0.0,0.0,0.0,0.0,0.0,0.0,0.0,0.0,0.0,0.0,0.0,-1.7401,-1.7519,-1.7589,-1.7606,-1.7681,-1.735,0.0,0.0,0.0,0.0,0.0,0.0,0.0,0.0,0.0,0.0,0.0,0.0,0.0,0.0,0.0,0.0,0.0,0.0,0.0,0.0,0.0,0.0,0.0,0.0,0.0,0.0,0.0,0.0,0.0,0.0,0.0,0.0,0.0,0.0,0.0,0.0,0.0,0.0,0.0,0.0,0.0,0.0,0.0,0.0,0.0,0.0,0.0,0.0,0.0,0.0,0.0,0.0,0.0,0.0,0.0,0.0,0.0,0.0,0.0,0.0,0.0,0.0,0.0,0.0,0.0,0.0,0.0,0.0,0.0,0.0,0.0,0.0,0.0,0.0,0.0,0.0,0.0,0.0,0.0,0.0,0.0,0.0,0.0,0.0,0.0,0.0,0.0,0.0,0.0,0.0,0.0,0.0,0.0,0.0,0.0,0.0,0.0,0.0,0.0,0.0,0.0,0.0,0.0,0.0,0.0,0.0,0.0,0.0,0.0,-1.7559,-1.8064,-1.8407,-1.8427,-1.846,-1.812,0.0,0.0,0.0,0.0,0.0,0.0,0.0,0.0,0.0,0.0,0.0,0.0,0.0,0.0,0.0,0.0,0.0,0.0,0.0,0.0,0.0,0.0,0.0,0.0,0.0,0.0,0.0,0.0,0.0,0.0,0.0,0.0,0.0,0.0,0.0,0.0,0.0,0.0,0.0,0.0,0.0,0.0,0.0,0.0,0.0,0.0,0.0,0.0,0.0,0.0,0.0,0.0,0.0,0.0,0.0,0.0,0.0,0.0,0.0,0.0,0.0,0.0,0.0,0.0,0.0,0.0,0.0,0.0,0.0,0.0,0.0,0.0,0.0,0.0,0.0,0.0,0.0,0.0,0.0,0.0,0.0,0.0,0.0,0.0,0.0,0.0,0.0,0.0,0.0,0.0,0.0,0.0,0.0,0.0,0.0,0.0,0.0,0.0,0.0,0.0,0.0,0.0,0.0,0.0,0.0,0.0,0.0,0.0,0.0,-1.8057,0.0,-1.9273,-1.9331,-1.909,-1.8737,0.0,0.0,0.0,0.0,0.0,0.0,0.0,0.0,0.0,0.0,0.0,0.0,0.0,0.0,0.0,0.0,0.0,0.0,0.0,0.0,0.0,0.0,0.0,0.0,0.0,0.0,0.0,0.0,0.0,0.0,0.0,0.0,0.0,0.0,0.0,0.0,0.0,0.0,0.0,0.0,0.0,0.0,0.0,0.0,0.0,0.0,0.0,0.0,0.0,0.0,0.0,0.0,0.0,0.0,0.0,0.0,0.0,0.0,0.0,0.0,0.0,0.0,0.0,0.0,0.0,0.0,0.0,0.0,0.0,0.0,0.0,0.0,0.0,0.0,0.0,0.0,0.0,0.0,0.0,0.0,0.0,0.0,0.0,0.0,0.0,0.0,0.0,0.0,0.0,0.0,0.0,0.0,0.0,0.0,0.0,0.0,0.0,0.0,0.0,0.0,0.0,0.0,0.0,0.0,0.0,0.0,0.0,0.0,-1.8183,-1.9011,-1.9787,-2.0221,-2.0289,-1.9556,-1.9109,0.0,0.0,0.0,0.0,0.0,0.0,0.0,0.0,0.0,0.0,0.0,0.0,0.0,0.0,0.0,0.0,0.0,0.0,0.0,0.0,0.0,0.0,0.0,0.0,0.0,0.0,0.0,0.0,0.0,0.0,0.0,0.0,0.0,0.0,0.0,0.0,0.0,0.0,0.0,0.0,0.0,0.0,0.0,0.0,0.0,0.0,0.0,0.0,0.0,0.0,0.0,0.0,0.0,0.0,0.0,0.0,0.0,0.0,0.0,0.0,0.0,0.0,0.0,0.0,0.0,0.0,0.0,0.0,0.0,0.0,0.0,0.0,0.0,0.0,0.0,0.0,0.0,0.0,0.0,0.0,0.0,0.0,0.0,0.0,0.0,0.0,0.0,0.0,0.0,0.0,0.0,0.0,0.0,0.0,0.0,0.0,0.0,0.0,0.0,0.0,0.0,0.0,0.0,0.0,0.0,0.0,0.0,0.0,0.0,-1.9826,-2.0611,-2.1063,-2.1034,-2.0288,-1.9604,0.0,0.0,0.0,0.0,0.0,0.0,0.0,0.0,0.0,0.0,0.0,0.0,0.0,0.0,0.0,0.0,0.0,0.0,0.0,0.0,0.0,0.0,0.0,0.0,0.0,0.0,0.0,0.0,0.0,0.0,0.0,0.0,0.0,0.0,0.0,0.0,0.0,0.0,0.0,0.0,0.0,0.0,0.0,0.0,0.0,0.0,0.0,0.0,0.0,0.0,0.0,0.0,0.0,0.0,0.0,0.0,0.0,0.0,0.0,0.0,0.0,0.0,0.0,0.0,0.0,0.0,0.0,0.0,0.0,0.0,0.0,0.0,0.0,0.0,0.0,0.0,0.0,0.0,0.0,0.0,0.0,0.0,0.0,0.0,0.0,0.0,0.0,0.0,0.0,0.0,0.0,0.0,0.0,0.0,0.0,0.0,0.0,0.0,0.0,0.0,0.0,0.0,0.0,0.0,0.0,0.0,0.0,0.0,0.0,-2.0849,-2.154,-2.1953,-2.1987,-2.0906,-2.0123,-1.9642,0.0,0.0,0.0,0.0,0.0,0.0,0.0,0.0,0.0,0.0,0.0,0.0,0.0,0.0,0.0,0.0,0.0,0.0,0.0,0.0,0.0,0.0,0.0,0.0,0.0,0.0,0.0,0.0,0.0,0.0,0.0,0.0,0.0,0.0,0.0,0.0,0.0,0.0,0.0,0.0,0.0,0.0,0.0,0.0,0.0,0.0,0.0,0.0,0.0,0.0,0.0,0.0,0.0,0.0,0.0,0.0,0.0,0.0,0.0,0.0,0.0,0.0,0.0,0.0,0.0,0.0,0.0,0.0,0.0,0.0,0.0,0.0,0.0,0.0,0.0,0.0,0.0,0.0,0.0,0.0,0.0,0.0,0.0,0.0,0.0,0.0,0.0,0.0,0.0,0.0,0.0,0.0,0.0,0.0,0.0,0.0,0.0,0.0,0.0,0.0,0.0,0.0,0.0,0.0,0.0,0.0,0.0,0.0,-2.1978,-2.2528,-2.2868,-2.2884,-2.1457,-2.068,0.0,0.0,0.0,0.0,0.0,0.0,0.0,0.0,0.0,0.0,0.0,0.0,0.0,0.0,0.0,0.0,0.0,0.0,0.0,0.0,0.0,0.0,0.0,0.0,0.0,0.0,0.0,0.0,0.0,0.0,0.0,0.0,0.0,0.0,0.0,0.0,0.0,0.0,0.0,0.0,0.0,0.0,0.0,0.0,0.0,0.0,0.0,0.0,0.0,0.0,0.0,0.0,0.0,0.0,0.0,0.0,0.0,0.0,0.0,0.0,0.0,0.0,0.0,0.0,0.0,0.0,0.0,0.0,0.0,0.0,0.0,0.0,0.0,0.0,0.0,0.0,0.0,0.0,0.0,0.0,0.0,0.0,0.0,0.0,0.0,0.0,0.0,0.0,0.0,0.0,0.0,0.0,0.0,0.0,0.0,0.0,0.0,0.0,0.0,0.0,0.0,0.0,0.0,0.0,0.0,0.0,0.0,0.0,0.0,-2.2847,-2.3135,-2.3193,-2.3035,-2.2124,-2.1353,0.0,0.0,0.0,0.0,0.0,0.0,0.0,0.0,0.0,0.0,0.0,0.0,0.0,0.0,0.0,0.0,0.0,0.0,0.0,0.0,0.0,0.0,0.0,0.0,0.0,0.0,0.0,0.0,0.0,0.0,0.0,0.0,0.0,0.0,0.0,0.0,0.0,0.0,0.0,0.0,0.0,0.0,0.0,0.0,0.0,0.0,0.0,0.0,0.0,0.0,0.0,0.0,0.0,0.0,0.0,0.0,0.0,0.0,0.0,0.0,0.0,0.0,0.0,0.0,0.0,0.0,0.0,0.0,0.0,0.0,0.0,0.0,0.0,0.0,0.0,0.0,0.0,0.0,0.0,0.0,0.0,0.0,0.0,0.0,0.0,0.0,0.0,0.0,0.0,0.0,0.0,0.0,0.0,0.0,0.0,0.0,0.0,0.0,0.0,0.0,0.0,0.0,0.0,0.0,0.0,0.0,0.0,0.0,-2.2006,-2.3348,-2.3448,-2.343,-2.3342,-2.2528,-2.1706,0.0,0.0,0.0,0.0,0.0,0.0,0.0,0.0,0.0,0.0,0.0,0.0,0.0,0.0,0.0,0.0,0.0,0.0,0.0,0.0,0.0,0.0,0.0,0.0,0.0,0.0,0.0,0.0,0.0,0.0,0.0,0.0,0.0,0.0,0.0,0.0,0.0,0.0,0.0,0.0,0.0,0.0,0.0,0.0,0.0,0.0,0.0,0.0,0.0,0.0,0.0,0.0,0.0,0.0,0.0,0.0,0.0,0.0,0.0,0.0,0.0,0.0,0.0,0.0,0.0,0.0,0.0,0.0,0.0,0.0,0.0,0.0,0.0,0.0,0.0,0.0,0.0,0.0,0.0,0.0,0.0,0.0,0.0,0.0,0.0,0.0,0.0,0.0,0.0,0.0,0.0,0.0,0.0,0.0,0.0,0.0,0.0,0.0,0.0,0.0,0.0,0.0,0.0,0.0,0.0,0.0,0.0,0.0,-2.2633,-2.3629,-2.371,-2.3795,-2.3808,-2.2883,-2.1967,0.0,0.0,0.0,0.0,0.0,0.0,0.0,0.0,0.0,0.0,0.0,0.0,0.0,0.0,0.0,0.0,0.0,0.0,0.0,0.0,0.0,0.0,0.0,0.0,0.0,0.0,0.0,0.0,0.0,0.0,0.0,0.0,0.0,0.0,0.0,0.0,0.0,0.0,0.0,0.0,0.0,0.0,0.0,0.0,0.0,0.0,0.0,0.0,0.0,0.0,0.0,0.0,0.0,0.0,0.0,0.0,0.0,0.0,0.0,0.0,0.0,0.0,0.0,0.0,0.0,0.0,0.0,0.0,0.0,0.0,0.0,0.0,0.0,0.0,0.0,0.0,0.0,0.0,0.0,0.0,0.0,0.0,0.0,0.0,0.0,0.0,0.0,0.0,0.0,0.0,0.0,0.0,0.0,0.0,0.0,0.0,0.0,0.0,0.0,0.0,0.0,0.0,0.0,0.0,0.0,0.0,0.0,0.0,-2.3044,-2.4622,-2.4699,-2.4699,-2.4721,-2.384,-2.2984,0.0,0.0,0.0,0.0,0.0,0.0,0.0,0.0,0.0,0.0,0.0,0.0,0.0,0.0,0.0,0.0,0.0,0.0,0.0,0.0,0.0,0.0,0.0,0.0,0.0,0.0,0.0,0.0,0.0,0.0,0.0,0.0,0.0,0.0,0.0,0.0,0.0,0.0,0.0,0.0,0.0,0.0,0.0,0.0,0.0,0.0,0.0,0.0,-2.6158,0.0,0.0,0.0,0.0,0.0,0.0,0.0,0.0,0.0,0.0,0.0,0.0,0.0,0.0,0.0,0.0,0.0,0.0,0.0,0.0,0.0,0.0,0.0,0.0,0.0,0.0,0.0,0.0,0.0,0.0,0.0,0.0,0.0,0.0,0.0,0.0,0.0,0.0,0.0,0.0,0.0,0.0,0.0,0.0,0.0,0.0,0.0,0.0,0.0,0.0,0.0,0.0,0.0,0.0,0.0,0.0,0.0,0.0,0.0,-2.3997,-2.5,-2.5407,-2.5629,-2.5592,-2.4806,-2.3725,0.0,0.0,0.0,0.0,0.0,0.0,0.0,0.0,0.0,0.0,0.0,0.0,0.0,0.0,0.0,0.0,0.0,0.0,0.0,0.0,0.0,0.0,0.0,0.0,0.0,0.0,0.0,0.0,0.0,0.0,0.0,0.0,0.0,0.0,0.0,0.0,0.0,0.0,0.0,0.0,0.0,0.0,0.0,0.0,0.0,0.0,0.0,0.0,0.0,0.0,0.0,0.0,0.0,0.0,0.0,0.0,0.0,0.0,0.0,0.0,0.0,0.0,0.0,0.0,0.0,0.0,0.0,0.0,0.0,0.0,0.0,0.0,0.0,0.0,0.0,0.0,0.0,0.0,0.0,0.0,0.0,0.0,0.0,0.0,0.0,0.0,0.0,0.0,0.0,0.0,0.0,0.0,0.0,0.0,0.0,0.0,0.0,0.0,0.0,0.0,0.0,0.0,0.0,0.0,0.0,0.0,0.0,-2.3625,-2.4982,-2.5302,-2.6077,-2.65,-2.6504,-2.5827,-2.4646,-2.2883,0.0,0.0,0.0,0.0,0.0,0.0,0.0,0.0,0.0,0.0,0.0,0.0,0.0,0.0,0.0,0.0,0.0,0.0,0.0,0.0,0.0,0.0,0.0,0.0,0.0,0.0,0.0,0.0,0.0,0.0,0.0,0.0,0.0,0.0,0.0,0.0,0.0,0.0,-2.2146,-2.4433,0.0,0.0,0.0,0.0,0.0,0.0,0.0,0.0,-2.8494,0.0,0.0,0.0,0.0,0.0,0.0,0.0,0.0,0.0,0.0,0.0,0.0,0.0,0.0,0.0,0.0,0.0,0.0,0.0,0.0,0.0,0.0,0.0,0.0,0.0,0.0,0.0,0.0,0.0,0.0,0.0,0.0,0.0,0.0,0.0,0.0,0.0,0.0,0.0,0.0,0.0,0.0,0.0,0.0,0.0,0.0,0.0,0.0,0.0,0.0,0.0,0.0,0.0,0.0,0.0,0.0,-2.2107,-2.4001,-2.5326,-2.6095,-2.6941,-2.7406,-2.7387,-2.72,-2.6354,-2.4715,0.0,0.0,0.0,0.0,0.0,0.0,0.0,0.0,0.0,0.0,0.0,0.0,0.0,0.0,0.0,0.0,0.0,0.0,0.0,0.0,0.0,0.0,0.0,0.0,0.0,0.0,0.0,0.0,0.0,0.0,0.0,0.0,0.0,0.0,0.0,0.0,0.0,0.0,0.0,-2.6069,-2.738,0.0,0.0,0.0,0.0,0.0,0.0,0.0,0.0,-2.9062,0.0,0.0,0.0,0.0,0.0,0.0,0.0,0.0,0.0,0.0,0.0,0.0,0.0,0.0,0.0,0.0,0.0,0.0,0.0,0.0,0.0,0.0,0.0,0.0,0.0,0.0,0.0,0.0,0.0,0.0,0.0,0.0,0.0,0.0,0.0,0.0,0.0,0.0,0.0,0.0,0.0,0.0,0.0,0.0,0.0,0.0,0.0,0.0,0.0,0.0,0.0,0.0,0.0,0.0,0.0,-2.3042,-2.4761,-2.6113,-2.7072,-2.7922,-2.8361,-2.832,-2.7899,-2.7023,0.0,0.0,0.0,0.0,0.0,0.0,0.0,0.0,0.0,0.0,0.0,0.0,0.0,0.0,0.0,0.0,0.0,0.0,0.0,0.0,0.0,0.0,0.0,0.0,0.0,0.0,0.0,0.0,0.0,0.0,0.0,0.0,0.0,0.0,0.0,0.0,0.0,0.0,0.0,0.0,-2.7226,-2.8806,-3.0053,0.0,0.0,0.0,0.0,0.0,0.0,-3.1567,-3.1433,0.0,0.0,0.0,0.0,0.0,0.0,0.0,0.0,0.0,0.0,0.0,0.0,0.0,0.0,0.0,0.0,0.0,0.0,0.0,0.0,0.0,0.0,0.0,0.0,0.0,0.0,0.0,0.0,0.0,0.0,0.0,0.0,0.0,0.0,0.0,0.0,0.0,0.0,0.0,0.0,0.0,0.0,0.0,0.0,0.0,0.0,0.0,0.0,0.0,0.0,0.0,0.0,0.0,0.0,0.0,-2.3945,-2.5528,-2.683,-2.7831,-2.8684,-2.913,-2.9044,-2.8437,-2.7592,0.0,0.0,0.0,0.0,0.0,0.0,0.0,0.0,0.0,0.0,0.0,0.0,0.0,0.0,0.0,0.0,0.0,0.0,0.0,0.0,0.0,0.0,0.0,0.0,0.0,0.0,0.0,0.0,0.0,0.0,0.0,0.0,0.0,0.0,0.0,0.0,0.0,0.0,0.0,0.0,0.0,-3.0199,-3.1189,-3.1916,0.0,0.0,0.0,0.0,-3.3384,-3.3384,0.0,0.0,0.0,0.0,0.0,0.0,0.0,0.0,0.0,0.0,0.0,0.0,0.0,0.0,0.0,0.0,0.0,0.0,0.0,0.0,0.0,0.0,0.0,0.0,0.0,0.0,0.0,0.0,0.0,0.0,0.0,0.0,0.0,0.0,0.0,0.0,0.0,0.0,0.0,0.0,0.0,0.0,0.0,0.0,0.0,0.0,0.0,0.0,0.0,0.0,0.0,0.0,0.0,0.0,0.0,0.0,-2.4813,-2.5914,-2.6961,-2.7957,-2.8815,-2.9262,-2.9259,-2.9119,-2.8588,0.0,0.0,0.0,0.0,0.0,0.0,0.0,0.0,0.0,0.0,0.0,0.0,0.0,0.0,0.0,0.0,0.0,0.0,0.0,0.0,0.0,0.0,0.0,0.0,0.0,0.0,0.0,0.0,0.0,0.0,0.0,0.0,0.0,0.0,0.0,0.0,0.0,0.0,0.0,0.0,0.0,-3.1253,-3.2876,-3.3184,-3.3271,0.0,0.0,-3.3312,-3.3317,-3.3366,0.0,0.0,0.0,0.0,0.0,0.0,0.0,0.0,0.0,0.0,0.0,0.0,0.0,0.0,0.0,0.0,0.0,0.0,0.0,0.0,0.0,0.0,0.0,0.0,0.0,0.0,0.0,0.0,0.0,0.0,0.0,0.0,0.0,0.0,0.0,0.0,0.0,0.0,0.0,0.0,0.0,0.0,0.0,0.0,0.0,0.0,0.0,0.0,0.0,0.0,0.0,0.0,0.0,0.0,0.0,-2.4006,-2.5801,-2.6875,-2.8096,-2.9465,-2.9934,-3.0141,-3.0102,-3.006,-2.936,0.0,0.0,0.0,0.0,0.0,0.0,0.0,0.0,0.0,0.0,0.0,0.0,0.0,0.0,0.0,0.0,0.0,0.0,0.0,0.0,0.0,0.0,0.0,0.0,0.0,0.0,0.0,0.0,0.0,0.0,0.0,0.0,0.0,0.0,0.0,0.0,0.0,0.0,0.0,0.0,0.0,0.0,-3.4527,-3.475,0.0,0.0,0.0,-3.6129,-3.6129,0.0,0.0,0.0,0.0,0.0,0.0,0.0,0.0,0.0,0.0,0.0,0.0,0.0,0.0,0.0,0.0,0.0,0.0,0.0,0.0,0.0,0.0,0.0,0.0,0.0,0.0,0.0,0.0,0.0,0.0,0.0,0.0,0.0,0.0,0.0,0.0,0.0,0.0,0.0,0.0,0.0,0.0,0.0,0.0,0.0,0.0,0.0,0.0,0.0,0.0,0.0,0.0,0.0,0.0,0.0,0.0,0.0,-2.6542,-2.782,-2.9209,-3.0732,-3.1052,-3.1165,-3.1107,-3.1088,0.0,0.0,0.0,0.0,0.0,0.0,0.0,0.0,0.0,0.0,0.0,0.0,0.0,0.0,0.0,0.0,0.0,0.0,0.0,0.0,0.0,0.0,0.0,0.0,0.0,0.0,0.0,-2.3995,0.0,0.0,0.0,0.0,0.0,0.0,0.0,0.0,0.0,0.0,0.0,0.0,0.0,0.0,-3.4564,-3.6226,-3.643,-3.6889,0.0,0.0,-3.8297,-3.8297,-3.78,-3.7408,0.0,0.0,0.0,0.0,0.0,0.0,0.0,0.0,0.0,0.0,0.0,0.0,0.0,0.0,0.0,0.0,0.0,0.0,0.0,0.0,0.0,0.0,0.0,0.0,0.0,0.0,0.0,0.0,0.0,0.0,0.0,0.0,0.0,0.0,0.0,0.0,0.0,0.0,0.0,0.0,0.0,0.0,0.0,0.0,0.0,0.0,0.0,0.0,0.0,0.0,0.0,0.0,0.0,0.0,0.0,-2.6783,-2.8519,-2.9964,-3.1054,-3.1808,-3.2204,-3.2204,-3.2204,-3.1656,0.0,0.0,0.0,0.0,0.0,0.0,0.0,0.0,0.0,0.0,0.0,0.0,0.0,0.0,0.0,0.0,0.0,0.0,0.0,0.0,0.0,0.0,0.0,0.0,0.0,0.0,0.0,0.0,0.0,0.0,0.0,0.0,0.0,0.0,0.0,0.0,0.0,0.0,0.0,0.0,0.0,-3.6327,-3.8007,-3.8177,-3.8169,0.0,0.0,-3.8294,-3.8306,-3.8278,-3.8229,-3.8229,0.0,0.0,0.0,0.0,0.0,0.0,0.0,0.0,0.0,0.0,0.0,0.0,0.0,0.0,0.0,0.0,0.0,0.0,0.0,0.0,0.0,0.0,0.0,0.0,0.0,0.0,0.0,0.0,0.0,0.0,0.0,0.0,0.0,0.0,0.0,0.0,0.0,0.0,0.0,0.0,0.0,0.0,0.0,0.0,0.0,0.0,0.0,0.0,0.0,0.0,0.0,0.0,0.0,-2.6888,-2.8443,-2.9776,-3.1148,-3.2637,-3.3052,-3.3239,-3.322,-3.322,-3.275,0.0,0.0,0.0,0.0,0.0,0.0,0.0,0.0,0.0,0.0,0.0,0.0,0.0,0.0,0.0,0.0,0.0,0.0,0.0,0.0,0.0,0.0,0.0,0.0,0.0,0.0,0.0,0.0,-2.8641,-2.9347,-3.0189,0.0,0.0,0.0,0.0,0.0,0.0,0.0,0.0,0.0,0.0,-3.7855,-3.8926,-3.9062,0.0,0.0,-3.9721,-3.9728,-3.9721,-3.9301,-3.8996,-3.9038,-3.8364,0.0,0.0,0.0,0.0,0.0,0.0,0.0,0.0,0.0,0.0,0.0,0.0,0.0,0.0,0.0,0.0,0.0,0.0,0.0,0.0,0.0,0.0,0.0,0.0,0.0,0.0,0.0,0.0,0.0,0.0,0.0,0.0,0.0,0.0,0.0,0.0,0.0,0.0,0.0,0.0,0.0,0.0,0.0,0.0,0.0,0.0,0.0,0.0,0.0,0.0,0.0,0.0,-2.8217,-2.9569,-3.1054,-3.2465,-3.3747,-3.4084,-3.427,-3.4251,-3.4251,-3.38,0.0,0.0,0.0,0.0,0.0,0.0,0.0,0.0,0.0,0.0,0.0,0.0,0.0,0.0,0.0,0.0,0.0,0.0,0.0,0.0,0.0,0.0,0.0,0.0,0.0,0.0,0.0,0.0,-3.0093,-3.0895,-3.1521,0.0,0.0,0.0,0.0,0.0,0.0,0.0,0.0,0.0,0.0,-3.9005,-3.9732,-3.9859,-4.0063,-4.0593,-4.0631,-4.0588,-4.0588,-4.0133,-3.9779,-3.9825,0.0,0.0,0.0,0.0,0.0,0.0,0.0,0.0,0.0,0.0,0.0,0.0,0.0,0.0,0.0,0.0,0.0,0.0,0.0,0.0,0.0,0.0,0.0,0.0,0.0,0.0,0.0,0.0,0.0,0.0,-2.0691,0.0,0.0,0.0,0.0,0.0,0.0,0.0,0.0,0.0,0.0,0.0,0.0,0.0,0.0,0.0,0.0,0.0,0.0,0.0,0.0,0.0,0.0,-2.9551,-2.9848,-3.2387,-3.3815,-3.4047,-3.4821,-3.5277,-3.5296,-3.5293,-3.484,-3.3901,0.0,0.0,0.0,0.0,0.0,0.0,0.0,0.0,0.0,0.0,0.0,0.0,0.0,0.0,0.0,0.0,0.0,0.0,0.0,0.0,0.0,0.0,0.0,0.0,0.0,0.0,-3.1796,-3.2736,-3.3263,0.0,0.0,0.0,0.0,0.0,0.0,0.0,0.0,0.0,0.0,-3.95,-3.9799,-4.0574,-4.0687,-4.0717,-4.0673,-4.0622,-4.0607,-4.0626,-4.0568,-4.0568,0.0,0.0,0.0,0.0,0.0,0.0,0.0,0.0,0.0,0.0,0.0,0.0,0.0,0.0,0.0,0.0,0.0,0.0,0.0,0.0,0.0,0.0,0.0,0.0,0.0,0.0,0.0,-2.4156,-2.3866,0.0,0.0,0.0,0.0,0.0,0.0,0.0,0.0,0.0,0.0,0.0,-3.036,-3.0914,0.0,0.0,0.0,0.0,0.0,0.0,0.0,0.0,0.0,0.0,0.0,0.0,-3.0509,-3.2278,-3.3346,-3.4454,-3.5627,-3.6029,-3.6496,-3.6999,-3.7064,-3.6411,-3.4947,0.0,0.0,0.0,0.0,0.0,0.0,0.0,0.0,0.0,0.0,0.0,0.0,0.0,0.0,0.0,0.0,0.0,0.0,0.0,0.0,0.0,0.0,0.0,0.0,0.0,-3.2561,0.0,0.0,0.0,0.0,0.0,0.0,0.0,0.0,0.0,0.0,0.0,-3.9224,-4.0325,-4.0873,-4.1447,-4.2265,-4.2317,-4.2279,0.0,0.0,0.0,0.0,0.0,0.0,0.0,0.0,0.0,0.0,0.0,0.0,0.0,0.0,-4.066,-3.8713,-3.872,-3.8858,-3.8349,0.0,0.0,0.0,0.0,0.0,0.0,0.0,0.0,0.0,0.0,0.0,0.0,0.0,0.0,-2.6658,0.0,-2.6655,0.0,0.0,0.0,0.0,0.0,0.0,0.0,0.0,-3.1306,-3.2173,-3.2776,-3.3415,-3.3721,0.0,-3.3395,-3.2198,0.0,0.0,0.0,0.0,0.0,0.0,0.0,0.0,-3.2071,-3.4091,-3.4606,-3.5545,-3.6933,-3.7151,-3.7473,-3.7978,-3.804,-3.7533,-3.6388,-3.5435,-3.4534,0.0,0.0,0.0,0.0,0.0,0.0,0.0,0.0,0.0,0.0,0.0,0.0,0.0,0.0,0.0,0.0,0.0,0.0,0.0,0.0,0.0,0.0,0.0,-3.3922,0.0,0.0,0.0,0.0,0.0,0.0,0.0,0.0,0.0,-3.8059,-3.926,-4.0422,-4.1194,-4.1938,-4.2595,-4.3079,0.0,0.0,0.0,0.0,0.0,0.0,0.0,-4.1428,-4.1463,-4.1478,-4.1459,-4.1465,-4.1991,-4.2579,-4.3117,0.0,0.0,-4.0397,-4.023,-4.0352,-3.9986,-3.9855,-3.9783,-3.9692,-3.9595,-3.9433,0.0,0.0,0.0,0.0,0.0,0.0,0.0,0.0,-2.9515,-2.9169,0.0,-2.8775,0.0,0.0,0.0,0.0,0.0,-3.0327,0.0,0.0,-3.3872,-3.4706,-3.4898,-3.6451,-3.7286,-3.7268,-3.6398,-3.56,-3.4755,-3.2892,0.0,0.0,0.0,0.0,0.0,0.0,-3.4186,-3.5274,-3.617,-3.7083,-3.7988,-3.817,-3.8259,-3.833,-3.8276,-3.8218,-3.8117,-3.7336,-3.6477,-3.5509,-3.47,0.0,0.0,0.0,0.0,0.0,0.0,0.0,0.0,0.0,0.0,0.0,0.0,0.0,0.0,0.0,0.0,0.0,0.0,0.0,0.0,-3.4287,0.0,0.0,0.0,0.0,0.0,0.0,0.0,0.0,0.0,0.0,-3.9838,-4.0461,-4.1214,-4.1983,0.0,0.0,0.0,0.0,-4.3176,-4.3208,-4.3148,-4.3143,-4.3124,-4.3104,-4.3066,-4.3066,0.0,0.0,-4.3111,-4.3181,-4.3254,-4.3273,-4.337,-4.3254,-4.3235,-4.3061,-4.3023,-4.2973,-4.281,-4.29,-4.2775,-4.2393,-4.2343,-3.5084,0.0,0.0,0.0,0.0,-3.2312,-3.2307,-3.2231,-3.2343,-3.2028,-3.1401,-3.1464,0.0,0.0,0.0,0.0,0.0,0.0,-3.3766,-3.4167,-3.5873,-3.6709,-3.6806,-3.7319,-3.7566,-3.7584,-3.7337,-3.7091,-3.6843,-3.6273,-3.4699,-3.2241,0.0,0.0,0.0,0.0,-3.5486,-3.696,-3.7398,-3.806,-3.8979,-3.9078,-3.946,-4.0098,-3.9539,-3.9199,-3.9151,-3.8365,-3.7763,-3.7461,-3.6624,0.0,0.0,0.0,0.0,0.0,0.0,0.0,0.0,0.0,0.0,0.0,0.0,0.0,0.0,0.0,0.0,0.0,0.0,0.0,-3.6907,-3.7266,-3.7515,0.0,0.0,0.0,0.0,0.0,0.0,0.0,0.0,0.0,-4.2102,-4.1923,-4.2228,0.0,0.0,-4.4261,-4.487,-4.4903,-4.4891,-4.4876,-4.4374,0.0,-4.3951,-4.347,-4.3085,-4.3085,-4.3085,-4.3278,-4.3852,-4.3965,-4.4196,-4.4773,-4.4908,-4.4908,-4.485,-4.392,-4.3188,-4.3041,-4.2977,-4.2907,-4.2814,-4.2654,-4.2522,-3.818,-3.675,-3.5343,-3.4582,-3.4268,-3.428,-3.4418,-3.4603,-3.4678,-3.4532,-3.4228,-3.4334,-3.4012,-3.3388,-3.3473,0.0,0.0,0.0,-3.5932,-3.6045,-3.749,-3.8156,-3.8211,-3.8591,-3.8779,-3.8757,-3.8776,-3.8605,-3.8301,-3.8301,-3.7043,-3.4649,0.0,0.0,-3.6023,-3.6205,-3.6974,-3.8316,-3.8498,-3.9006,-3.9946,-4.0018,-4.0344,-4.0887,-4.0438,-4.0163,-4.0151,-3.9649,-3.9213,-3.8855,-3.8306,-3.7599,0.0,0.0,0.0,0.0,0.0,0.0,0.0,0.0,0.0,0.0,0.0,-3.2822,-3.4061,0.0,0.0,0.0,-3.695,-3.7363,-3.8392,-3.8509,0.0,0.0,0.0,0.0,0.0,0.0,0.0,-4.1704,-4.1856,-4.2342,-4.3614,-4.3303,-4.3332,-4.4394,-4.4739,-4.5095,-4.5594,0.0,-4.5586,-4.5586,-4.5143,-4.4816,-4.4816,-4.4412,-4.4085,-4.4105,-4.4085,-4.4239,-4.4682,-4.4797,-4.5009,-4.5432,-4.5586,-4.5586,-4.5586,-4.4754,-4.4061,-4.4011,-4.394,-4.3848,-4.3768,-4.3643,-4.3491,-4.0979,-4.0753,-3.7612,-3.6326,-3.6431,-3.6431,-3.6567,-3.6833,-3.6906,-3.6943,-3.696,-3.7119,-3.6728,-3.596,-3.6135,0.0,-3.6455,-3.7317,-3.7792,-3.7957,-3.8872,-3.9348,-3.9444,-4.0226,-4.0607,-4.0624,-4.0624,-4.0236,-3.9554,-3.9528,-3.9154,-3.8425,-3.823,-3.807,-3.7929,-3.7996,-3.8516,-3.9499,-3.9586,-4.006,-4.0973,-4.1092,-4.1151,-4.1208,-4.1208,-4.1214,-4.1227,-4.1208,-4.0838,-4.0085,-3.9954,-3.9524,-3.8646,0.0,0.0,0.0,0.0,0.0,0.0,0.0,0.0,0.0,0.0,0.0,0.0,0.0,0.0,0.0,-3.8705,0.0,-3.8877,-3.8903,0.0,0.0,0.0,-3.9416,-4.0926,-4.1092,-4.1701,-4.3322,0.0,0.0,-4.4587,-4.4581,-4.4501,-4.4501,-4.5192,-4.5657,-4.5603,-4.5603,-4.5586,-4.5586,-4.5586,-4.5586,-4.5509,-4.547,-4.5432,-4.5432,-4.5586,-4.5509,-4.5528,-4.5547,-4.5566,-4.5586,-4.5586,-4.5586,-4.5586,-4.5509,-4.5586,-4.5418,-4.5381,-4.5323,-4.5101,-4.4992,-4.4839,-4.1708,-4.1323,-4.051,-4.0129,-4.005,-4.005,-4.02,-4.0496,-4.0523,-3.9973,-3.901,-3.9052,-3.8346,-3.7204,-3.728,-3.7352,-3.75,-3.8359,-3.9101,-3.9804,-4.0686,-4.143,-4.2078,-4.2341,-4.247,-4.2447,-4.2499,-4.2433,-4.226,-4.2245,-4.2155,-4.1989,-4.1961,-4.0926,-3.8958,-3.8999,-3.9822,-4.1343,-4.1415,-4.1925,-4.2819,-4.2926,-4.2974,-4.298,-4.3031,-4.3056,-4.3061,-4.3061,-4.2963,-4.2744,-4.2064,-4.1318,-4.0499,-3.9552,0.0,0.0,0.0,0.0,0.0,0.0,0.0,0.0,0.0,-3.5988,-3.7712,0.0,-3.8319,0.0,-4.0588,-4.1599,-4.2245,-4.2313,0.0,0.0,-4.2208,-4.2373,-4.2768,-4.2749,-4.3137,-4.4182,-4.4211,-4.448,-4.5337,-4.5401,-4.5349,-4.5315,-4.5488,-4.5622,-4.5586,-4.5586,-4.5586,-4.5586,-4.5586,-4.5586,-4.5586,-4.5586,-4.5586,-4.5586,-4.5586,-4.5586,-4.5586,-4.5586,-4.5586,-4.5586,-4.5586,-4.5586,-4.5586,-4.5586,-4.5549,-4.5438,-4.5419,-4.5341,-4.5151,-4.508,-4.4943,-4.2894,-4.269,-4.2772,-4.2772,-4.2704,-4.189,-4.1689,-4.198,-4.1961,-4.1605,-4.0998,-4.1086,-4.073,-4.0017,-4.0089,-4.0123,-4.0194,-4.0655,-4.1168,-4.1662,-4.2162,-4.2624,-4.3079,-4.3131,-4.3162,-4.3153,-4.3183,-4.3217,-4.3245,-4.3279,-4.3303,-4.3272,-4.3358,-4.2637,-4.1177,-4.1158,-4.1667,-4.2601,-4.2713,-4.3011,-4.3513,-4.3617,-4.3635,-4.3646,-4.3675,-4.3704,-4.3708,-4.3708,-4.3708,-4.3689,-4.3192,-4.2724,-4.2275,-4.1769,-4.0922,0.0,0.0,0.0,0.0,0.0,0.0,0.0,0.0,0.0,0.0,0.0,-4.016,-4.1345,-4.2241,-4.2947,-4.3413,-4.3421,-4.3416,-4.3361,-4.333,-4.344,-4.3808,-4.3819,-4.4119,-4.4989,-4.504,-4.5167,-4.5632,-4.5676,-4.564,-4.5586,-4.5586,-4.5586,-4.5586,-4.5586,-4.5586,-4.5586,-4.5586,-4.5586,-4.5586,-4.5586,-4.5586,-4.5586,-4.5586,-4.5586,-4.5586,-4.5586,-4.5586,-4.5586,-4.5586,-4.5586,-4.5586,-4.5586,-4.5549,-4.5438,-4.54,-4.5361,-4.5173,-4.5084,-4.4991,-4.4085,-4.425,-4.4406,-4.4523,-4.4519,-4.2892,-4.2352,-4.2578,-4.2578,-4.2654,-4.2796,-4.2909,-4.2961,-4.3027,-4.3076,-4.3111,-4.3096,-4.3119,-4.3216,-4.3346,-4.338,-4.3438,-4.3535,-4.3516,-4.3545,-4.3548,-4.3529,-4.3569,-4.3652,-4.3717,-4.3744,-4.3742,-4.381,-4.3828,-4.385,-4.3791,-4.3703,-4.3607,-4.3802,-4.3955,-4.3953,-4.4002,-4.4031,-4.404,-4.404,-4.4028,-4.4039,-4.4039,-4.4039,-4.4039,-4.3922,-4.3883,-4.3863,-4.3775,-4.3012,0.0,-4.1432,0.0,0.0,0.0,0.0,0.0,0.0,0.0,0.0,-4.0968,-4.2013,-4.3527,-4.3588,-4.3605,-4.3699,-4.3659,-4.3608,-4.362,-4.3554,-4.3801,-4.4465,-4.4565,-4.4855,-4.5603,-4.5671,-4.5693,-4.5693,-4.5717,-4.5759,-4.5817,-4.599,-4.6084,-4.593,-4.5776,-4.5586,-4.5586,-4.5586,-4.5586,-4.5586,-4.5586,-4.5586,-4.5586,-4.5586,-4.5586,-4.5586,-4.5586,-4.5586,-4.5586,-4.5586,-4.5586,-4.5586,-4.5586,-4.5568,-4.5438,-4.5419,-4.5361,-4.5235,-4.5148,-4.5057,-4.4289,-4.4477,-4.46,-4.4735,-4.4827,-4.4578,-4.4469,-4.4469,-4.4516,-4.43,-4.3857,-4.3299,-4.3072,-4.3101,-4.3134,-4.3188,-4.3192,-4.3188,-4.3559,-4.4268,-4.4253,-4.4631,-4.5278,-4.5307,-4.5316,-4.5376,-4.5447,-4.5464,-4.5495,-4.5544,-4.5592,-4.557,-4.5592,-4.5644,-4.5694,0.0,0.0,0.0,-4.5332,-4.5727,-4.5792,-4.5787,-4.5796,-4.5808,-4.5802,0.0,-4.5811,-4.5811,-4.5811,-4.5792,-4.5128,0.0,0.0,0.0,0.0,0.0,0.0,0.0,0.0,0.0,0.0,0.0,-4.2752,-4.2656,-4.2869,-4.2981,-4.3423,-4.4292,-4.4388,-4.4647,-4.5264,-4.5298,-4.5229,-4.5248,-4.5233,-4.531,-4.543,-4.5456,-4.5517,-4.5671,-4.5676,-4.5622,-4.5719,-4.6201,-4.6644,-4.6682,-4.7221,-4.7585,-4.7563,-4.6487,-4.5643,-4.5586,-4.572,-4.5624,-4.5586,-4.5663,-4.574,-4.5586,-4.5586,-4.5605,-4.5605,-4.5586,-4.5586,-4.5586,-4.5586,-4.5586,-4.5586,-4.5586,-4.5568,-4.5495,-4.5438,-4.5361,-4.5235,-4.5148,-4.5057,-4.5171,0.0,-4.5,-4.4954,0.0,-4.5194,-4.5239,-4.5258,-4.5239,-4.5129,-4.4921,-4.4562,-4.4452,-4.449,-4.4523,-4.4537,-4.4511,-4.4537,-4.4775,-4.5181,-4.5195,-4.5407,-4.586,-4.5867,-4.5925,-4.596,-4.6014,-4.6056,-4.6056,-4.6114,-4.6144,-4.6142,-4.6142,-4.6172,-4.6196,-4.6228,-4.6025,-4.5596,-4.6025,-4.627,-4.6292,-4.6292,-4.6292,-4.63,-4.629,0.0,0.0,0.0,0.0,0.0,0.0,0.0,0.0,0.0,0.0,-4.4391,-4.4345,-4.4139,-4.37,-4.3654,-4.3802,-4.4168,-4.4482,-4.4533,-4.4184,-4.4084,-4.4366,-4.5099,-4.5167,-4.5317,-4.5692,-4.5719,-4.5684,-4.5687,-4.5671,-4.5789,-4.6194,-4.6292,-4.6448,-4.6814,-4.6854,-4.6836,-4.6817,-4.7182,-4.749,-4.7509,-4.7836,-4.8125,-4.8046,-4.7393,-4.6836,-4.6817,-4.6817,-4.6836,-4.6836,-4.6836,-4.6644,-4.6374,-4.624,-4.6047,-4.5663,-4.5586,-4.5586,-4.5586,-4.5586,-4.5586,-4.5586,-4.5586,-4.5587,-4.5532,-4.5476,-4.5419,-4.5319,-4.5233,-4.5129,-4.6278,-4.6383,-4.5827,-4.5621,-4.5696,-4.5649,-4.561,-4.5547,0.0,0.0,0.0,-4.578,-4.5848,-4.5932,-4.5912,-4.5917,-4.5922,-4.591,-4.5929,-4.5929,-4.591,-4.591,-4.5941,-4.6003,-4.6025,-4.6017,-4.6085,-4.6122,-4.6135,-4.6166,-4.6208,-4.6209,-4.623,-4.6214,-4.6231,-4.6275,-4.6299,-4.6299,-4.6303,-4.6292,-4.6303,-4.6303,-4.63,-4.63,-4.6293,-4.6305,-4.6288,-4.6297,-4.6303,-4.63,-4.629,-4.6297,-4.6301,-4.6297,-4.5961,-4.5288,-4.5206,-4.4877,-4.4117,-4.4175,-4.4606,-4.5401,-4.6003,-4.5931,-4.4987,-4.4841,-4.5079,-4.5747,-4.5847,-4.5915,-4.5935,-4.6056,-4.6136,-4.6136,-4.6082,-4.6355,-4.7009,-4.7124,-4.7355,-4.7971,-4.8029,-4.8086,-4.8029,-4.8221,-4.8336,-4.8355,-4.8548,-4.8548,-4.8509,-4.8259,-4.7933,-4.7932,-4.7875,-4.8009,-4.8067,-4.8009,-4.7836,-4.7221,-4.7105,-4.6797,-4.6086,-4.5817,-4.5778,-4.5605,-4.5586,-4.5586,-4.5586,-4.5586,-4.5586,-4.555,-4.5513,-4.5495,-4.5419,-4.5317,-4.5233,-4.7276,-4.7407,-4.7427,-4.7489,-4.7547,-4.6896,-4.629,-4.5757,-4.5757,-4.5785,-4.5873,-4.588,-4.591,-4.5994,-4.5983,-4.5991,-4.5998,-4.5988,-4.5986,-4.5986,-4.5986,-4.6016,-4.6085,-4.6085,-4.6075,-4.6099,-4.6154,-4.6196,-4.6177,-4.6209,-4.624,-4.6314,-4.6292,-4.6306,-4.6295,-4.6297,-4.6293,-4.63,-4.6293,-4.6297,-4.63,-4.6287,-4.63,-4.6303,-4.6289,-4.6293,-4.629,-4.6295,-4.6295,-4.63,-4.6308,-4.6299,-4.6299,-4.627,-4.6137,-4.604,-4.6027,-4.593,-4.578,-4.6406,-4.7101,-4.7811,-4.797,-4.7388,-4.5814,-4.5631,-4.565,-4.5742,-4.6345,-4.6735,-4.6758,-4.7316,-4.7662,-4.772,-4.774,-4.7817,-4.7932,-4.7952,-4.8009,-4.8202,-4.8105,-4.8163,-4.8317,-4.8798,-4.9221,-4.9317,-4.9663,-5.0221,-4.9971,-4.9029,-4.8203,-4.8087,-4.8105,-4.8105,-4.8298,-4.8125,-4.8163,-4.7952,-4.7932,-4.7663,-4.6855,-4.6644,-4.6413,-4.5759,-4.5624,-4.5586,-4.5586,-4.5586,-4.5586,-4.5568,-4.555,-4.5495,-4.5495,-4.54,-4.5338,-4.8343,-4.835,-4.8087,-4.8009,-4.8103,-4.7816,-4.7569,-4.7333,-4.7319,-4.7049,-4.6673,-4.6698,-4.6989,-4.7446,-4.7455,-4.7466,-4.7464,-4.7466,-4.7466,-4.7466,-4.7466,-4.7484,-4.7501,-4.7556,-4.7572,-4.7567,-4.7587,-4.7599,-4.761,-4.7616,-4.763,-4.7712,-4.7709,-4.7692,-4.7718,-4.7706,-4.7703,-4.7689,-4.6778,-4.6297,-4.6287,-4.6305,-4.6307,-4.6289,-4.6295,-4.63,-4.63,-4.63,-4.6491,-4.6932,-4.6957,-4.7176,-4.7618,-4.7632,-4.7593,-4.7564,-4.7517,-4.7473,-4.7456,-4.7725,-4.805,-4.8381,-4.8328,-4.7985,-4.7182,-4.7108,-4.7092,-4.706,-4.739,-4.7527,-4.7567,-4.7894,-4.8105,-4.8105,-4.8105,-4.8298,-4.8721,-4.8817,-4.899,-4.9394,-4.951,-4.951,-4.951,-4.9856,-5.0106,-5.0144,-5.0491,-5.0683,-5.0683,-5.0048,-4.951,-4.951,-4.951,-4.9529,-4.949,-4.951,-4.9317,-4.8913,-4.8817,-4.8452,-4.7702,-4.7278,-4.6778,-4.6355,-4.5951,-4.5624,-4.5586,-4.5586,-4.5586,-4.5586,-4.5566,-4.5531,-4.5495,-4.5438,-4.5341,-4.9385,-4.9394,-4.8906,-4.8646,-4.8559,-4.8748,-4.8759,-4.8621,-4.8604,-4.835,-4.792,-4.7767,-4.8076,-4.8663,-4.8719,-4.8738,-4.8713,-4.8713,-4.8733,-4.8721,-4.8721,-4.8729,-4.8711,-4.8763,-4.8808,-4.8794,-4.88,-4.8791,-4.8821,-4.8821,-4.8837,-4.89,-4.8895,-4.8889,-4.8889,-4.8899,-4.8899,-4.8814,-4.7569,-4.6893,-4.6873,-4.6893,-4.6869,-4.6895,-4.6889,-4.6866,-4.6862,-4.685,-4.7153,-4.7727,-4.778,-4.808,-4.8723,-4.8755,-4.8733,-4.8671,-4.8604,-4.866,-4.8805,-4.8735,-4.8745,-4.8906,-4.8815,-4.8779,-4.8758,-4.8757,-4.8564,-4.8275,-4.8278,-4.8394,-4.8452,-4.8625,-4.8682,-4.8682,-4.8682,-4.9009,-4.9567,-4.9683,-4.9933,-5.0587,-5.0683,-5.0644,-5.0683,-5.0683,-5.0644,-5.0625,-5.0683,-5.0683,-5.0683,-5.0683,-5.0683,-5.0683,-5.0683,-5.0606,-5.0683,-5.0625,-5.0337,-4.976,-4.9683,-4.9298,-4.8586,-4.7855,-4.7259,-4.6971,-4.6355,-4.5893,-4.5663,-4.5586,-4.5586,-4.5586,-4.5586,-4.5587,-4.5513,-4.5476,-4.54,-5.0374,-5.0447,-5.0457,-5.0162,-4.9594,-4.971,-4.939,-4.8798,-4.8705,-4.9111,-4.9609,-4.8919,-4.8651,-4.8698,-4.8822,-4.8877,-4.8878,-4.8794,-4.8847,-4.8853,-4.8794,-4.88,-4.8878,-4.8839,-4.8806,-4.8874,-4.8894,-4.9001,-4.9029,-4.8974,-4.8931,-4.8886,-4.8886,-4.8945,-4.8926,-4.8945,-4.8926,-4.8906,-4.874,-4.8669,-4.8665,-4.8665,-4.8672,-4.8662,-4.863,-4.8615,-4.8465,-4.8582,-4.8591,-4.8685,-4.8638,-4.8643,-4.8716,-4.8681,-4.8642,-4.8658,-4.8577,-4.8787,-4.9427,-4.9504,-4.9753,-5.041,-5.0394,-5.0375,-5.0394,-5.0414,-4.976,-4.8702,-4.8875,-4.926,-4.9317,-4.9913,-5.026,-5.0202,-5.0279,-5.0491,-5.0471,-5.0587,-5.0625,-5.0664,-5.0683,-5.0683,-5.0683,-5.0683,-5.0683,-5.0683,-5.0683,-5.0683,-5.0683,-5.0683,-5.0683,-5.0683,-5.0683,-5.0683,-5.0683,-5.0683,-5.0606,-5.0491,-5.0529,-5.0125,-4.9471,-4.9106,-4.8779,-4.7567,-4.6836,-4.6451,-4.5932,-4.5586,-4.5586,-4.5586,-4.5586,-4.5605,-4.5513,-4.5495,-4.5457,-5.0624,-5.0728,-5.0821,-5.0739,-5.0576,-5.0685,-5.0538,-5.0244,-5.0283,-5.0498,-5.0752,-5.0446,-5.0296,-5.0308,-5.0316,-5.0342,-5.0327,-5.0338,-5.0343,-5.0338,-5.0332,-5.0338,-5.0328,-5.0328,-5.0332,-5.0332,-5.0332,-5.0356,-5.0364,-5.0361,-5.0389,-5.0371,-5.0371,-5.0371,-5.0391,-5.0391,-5.0389,-5.0379,-5.0387,-5.0379,-5.0262,-4.9399,-4.8873,-4.8837,-4.8857,-4.8829,-4.8806,-4.8769,-4.8964,-4.9457,-4.9484,-4.9663,-5.0081,-5.0098,-5.0064,-5.0073,-4.9982,-5.0046,-5.0333,-5.0298,-5.0383,-5.0682,-5.0702,-5.0683,-5.0683,-5.0683,-5.0356,-4.9856,-4.9952,-5.0164,-5.0183,-5.0491,-5.0683,-5.0683,-5.0683,-5.0683,-5.0683,-5.0683,-5.0683,-5.0683,-5.0683,-5.0683,-5.0683,-5.0683,-5.0683,-5.0683,-5.0683,-5.0683,-5.0683,-5.0683,-5.0683,-5.0683,-5.0683,-5.0683,-5.0683,-5.0683,-5.0683,-5.0683,-5.0683,-5.0452,-5.024,-4.9663,-4.9106,-4.8413,-4.7585,-4.6931,-4.6509,-4.5874,-4.5586,-4.5586,-4.5586,-4.5586,-4.5568,-4.5568,-4.5531,-5.1448,-5.1532,-5.1651,-5.1754,-5.1861,-5.1977,-5.2029,-5.2051,-5.2096,-5.2108,-5.2108,-5.2118,-5.2123,-5.206,-5.1625,-5.1386,-5.1391,-5.1386,-5.139,-5.1381,-5.1396,-5.1386,-5.1402,-5.1402,-5.1402,-5.1402,-5.1359,-5.1379,-5.1391,-5.1385,-5.1387,-5.1387,-5.1387,-5.1387,-5.1387,-5.1386,-5.1398,-5.1379,-5.1394,-5.1394,-5.1215,-5.0219,-4.9567,-4.9518,-4.9508,-4.9518,-4.949,-4.9437,-4.9687,-5.0274,-5.0315,-5.0537,-5.1042,-5.1088,-5.105,-5.1039,-5.0925,-5.0858,-5.0846,-5.0752,-5.0698,-5.0682,-5.0683,-5.0683,-5.0683,-5.0683,-5.0683,-5.0644,-5.0683,-5.0664,-5.0683,-5.0683,-5.0683,-5.0683,-5.0683,-5.0683,-5.0683,-5.0683,-5.0683,-5.0683,-5.0683,-5.0683,-5.0683,-5.0683,-5.0683,-5.0683,-5.0683,-5.0683,-5.0683,-5.0683,-5.0683,-5.0683,-5.0683,-5.0683,-5.0683,-5.0683,-5.0683,-5.0683,-5.0683,-5.0683,-5.0683,-5.0067,-4.951,-4.899,-4.7951,-4.6969,-4.6336,-4.5817,-4.5586,-4.5586,-4.5586,-4.5586,-4.5586,-4.5586,-4.5586,-5.3378,-5.3372,-5.3565,-5.3584,-5.3755,-5.3705,-5.3774,-5.3693,-5.3777,-5.3821,-5.3752,-5.3795,-5.3834,-5.3678,-5.221,-5.1449,-5.1453,-5.1535,-5.1554,-5.155,-5.1472,-5.1425,-5.1396,-5.1398,-5.1398,-5.1396,-5.1385,-5.1394,-5.1386,-5.1387,-5.1387,-5.1387,-5.1387,-5.1387,-5.1387,-5.1394,-5.1398,-5.1394,-5.1394,-5.1386,-5.1396,-5.1299,-5.1162,-5.1138,-5.123,-5.1128,-5.1113,-5.1164,-5.1122,-5.1039,-5.0989,-5.1042,-5.1095,-5.1034,-5.0975,-5.0916,-5.0827,-5.0775,-5.072,-5.0717,-5.0699,-5.0702,-5.0683,-5.0683,-5.0683,-5.0683,-5.0683,-5.0683,-5.0683,-5.0683,-5.0683,-5.0683,-5.0683,-5.0683,-5.0683,-5.0683,-5.0683,-5.0683,-5.0683,-5.0683,-5.0683,-5.0683,-5.0683,-5.0683,-5.0683,-5.0683,-5.0683,-5.0683,-5.0683,-5.0683,-5.0683,-5.0683,-5.0683,-5.0683,-5.0683,-5.0683,-5.0683,-5.0683,-5.0683,-5.0683,-5.0683,-5.0567,-5.0106,-4.9586,-4.8702,-4.7587,-4.6242,-4.5645,-4.5605,-4.5586,-4.5586,-4.5586,-4.5586,-4.5586,-4.5586,-5.3621,-5.3701,-5.3798,-5.3864,-5.3896,-5.3962,-5.3975,-5.3986,-5.3982,-5.3986,-5.399,-5.3985,-5.3985,-5.3975,-5.337,-5.3061,-5.3073,-5.308,-5.306,-5.2992,-5.2495,-5.2238,-5.2186,-5.1695,-5.1386,-5.1386,-5.1384,-5.1385,-5.1387,-5.1387,-5.1387,-5.1387,-5.1387,-5.1387,-5.1387,-5.1391,-5.1394,-5.1394,-5.1386,-5.1396,-5.1391,-5.1361,-5.1343,-5.1336,-5.1342,-5.1328,-5.1304,-5.121,-5.1136,-5.1086,-5.1088,-5.1075,-5.1034,-5.096,-5.0897,-5.0846,-5.0775,-5.072,-5.0701,-5.0682,-5.0683,-5.0702,-5.0683,-5.0741,-5.0683,-5.0683,-5.0683,-5.0702,-5.0702,-5.0683,-5.0683,-5.0683,-5.0683,-5.0683,-5.0683,-5.0683,-5.0683,-5.0683,-5.0683,-5.0683,-5.0683,-5.0683,-5.0683,-5.0683,-5.0683,-5.0683,-5.0683,-5.0683,-5.0683,-5.0683,-5.0683,-5.0683,-5.0683,-5.0683,-5.0683,-5.0683,-5.0683,-5.0683,-5.0683,-5.0683,-5.0683,-5.0683,-5.0317,-5.0164,-4.9394,-4.8491,-4.7202,-4.5953,-4.5855,-4.5586,-4.5586,-4.5586,-4.5586,-4.5586,-4.5586,-5.4548,-5.4651,-5.4702,-5.4749,-5.4743,-5.4786,-5.4811,-5.4836,-5.4834,-5.4838,-5.4834,-5.4844,-5.4844,-5.4834,-5.4834,-5.4847,-5.4762,-5.4296,-5.3984,-5.3942,-5.3388,-5.3129,-5.3037,-5.2518,-5.2246,-5.2246,-5.2246,-5.2226,-5.2226,-5.2246,-5.2246,-5.2266,-5.1992,-5.1835,-5.1792,-5.1548,-5.1402,-5.1394,-5.1401,-5.1391,-5.1391,-5.1343,-5.1296,-5.1351,-5.152,-5.1522,-5.1249,-5.1144,-5.1095,-5.1043,-5.1062,-5.1141,-5.1331,-5.1576,-5.1659,-5.1604,-5.1568,-5.1491,-5.153,-5.1491,-5.153,-5.151,-5.1529,-5.151,-5.1491,-5.151,-5.151,-5.151,-5.151,-5.1491,-5.151,-5.1529,-5.1298,-5.0856,-5.0683,-5.0683,-5.0683,-5.0683,-5.0683,-5.0683,-5.0683,-5.0683,-5.0683,-5.0683,-5.0683,-5.0683,-5.0683,-5.0683,-5.0683,-5.0683,-5.0683,-5.0683,-5.0683,-5.0683,-5.0683,-5.0683,-5.0683,-5.0683,-5.0683,-5.0683,-5.0683,-5.0683,-5.0644,-5.0529,-5.0048,-4.9221,-4.8105,-4.6721,-4.6028,-4.5663,-4.5586,-4.5586,-4.5586,-4.5586,-4.5586,-5.6327,-5.627,-5.6446,-5.6335,-5.6288,-5.6274,-5.6455,-5.6391,-5.6448,-5.6328,-5.6263,-5.6454,-5.6325,-5.6458,-5.6286,-5.6473,-5.6113,-5.4902,-5.4277,-5.4258,-5.4082,-5.4004,-5.3984,-5.3808,-5.3711,-5.373,-5.3887,-5.3887,-5.3769,-5.3711,-5.375,-5.373,-5.3027,-5.2715,-5.2706,-5.2033,-5.1564,-5.1629,-5.1674,-5.1581,-5.1414,-5.1549,-5.1557,-5.155,-5.2083,-5.2057,-5.1299,-5.1249,-5.1315,-5.1194,-5.1115,-5.1341,-5.2103,-5.2723,-5.3186,-5.3071,-5.3128,-5.3126,-5.3068,-5.3011,-5.2934,-5.2914,-5.3047,-5.2913,-5.2856,-5.2933,-5.2953,-5.2914,-5.2953,-5.3029,-5.2991,-5.2953,-5.2433,-5.1087,-5.0991,-5.101,-5.0894,-5.0779,-5.076,-5.0894,-5.0971,-5.0779,-5.0779,-5.0991,-5.1087,-5.1048,-5.101,-5.0971,-5.0933,-5.0894,-5.076,-5.0683,-5.0683,-5.0683,-5.0683,-5.0683,-5.0683,-5.0683,-5.0683,-5.0683,-5.0683,-5.0683,-5.0683,-5.0587,-5.0317,-4.949,-4.799,-4.6701,-4.5933,-4.5605,-4.5586,-4.5586,-4.5586,-4.5586,-4.5586,-5.6425,-5.6475,-5.6484,-5.6528,-5.6558,-5.6558,-5.6582,-5.6606,-5.6614,-5.6607,-5.6616,-5.6618,-5.6618,-5.6621,-5.6618,-5.6621,-5.6562,-5.5996,-5.5781,-5.5664,-5.5156,-5.4883,-5.4785,-5.4277,-5.3984,-5.3984,-5.3984,-5.4004,-5.4023,-5.4023,-5.3984,-5.3906,-5.3761,-5.3592,-5.358,-5.3311,-5.319,-5.3191,-5.3161,-5.3124,-5.3109,-5.3046,-5.2981,-5.2978,-5.3196,-5.3088,-5.2787,-5.2753,-5.2743,-5.2682,-5.2652,-5.2717,-5.2935,-5.3167,-5.3282,-5.3223,-5.3203,-5.3203,-5.3203,-5.3241,-5.326,-5.3222,-5.322,-5.3182,-5.3203,-5.3241,-5.326,-5.3241,-5.3203,-5.3203,-5.3203,-5.3203,-5.2991,-5.2491,-5.2414,-5.2337,-5.2279,-5.2337,-5.2433,-5.2414,-5.2414,-5.2433,-5.2395,-5.2356,-5.226,-5.2279,-5.2299,-5.2183,-5.1683,-5.1549,-5.1241,-5.0837,-5.0779,-5.0798,-5.0856,-5.0818,-5.0683,-5.0683,-5.0683,-5.0683,-5.0683,-5.0683,-5.0683,-5.0606,-5.0356,-4.9567,-4.8048,-4.6741,-4.5933,-4.5626,-4.5643,-4.5624,-4.5605,-4.5586,-4.5586,-5.6452,-5.6484,-5.6538,-5.6577,-5.6606,-5.6606,-5.6606,-5.661,-5.6602,-5.6616,-5.6621,-5.6621,-5.6621,-5.6621,-5.6621,-5.6621,-5.6621,-5.6621,-5.6621,-5.6543,-5.6094,-5.5781,-5.5723,-5.5254,-5.4961,-5.4961,-5.4961,-5.4961,-5.498,-5.4961,-5.498,-5.4961,-5.4652,-5.4494,-5.4435,-5.4157,-5.3991,-5.3981,-5.3904,-5.3896,-5.3883,-5.3818,-5.3747,-5.3727,-5.3961,-5.4047,-5.3972,-5.423,-5.4116,-5.3658,-5.3663,-5.3783,-5.3763,-5.4013,-5.4186,-5.4126,-5.4145,-5.4164,-5.4145,-5.4222,-5.4145,-5.4126,-5.4126,-5.4145,-5.4145,-5.4126,-5.4126,-5.4126,-5.4164,-5.4145,-5.4145,-5.4145,-5.4126,-5.4126,-5.3491,-5.326,-5.3203,-5.3203,-5.3164,-5.3106,-5.3126,-5.3203,-5.3203,-5.3203,-5.3203,-5.3203,-5.3203,-5.3126,-5.2529,-5.2415,-5.1991,-5.1606,-5.1452,-5.1375,-5.1183,-5.0971,-5.0721,-5.0683,-5.0683,-5.0683,-5.0683,-5.0683,-5.0683,-5.0683,-5.051,-5.0067,-4.8702,-4.678,-4.5628,-4.5664,-4.5893,-4.5624,-4.5586,-4.5586,-4.5586,-5.6494,-5.6528,-5.6567,-5.6606,-5.6606,-5.6606,-5.661,-5.6618,-5.6618,-5.6621,-5.6621,-5.6621,-5.6621,-5.6621,-5.6621,-5.6621,-5.6621,-5.6621,-5.6621,-5.6621,-5.6504,-5.6465,-5.6406,-5.6328,-5.6269,-5.6367,-5.6387,-5.6465,-5.6308,-5.6308,-5.6582,-5.6328,-5.5667,-5.5376,-5.5255,-5.4577,-5.4337,-5.439,-5.4254,-5.4203,-5.4195,-5.4069,-5.3987,-5.4013,-5.4551,-5.4826,-5.489,-5.5341,-5.5092,-5.3895,-5.4285,-5.4572,-5.4705,-5.5299,-5.5511,-5.5472,-5.5645,-5.553,-5.5607,-5.5415,-5.5453,-5.5415,-5.5415,-5.5684,-5.5453,-5.5357,-5.5357,-5.5395,-5.5453,-5.5511,-5.5511,-5.5491,-5.5491,-5.5453,-5.4395,-5.3664,-5.3395,-5.3472,-5.3626,-5.3568,-5.3395,-5.3395,-5.3587,-5.3568,-5.3549,-5.3549,-5.3587,-5.3568,-5.3337,-5.328,-5.3222,-5.2818,-5.224,-5.2125,-5.1972,-5.1395,-5.1164,-5.1068,-5.0933,-5.0702,-5.0683,-5.0683,-5.0683,-5.0683,-5.0625,-5.0164,-4.9413,-4.7684,-4.6646,-4.676,-4.6547,-4.5913,-4.5682,-4.5778,-4.5605,-5.6514,-5.6586,-5.6586,-5.6606,-5.6606,-5.6606,-5.6605,-5.6621,-5.6621,-5.6621,-5.6621,-5.6621,-5.6621,-5.6621,-5.664,-5.6621,-5.6719,-5.6699,-5.6621,-5.6621,-5.6621,-5.6621,-5.6621,-5.6621,-5.6621,-5.6621,-5.6621,-5.6621,-5.6621,-5.6621,-5.6619,-5.6582,-5.6351,-5.6208,-5.6177,-5.5909,-5.5853,-5.5822,-5.5767,-5.5667,-5.5648,-5.5583,-5.5585,-5.5569,-5.5594,-5.5647,-5.565,-5.5789,-5.5711,-5.5268,-5.5285,-5.5378,-5.5357,-5.5568,-5.5684,-5.5684,-5.5684,-5.5684,-5.5684,-5.5684,-5.5684,-5.5684,-5.5684,-5.5684,-5.5684,-5.5684,-5.5684,-5.5684,-5.5684,-5.5684,-5.5684,-5.5684,-5.5684,-5.5665,-5.5145,-5.4895,-5.4914,-5.503,-5.5049,-5.5049,-5.4972,-5.4914,-5.4876,-5.4895,-5.4876,-5.4895,-5.4838,-5.4722,-5.4318,-5.4145,-5.4087,-5.3432,-5.2931,-5.2894,-5.2664,-5.2029,-5.1664,-5.1548,-5.1241,-5.0741,-5.0702,-5.0683,-5.0683,-5.0683,-5.0683,-5.0356,-5.0106,-4.9144,-4.8682,-4.7836,-4.7221,-4.6586,-4.6297,-4.624,-4.5778,-5.6558,-5.6606,-5.6605,-5.6621,-5.661,-5.6605,-5.6616,-5.6621,-5.6621,-5.6621,-5.6621,-5.6621,-5.6797,-5.7129,-5.7168,-5.7383,-5.7656,-5.7695,-5.7734,-5.7715,-5.7754,-5.7344,-5.6836,-5.6621,-5.6621,-5.6621,-5.6621,-5.6621,-5.6621,-5.6619,-5.6607,-5.6614,-5.6618,-5.6575,-5.6499,-5.6523,-5.6485,-5.6437,-5.6425,-5.6388,-5.6353,-5.6278,-5.6204,-5.6149,-5.6048,-5.598,-5.5904,-5.5826,-5.5766,-5.5726,-5.5705,-5.5684,-5.5684,-5.5684,-5.5684,-5.5684,-5.5684,-5.5684,-5.5684,-5.5684,-5.5684,-5.5684,-5.5684,-5.5684,-5.5684,-5.5684,-5.5684,-5.5684,-5.5684,-5.5684,-5.5684,-5.5684,-5.5684,-5.5684,-5.5684,-5.5684,-5.5684,-5.5626,-5.5684,-5.5684,-5.5684,-5.5684,-5.5684,-5.5684,-5.5684,-5.5645,-5.553,-5.5338,-5.5088,-5.5011,-5.4838,-5.4259,-5.3816,-5.374,-5.351,-5.2953,-5.2414,-5.2241,-5.1625,-5.1068,-5.0818,-5.0779,-5.0683,-5.0683,-5.0683,-5.0606,-5.0375,-4.999,-4.926,-4.8452,-4.7836,-4.7336,-4.699,-4.674,-4.624,-5.6606,-5.661,-5.6618,-5.6616,-5.6621,-5.6621,-5.6621,-5.6621,-5.6777,-5.6816,-5.6836,-5.6855,-5.7461,-5.8027,-5.8047,-5.8418,-5.9082,-5.8926,-5.9023,-5.8984,-5.8887,-5.834,-5.7285,-5.7207,-5.7051,-5.6914,-5.6758,-5.6699,-5.666,-5.6607,-5.661,-5.6606,-5.6606,-5.6577,-5.6528,-5.6491,-5.6464,-5.6414,-5.6407,-5.6375,-5.6304,-5.6238,-5.6164,-5.6101,-5.6016,-5.5904,-5.5826,-5.5745,-5.5703,-5.5684,-5.5684,-5.5684,-5.5684,-5.5684,-5.5684,-5.5684,-5.5684,-5.5684,-5.5684,-5.5684,-5.5684,-5.5684,-5.5684,-5.5684,-5.5684,-5.5684,-5.5684,-5.5684,-5.5684,-5.5684,-5.5684,-5.5684,-5.5684,-5.5684,-5.5684,-5.5684,-5.5684,-5.5684,-5.5684,-5.5684,-5.5684,-5.5684,-5.5684,-5.5684,-5.5684,-5.5684,-5.5684,-5.5588,-5.5472,-5.5395,-5.5395,-5.5338,-5.4953,-5.4626,-5.4299,-5.3876,-5.3376,-5.2972,-5.2145,-5.1529,-5.1106,-5.0952,-5.0779,-5.0683,-5.0683,-5.0683,-5.0606,-5.0125,-4.9606,-4.9279,-4.8798,-4.8105,-4.749,-4.7317,-4.6951,-5.6606,-5.661,-5.6618,-5.6621,-5.662,-5.6621,-5.6621,-5.6699,-5.7363,-5.7637,-5.7754,-5.832,-5.8691,-5.8926,-5.8906,-5.9062,-5.9316,-5.9355,-5.9199,-5.9199,-5.9199,-5.9082,-5.8633,-5.8633,-5.8242,-5.7812,-5.7617,-5.7265,-5.6836,-5.6705,-5.6606,-5.6606,-5.6602,-5.6558,-5.6523,-5.6485,-5.6464,-5.6425,-5.6398,-5.6353,-5.6311,-5.6228,-5.6133,-5.6031,-5.5923,-5.5807,-5.5745,-5.5705,-5.5684,-5.5684,-5.5684,-5.5684,-5.5684,-5.5684,-5.5684,-5.5684,-5.5684,-5.5684,-5.5684,-5.5684,-5.5684,-5.5684,-5.5684,-5.5684,-5.5684,-5.5684,-5.5684,-5.5684,-5.5684,-5.5684,-5.5684,-5.5684,-5.5684,-5.5684,-5.5684,-5.5684,-5.5684,-5.5684,-5.5684,-5.5684,-5.5684,-5.5684,-5.5684,-5.5684,-5.5684,-5.5684,-5.5684,-5.5684,-5.5684,-5.5684,-5.5684,-5.5684,-5.553,-5.5145,-5.4972,-5.4568,-5.4107,-5.3664,-5.2895,-5.1972,-5.1548,-5.1164,-5.0971,-5.0818,-5.0683,-5.0683,-5.0664,-5.0644,-5.0183,-4.9971,-4.9721,-4.9067,-4.849,-4.8163,-4.7682,-5.6618,-5.6612,-5.662,-5.6621,-5.668,-5.7031,-5.7207,-5.7363,-5.8125,-5.8515,-5.8613,-5.9043,-5.9394,-5.9765,-5.9785,-5.9941,-6.0332,-6.039,-6.039,-6.043,-6.041,-6.039,-6.0351,-6.0234,-5.9785,-5.873,-5.8496,-5.8022,-5.7439,-5.7154,-5.7016,-5.6621,-5.6602,-5.6528,-5.6517,-5.6471,-5.6433,-5.6407,-5.6356,-5.6317,-5.6251,-5.6199,-5.6101,-5.5979,-5.5866,-5.5766,-5.5705,-5.5684,-5.5684,-5.5684,-5.5684,-5.5684,-5.5684,-5.5684,-5.5684,-5.5684,-5.5684,-5.5684,-5.5684,-5.5684,-5.5684,-5.5684,-5.5684,-5.5684,-5.5684,-5.5684,-5.5684,-5.5684,-5.5684,-5.5684,-5.5684,-5.5684,-5.5684,-5.5684,-5.5684,-5.5684,-5.5684,-5.5684,-5.5684,-5.5684,-5.5684,-5.5684,-5.5684,-5.5684,-5.5684,-5.5684,-5.5684,-5.5684,-5.5684,-5.5684,-5.5684,-5.5684,-5.5684,-5.5588,-5.5549,-5.5222,-5.4741,-5.4299,-5.378,-5.276,-5.1952,-5.1548,-5.1183,-5.0952,-5.0683,-5.0683,-5.0683,-5.0683,-5.0683,-5.0452,-5.0144,-4.9837,-4.9452,-4.8933,-4.8394,-5.6612,-5.6621,-5.6621,-5.6621,-5.6738,-5.748,-5.7851,-5.7988,-5.8984,-5.9355,-5.9453,-5.9492,-6.0156,-6.0488,-6.0605,-6.1055,-6.1445,-6.1582,-6.1426,-6.1426,-6.1426,-6.1406,-6.1445,-6.1308,-6.0898,-5.9648,-5.9436,-5.8909,-5.8272,-5.801,-5.7753,-5.7104,-5.6787,-5.6848,-5.6744,-5.6469,-5.6407,-5.6375,-5.6329,-5.6265,-5.618,-5.6133,-5.6014,-5.5904,-5.5826,-5.5745,-5.5724,-5.5684,-5.5684,-5.5684,-5.5684,-5.5684,-5.5684,-5.5684,-5.5684,-5.5684,-5.5684,-5.5684,-5.5684,-5.5684,-5.5684,-5.5684,-5.5684,-5.5684,-5.5684,-5.5684,-5.5684,-5.5684,-5.5684,-5.5684,-5.5684,-5.5684,-5.5684,-5.5684,-5.5684,-5.5684,-5.5684,-5.5684,-5.5684,-5.5684,-5.5684,-5.5684,-5.5684,-5.5684,-5.5684,-5.5684,-5.5684,-5.5684,-5.5684,-5.5684,-5.5684,-5.5684,-5.5684,-5.5684,-5.5645,-5.5607,-5.5164,-5.4876,-5.4472,-5.3645,-5.2568,-5.1952,-5.151,-5.0933,-5.0683,-5.0683,-5.0683,-5.0683,-5.0683,-5.0683,-5.0567,-5.024,-4.9952,-4.9644,-4.9202,-5.662,-5.6621,-5.6621,-5.6621,-5.6758,-5.7539,-5.7969,-5.8164,-5.959,-6.0195,-6.0293,-6.0918,-6.123,-6.1426,-6.1465,-6.1601,-6.168,-6.1699,-6.1699,-6.1699,-6.1699,-6.1699,-6.1701,-6.1701,-6.145,-6.1199,-6.0597,-5.9753,-5.9093,-5.8851,-5.8685,-5.8513,-5.7927,-5.7577,-5.7326,-5.6873,-5.6563,-5.6484,-5.6427,-5.634,-5.613,-5.6048,-5.5959,-5.5846,-5.5766,-5.5724,-5.5724,-5.5684,-5.5684,-5.5684,-5.5684,-5.5684,-5.5684,-5.5684,-5.5684,-5.5684,-5.5684,-5.5684,-5.5684,-5.5684,-5.5684,-5.5684,-5.5684,-5.5684,-5.5684,-5.5684,-5.5684,-5.5684,-5.5684,-5.5684,-5.5684,-5.5684,-5.5684,-5.5684,-5.5684,-5.5684,-5.5684,-5.5684,-5.5684,-5.5684,-5.5684,-5.5684,-5.5684,-5.5684,-5.5684,-5.5684,-5.5684,-5.5684,-5.5684,-5.5684,-5.5684,-5.5684,-5.5684,-5.5684,-5.5684,-5.5684,-5.5511,-5.5318,-5.4972,-5.453,-5.353,-5.2529,-5.1856,-5.1298,-5.0837,-5.0683,-5.0683,-5.0683,-5.0683,-5.0683,-5.0664,-5.0625,-5.0375,-5.0125,-5.026,-5.6621,-5.6621,-5.6621,-5.6855,-5.7383,-5.8203,-5.8828,-5.9355,-6.0508,-6.1094,-6.1191,-6.1523,-6.1699,-6.1699,-6.1699,-6.1699,-6.1699,-6.1699,-6.1699,-6.1699,-6.1713,-6.1704,-6.1701,-6.1701,-6.1705,-6.1592,-6.1208,-6.0606,-5.9865,-5.9783,-5.9572,-5.9053,-5.8597,-5.8398,-5.8305,-5.7945,-5.7356,-5.7068,-5.6859,-5.6606,-5.6175,-5.6053,-5.5943,-5.5845,-5.5784,-5.5703,-5.5684,-5.5684,-5.5684,-5.5684,-5.5684,-5.5703,-5.5742,-5.5742,-5.5722,-5.5761,-5.5722,-5.5684,-5.5684,-5.5684,-5.5684,-5.5684,-5.5684,-5.5684,-5.5684,-5.5684,-5.5684,-5.5684,-5.5684,-5.5684,-5.5684,-5.5684,-5.5684,-5.5684,-5.5684,-5.5684,-5.5684,-5.5684,-5.5684,-5.5684,-5.5684,-5.5684,-5.5684,-5.5684,-5.5684,-5.5684,-5.5684,-5.5684,-5.5684,-5.5684,-5.5684,-5.5684,-5.5684,-5.5684,-5.5684,-5.5684,-5.5684,-5.5568,-5.5415,-5.4991,-5.4472,-5.3491,-5.2491,-5.1683,-5.1279,-5.1029,-5.0683,-5.0683,-5.0683,-5.0683,-5.0664,-5.0664,-5.0683,-5.0683,-5.0683,-5.6621,-5.6621,-5.6621,-5.6992,-5.7734,-5.8769,-5.9531,-6.0293,-6.123,-6.166,-6.1699,-6.1699,-6.1699,-6.1699,-6.1699,-6.1699,-6.1699,-6.1699,-6.1699,-6.1699,-6.1701,-6.1701,-6.1701,-6.1715,-6.1715,-6.1696,-6.1582,-6.1329,-6.0789,-6.0651,-6.0223,-5.9868,-5.9503,-5.9231,-5.9162,-5.8744,-5.835,-5.7965,-5.7653,-5.724,-5.6708,-5.6444,-5.6367,-5.6326,-5.6225,-5.6319,-5.6434,-5.6453,-5.6434,-5.6415,-5.6357,-5.6299,-5.6242,-5.6222,-5.6203,-5.6165,-5.5934,-5.5722,-5.5684,-5.5684,-5.5684,-5.5684,-5.5684,-5.5684,-5.5684,-5.5684,-5.5684,-5.5684,-5.5684,-5.5684,-5.5684,-5.5684,-5.5684,-5.5684,-5.5684,-5.5684,-5.5684,-5.5684,-5.5684,-5.5684,-5.5684,-5.5684,-5.5684,-5.5684,-5.5684,-5.5684,-5.5684,-5.5684,-5.5684,-5.5684,-5.5684,-5.5684,-5.5684,-5.5684,-5.5684,-5.5684,-5.5684,-5.5645,-5.5568,-5.5338,-5.4972,-5.4453,-5.3472,-5.2568,-5.201,-5.1722,-5.1221,-5.0702,-5.0683,-5.0683,-5.0683,-5.0683,-5.0683,-5.0683,-5.0683,-5.6621,-5.6621,-5.6621,-5.668,-5.7051,-5.8535,-5.9258,-5.9609,-6.1055,-6.1699,-6.1699,-6.1699,-6.1699,-6.1699,-6.1699,-6.1699,-6.1699,-6.1699,-6.1715,-6.1701,-6.1705,-6.1715,-6.1715,-6.1699,-6.1699,-6.1679,-6.1621,-6.1602,-6.1387,-6.1335,-6.1346,-6.1013,-6.0399,-6.0097,-5.9937,-5.9458,-5.8702,-5.8509,-5.8441,-5.8275,-5.8027,-5.789,-5.7846,-5.7841,-5.7819,-5.7761,-5.7665,-5.7646,-5.7723,-5.778,-5.7877,-5.7953,-5.7992,-5.7992,-5.7992,-5.755,-5.6742,-5.5703,-5.5799,-5.5722,-5.5684,-5.5684,-5.5684,-5.5684,-5.5684,-5.5703,-5.5703,-5.5684,-5.5742,-5.5915,-5.5992,-5.578,-5.5722,-5.5722,-5.5761,-5.5722,-5.5684,-5.5684,-5.5684,-5.5684,-5.5684,-5.5684,-5.5684,-5.5684,-5.5684,-5.5684,-5.5684,-5.5684,-5.5684,-5.5684,-5.5684,-5.5684,-5.5684,-5.5684,-5.5684,-5.5684,-5.5684,-5.5684,-5.5665,-5.5607,-5.5338,-5.4972,-5.4607,-5.378,-5.3126,-5.2299,-5.1645,-5.1183,-5.0856,-5.0683,-5.0683,-5.0683,-5.0683,-5.0683,-5.0683,-5.6621,-5.6621,-5.6621,-5.6894,-5.748,-5.8672,-5.9473,-6.0078,-6.1133,-6.1699,-6.1699,-6.1699,-6.1699,-6.1699,-6.1699,-6.1699,-6.1709,-6.1707,-6.1707,-6.1717,-6.1705,-6.1715,-6.1705,-6.1699,-6.1673,-6.1641,-6.1619,-6.1623,-6.1631,-6.1619,-6.1584,-6.1468,-6.1156,-6.0903,-6.0711,-6.0375,-5.9863,-5.937,-5.8854,-5.8491,-5.8373,-5.8329,-5.8306,-5.8319,-5.8338,-5.8377,-5.8377,-5.83,-5.83,-5.83,-5.83,-5.83,-5.828,-5.828,-5.828,-5.8204,-5.7665,-5.7011,-5.6511,-5.603,-5.5857,-5.5722,-5.5742,-5.5684,-5.5684,-5.578,-5.603,-5.6415,-5.6434,-5.6607,-5.6857,-5.6684,-5.6511,-5.6376,-5.6165,-5.5953,-5.5876,-5.5703,-5.5684,-5.5684,-5.5761,-5.5953,-5.6069,-5.603,-5.5934,-5.5684,-5.5684,-5.5684,-5.5684,-5.5684,-5.5684,-5.5684,-5.5684,-5.5684,-5.5684,-5.5684,-5.5684,-5.5684,-5.5684,-5.5645,-5.5626,-5.5357,-5.5011,-5.4664,-5.4049,-5.3183,-5.2241,-5.1722,-5.1452,-5.1068,-5.0683,-5.0798,-5.0875,-5.0683,-5.0663,-5.6621,-5.6621,-5.6621,-5.6973,-5.7656,-5.8496,-5.918,-5.9824,-6.0879,-6.1348,-6.1445,-6.1562,-6.1699,-6.1699,-6.1699,-6.1715,-6.1701,-6.1701,-6.1709,-6.1713,-6.1705,-6.1705,-6.1693,-6.1667,-6.1634,-6.158,-6.1568,-6.1558,-6.1539,-6.1539,-6.151,-6.1479,-6.1352,-6.1306,-6.1291,-6.1068,-6.0687,-6.0169,-5.9573,-5.9242,-5.91,-5.9059,-5.9037,-5.8973,-5.8934,-5.8934,-5.8915,-5.8992,-5.9011,-5.9031,-5.9088,-5.9165,-5.9146,-5.9184,-5.9165,-5.9069,-5.8723,-5.8261,-5.7646,-5.7091,-5.6456,-5.634,-5.6338,-5.6588,-5.6511,-5.6376,-5.6511,-5.73,-5.7319,-5.7665,-5.7953,-5.7607,-5.7434,-5.7146,-5.6896,-5.6549,-5.6338,-5.6453,-5.6626,-5.6838,-5.6876,-5.6703,-5.6722,-5.6549,-5.6261,-5.5818,-5.5684,-5.5742,-5.5742,-5.578,-5.5722,-5.5722,-5.5684,-5.5684,-5.5684,-5.5684,-5.5684,-5.5684,-5.5684,-5.5684,-5.5665,-5.5626,-5.5395,-5.5068,-5.4761,-5.4241,-5.3395,-5.2722,-5.2068,-5.1875,-5.1645,-5.1202,-5.1048,-5.0894,-5.07,-5.6621,-5.6621,-5.6621,-5.664,-5.6816,-5.7617,-5.8047,-5.8437,-5.9863,-6.0508,-6.0742,-6.1308,-6.1699,-6.1699,-6.1699,-6.1713,-6.1701,-6.1701,-6.1701,-6.1715,-6.1705,-6.1693,-6.168,-6.1651,-6.1616,-6.1588,-6.1537,-6.1479,-6.1421,-6.1433,-6.1428,-6.14,-6.1368,-6.132,-6.1247,-6.1173,-6.1079,-6.0751,-6.0457,-6.0451,-6.0407,-6.0423,-6.0377,-6.0435,-6.0531,-6.0608,-6.0589,-6.0396,-6.03,-6.03,-6.0242,-6.0262,-6.0165,-6.0204,-6.0185,-6.0089,-5.9723,-5.9338,-5.8954,-5.8284,-5.8058,-5.8077,-5.7956,-5.7742,-5.7646,-5.7934,-5.8146,-5.8127,-5.8184,-5.8319,-5.8415,-5.8242,-5.8204,-5.805,-5.78,-5.7588,-5.7473,-5.7627,-5.78,-5.805,-5.7915,-5.7569,-5.7492,-5.7357,-5.7069,-5.6646,-5.6417,-5.6456,-5.6069,-5.6011,-5.5818,-5.5761,-5.5703,-5.5684,-5.5684,-5.5684,-5.5684,-5.5684,-5.5684,-5.5684,-5.5684,-5.5645,-5.5607,-5.553,-5.5241,-5.4914,-5.4607,-5.3893,-5.3317,-5.2972,-5.2567,-5.2027,-5.164,-5.1485,-5.1173,-5.6621,-5.6621,-5.6621,-5.6621,-5.668,-5.7539,-5.789,-5.8086,-5.916,-5.998,-6.043,-6.1269,-6.1699,-6.1699,-6.1699,-6.1713,-6.1705,-6.1701,-6.1715,-6.171,-6.1699,-6.166,-6.1651,-6.1625,-6.1598,-6.1537,-6.1447,-6.1428,-6.1414,-6.1342,-6.1302,-6.1278,-6.1286,-6.1231,-6.1175,-6.1099,-6.1021,-6.0959,-6.0914,-6.0869,-6.0846,-6.0823,-6.08,-6.08,-6.08,-6.08,-6.0762,-6.0781,-6.0781,-6.08,-6.08,-6.08,-6.08,-6.08,-6.08,-6.08,-6.0377,-6.0262,-5.9973,-5.9149,-5.8322,-5.828,-5.8277,-5.835,-5.8492,-5.8357,-5.8627,-5.88,-5.905,-5.9146,-5.9742,-5.9377,-5.9011,-5.8915,-5.8761,-5.8569,-5.8531,-5.8646,-5.8646,-5.8723,-5.8454,-5.8107,-5.8127,-5.8184,-5.7857,-5.7511,-5.7321,-5.7112,-5.6744,-5.6453,-5.6376,-5.6107,-5.6049,-5.5895,-5.5876,-5.5799,-5.5703,-5.5684,-5.5684,-5.5684,-5.5684,-5.5684,-5.5665,-5.5684,-5.5684,-5.5355,-5.5085,-5.4872,-5.4389,-5.3678,-5.3178,-5.2735,-5.2404,-5.2069,-5.179,-5.6621,-5.6621,-5.6621,-5.6621,-5.6699,-5.7246,-5.75,-5.7676,-5.8437,-5.9277,-6.0098,-6.0917,-6.1324,-6.1363,-6.1637,-6.1709,-6.1701,-6.171,-6.1705,-6.1693,-6.168,-6.1651,-6.1616,-6.1548,-6.1503,-6.1467,-6.14,-6.1356,-6.1326,-6.1255,-6.1186,-6.1155,-6.1138,-6.1119,-6.1099,-6.102,-6.0955,-6.0891,-6.0869,-6.0846,-6.0781,-6.0781,-6.08,-6.08,-6.08,-6.08,-6.08,-6.08,-6.08,-6.08,-6.08,-6.08,-6.08,-6.08,-6.08,-6.08,-6.08,-6.08,-6.0454,-5.9915,-5.9046,-5.9261,-5.9219,-5.9181,-5.905,-5.9031,-5.9531,-5.9781,-5.9915,-6.0127,-6.0762,-6.0185,-5.9896,-5.9819,-5.9665,-5.9492,-5.9454,-5.9492,-5.9396,-5.9338,-5.9165,-5.9223,-5.9261,-5.93,-5.8684,-5.828,-5.7857,-5.7706,-5.7572,-5.7319,-5.7223,-5.6876,-5.6511,-5.6319,-5.6126,-5.5953,-5.578,-5.5684,-5.5684,-5.5684,-5.5684,-5.5684,-5.5662,-5.5662,-5.564,-5.564,-5.5462,-5.5167,-5.4706,-5.415,-5.3744,-5.3395,-5.2797,-5.2479,-5.2542,-5.6621,-5.6621,-5.6621,-5.6621,-5.6621,-5.664,-5.6699,-5.6894,-5.7676,-5.8457,-5.9277,-6.0061,-6.0514,-6.067,-6.1245,-6.1549,-6.1715,-6.1693,-6.168,-6.168,-6.1651,-6.1616,-6.1567,-6.1491,-6.1428,-6.1386,-6.1326,-6.1278,-6.1208,-6.1148,-6.1076,-6.1041,-6.102,-6.0999,-6.1001,-6.0957,-6.0911,-6.0911,-6.0823,-6.0804,-6.0781,-6.08,-6.08,-6.08,-6.08,-6.08,-6.08,-6.08,-6.08,-6.08,-6.08,-6.08,-6.08,-6.08,-6.08,-6.08,-6.08,-6.08,-6.0742,-6.0685,-6.0492,-6.0358,-6.0142,-6.0281,-6.0531,-6.0608,-6.0435,-6.0435,-6.0569,-6.0627,-6.0781,-6.0742,-6.0627,-6.0531,-6.0339,-6.0262,-6.0185,-6.0165,-6.0031,-5.9954,-6.0358,-6.0685,-6.0646,-6.0454,-5.9685,-5.9088,-5.8511,-5.828,-5.828,-5.8184,-5.8069,-5.7607,-5.7165,-5.7088,-5.6838,-5.6145,-5.5857,-5.5761,-5.5684,-5.5684,-5.5684,-5.5662,-5.564,-5.5618,-5.5599,-5.5558,-5.5551,-5.5461,-5.4997,-5.4609,-5.4417,-5.403,-5.335,-5.3053,-5.3264,-5.6621,-5.6621,-5.6621,-5.6621,-5.6621,-5.6621,-5.6621,-5.6758,-5.748,-5.8064,-5.8463,-5.9226,-5.9963,-6.0373,-6.07,-6.1144,-6.1621,-6.1648,-6.1615,-6.1623,-6.1607,-6.1537,-6.1479,-6.1428,-6.1371,-6.1326,-6.1281,-6.1191,-6.1117,-6.1058,-6.1022,-6.1,-6.0938,-6.0916,-6.0916,-6.0869,-6.0843,-6.0823,-6.0823,-6.08,-6.08,-6.08,-6.08,-6.08,-6.08,-6.08,-6.08,-6.08,-6.08,-6.08,-6.08,-6.08,-6.08,-6.08,-6.08,-6.08,-6.08,-6.08,-6.08,-6.0762,-6.0781,-6.08,-6.08,-6.08,-6.08,-6.08,-6.0781,-6.08,-6.08,-6.08,-6.0781,-6.0781,-6.0723,-6.0723,-6.0627,-6.0646,-6.0608,-6.0627,-6.0589,-6.055,-6.0781,-6.08,-6.08,-6.08,-6.0223,-6.005,-5.9588,-5.9261,-5.9184,-5.9027,-5.8892,-5.8357,-5.7934,-5.7896,-5.7627,-5.7011,-5.6626,-5.6607,-5.6165,-5.5684,-5.5684,-5.5758,-5.5618,-5.5554,-5.5535,-5.5516,-5.5437,-5.5377,-5.5326,-5.5091,-5.4804,-5.469,-5.4339,-5.4204,-5.4409,-5.6621,-5.6621,-5.6621,-5.662,-5.6618,-5.662,-5.662,-5.6696,-5.7202,-5.745,-5.7633,-5.8328,-5.8944,-5.9505,-6.0173,-6.0573,-6.1251,-6.1526,-6.1584,-6.1578,-6.1537,-6.1479,-6.1414,-6.1356,-6.1294,-6.1245,-6.1173,-6.1099,-6.1041,-6.0983,-6.0962,-6.0916,-6.0891,-6.085,-6.0846,-6.0823,-6.08,-6.08,-6.08,-6.08,-6.08,-6.08,-6.08,-6.08,-6.08,-6.08,-6.08,-6.08,-6.08,-6.08,-6.08,-6.08,-6.08,-6.08,-6.08,-6.08,-6.08,-6.08,-6.08,-6.08,-6.08,-6.08,-6.08,-6.08,-6.08,-6.08,-6.08,-6.08,-6.08,-6.08,-6.08,-6.08,-6.08,-6.08,-6.08,-6.08,-6.08,-6.08,-6.08,-6.08,-6.08,-6.08,-6.08,-6.08,-6.0608,-6.0666,-6.0704,-6.0339,-5.9992,-5.9815,-5.9681,-5.9281,-5.8819,-5.8723,-5.8454,-5.7915,-5.7627,-5.7473,-5.6876,-5.6184,-5.5951,-5.6022,-5.5788,-5.5531,-5.5489,-5.5418,-5.5358,-5.5275,-5.5203,-5.5149,-5.4998,-5.4979,-5.5121,-5.5066,-5.5,-5.6621,-5.6621,-5.6621,-5.6614,-5.6618,-5.6618,-5.6614,-5.661,-5.6645,-5.6657,-5.6727,-5.7493,-5.7948,-5.8245,-5.9524,-6.0274,-6.0566,-6.1179,-6.1412,-6.1518,-6.146,-6.1414,-6.1337,-6.1259,-6.1208,-6.1136,-6.108,-6.1022,-6.1002,-6.0941,-6.0875,-6.0846,-6.0823,-6.0804,-6.0823,-6.08,-6.08,-6.08,-6.08,-6.08,-6.08,-6.08,-6.08,-6.08,-6.08,-6.08,-6.08,-6.08,-6.08,-6.08,-6.08,-6.08,-6.08,-6.08,-6.08,-6.08,-6.08,-6.08,-6.08,-6.08,-6.08,-6.08,-6.08,-6.08,-6.08,-6.08,-6.08,-6.08,-6.08,-6.08,-6.08,-6.08,-6.08,-6.08,-6.08,-6.08,-6.08,-6.08,-6.08,-6.08,-6.08,-6.08,-6.08,-6.08,-6.08,-6.08,-6.08,-6.0723,-6.0454,-6.0492,-6.0377,-6.0339,-5.9915,-5.9588,-5.9204,-5.8781,-5.8492,-5.83,-5.7604,-5.695,-5.6675,-5.6268,-5.5911,-5.5653,-5.5451,-5.5358,-5.5241,-5.5132,-5.5066,-5.5009,-5.4941,-5.496,-5.499,-5.496,-5.4871,-5.6619,-5.6605,-5.6602,-5.6618,-5.6606,-5.6618,-5.6605,-5.6605,-5.6614,-5.661,-5.6614,-5.6786,-5.7241,-5.7874,-5.83,-5.9228,-5.9988,-6.0583,-6.1005,-6.1188,-6.1414,-6.1341,-6.1278,-6.1208,-6.1155,-6.108,-6.1002,-6.0962,-6.0938,-6.0872,-6.0808,-6.0781,-6.08,-6.08,-6.08,-6.08,-6.08,-6.08,-6.08,-6.08,-6.08,-6.08,-6.08,-6.08,-6.08,-6.08,-6.08,-6.08,-6.08,-6.08,-6.08,-6.08,-6.08,-6.08,-6.08,-6.08,-6.08,-6.08,-6.08,-6.08,-6.08,-6.08,-6.08,-6.08,-6.08,-6.08,-6.08,-6.08,-6.08,-6.08,-6.08,-6.08,-6.08,-6.08,-6.08,-6.08,-6.08,-6.08,-6.08,-6.08,-6.08,-6.08,-6.08,-6.08,-6.08,-6.08,-6.08,-6.08,-6.08,-6.08,-6.0781,-6.0723,-6.0627,-6.0185,-6.0031,-5.9665,-5.9377,-5.905,-5.8354,-5.7674,-5.7209,-5.674,-5.6146,-5.5727,-5.5486,-5.5252,-5.5076,-5.4979,-5.4874,-5.4871,-5.4829,-5.4829,-5.4829,-5.4767,-5.4686,-5.6607,-5.6606,-5.6606,-5.6606,-5.6602,-5.6577,-5.6567,-5.6556,-5.6563,-5.6558,-5.6558,-5.6538,-5.6801,-5.7213,-5.766,-5.8461,-5.9659,-6.0132,-6.0642,-6.1278,-6.1341,-6.1278,-6.1191,-6.1136,-6.108,-6.1021,-6.096,-6.0918,-6.0891,-6.0846,-6.0781,-6.0781,-6.08,-6.08,-6.08,-6.08,-6.08,-6.08,-6.08,-6.08,-6.08,-6.08,-6.08,-6.08,-6.08,-6.08,-6.08,-6.08,-6.08,-6.08,-6.08,-6.08,-6.08,-6.08,-6.08,-6.08,-6.08,-6.08,-6.08,-6.08,-6.08,-6.08,-6.08,-6.08,-6.08,-6.08,-6.08,-6.08,-6.08,-6.08,-6.08,-6.08,-6.08,-6.08,-6.08,-6.08,-6.08,-6.08,-6.08,-6.08,-6.08,-6.08,-6.08,-6.08,-6.08,-6.08,-6.08,-6.08,-6.08,-6.08,-6.08,-6.0762,-6.0762,-6.0646,-6.0512,-6.0358,-6.0127,-5.9719,-5.9177,-5.8515,-5.7877,-5.7325,-5.6862,-5.6167,-5.5443,-5.5285,-5.511,-5.4879,-5.4742,-5.4686,-5.4608,-5.4557,-5.4557,-5.4557,-5.4458,-5.661,-5.661,-5.6606,-5.6606,-5.6582,-5.6509,-5.6503,-5.6484,-5.6497,-5.6503,-5.6503,-5.6503,-5.6478,-5.673,-5.7161,-5.8,-5.8962,-5.9604,-6.0375,-6.1332,-6.1259,-6.1173,-6.1098,-6.1041,-6.1021,-6.0959,-6.0935,-6.0894,-6.085,-6.0823,-6.08,-6.08,-6.08,-6.08,-6.08,-6.08,-6.08,-6.08,-6.08,-6.08,-6.08,-6.08,-6.08,-6.08,-6.08,-6.08,-6.08,-6.08,-6.08,-6.08,-6.08,-6.08,-6.08,-6.08,-6.08,-6.08,-6.08,-6.08,-6.08,-6.08,-6.08,-6.08,-6.08,-6.08,-6.08,-6.08,-6.08,-6.08,-6.08,-6.08,-6.08,-6.08,-6.08,-6.08,-6.08,-6.08,-6.08,-6.08,-6.08,-6.08,-6.08,-6.08,-6.08,-6.08,-6.08,-6.08,-6.08,-6.08,-6.08,-6.08,-6.08,-6.08,-6.08,-6.08,-6.0742,-6.0627,-6.0704,-6.0373,-5.9826,-5.9336,-5.8648,-5.8113,-5.7607,-5.6881,-5.614,-5.5511,-5.522,-5.5038,-5.4816,-5.451,-5.4409,-5.4287,-5.4287,-5.4324,-5.4252,-5.6607,-5.6607,-5.661,-5.6582,-5.6514,-5.6509,-5.6497,-5.6485,-5.6437,-5.6445,-5.6485,-5.6446,-5.6425,-5.6483,-5.6631,-5.7453,-5.8694,-5.9118,-5.9982,-6.0818,-6.1155,-6.108,-6.1022,-6.1001,-6.0978,-6.0935,-6.0911,-6.0869,-6.0846,-6.08,-6.08,-6.08,-6.08,-6.08,-6.08,-6.08,-6.08,-6.08,-6.08,-6.08,-6.08,-6.08,-6.08,-6.08,-6.08,-6.08,-6.08,-6.08,-6.08,-6.08,-6.08,-6.08,-6.08,-6.08,-6.08,-6.08,-6.08,-6.08,-6.08,-6.08,-6.08,-6.08,-6.08,-6.08,-6.08,-6.08,-6.08,-6.08,-6.08,-6.08,-6.08,-6.08,-6.08,-6.08,-6.08,-6.08,-6.08,-6.08,-6.08,-6.08,-6.08,-6.08,-6.08,-6.08,-6.08,-6.08,-6.08,-6.08,-6.08,-6.08,-6.08,-6.08,-6.08,-6.08,-6.08,-6.0777,-6.0777,-6.0729,-6.0296,-5.9818,-5.9383,-5.862,-5.7891,-5.7528,-5.6929,-5.621,-5.5667,-5.5517,-5.5213,-5.4811,-5.4591,-5.465,-5.4335,-5.4279,-5.413,-5.6602,-5.6582,-5.6567,-5.6528,-5.6497,-5.6465,-5.6452,-5.6457,-5.6416,-5.6407,-5.6405,-5.6402,-5.6386,-5.6368,-5.6348,-5.7197,-5.8508,-5.8671,-5.9779,-6.0711,-6.108,-6.1021,-6.096,-6.0938,-6.0914,-6.0869,-6.0846,-6.0823,-6.08,-6.08,-6.08,-6.08,-6.08,-6.08,-6.08,-6.08,-6.08,-6.08,-6.08,-6.08,-6.08,-6.08,-6.08,-6.08,-6.08,-6.08,-6.08,-6.08,-6.08,-6.08,-6.08,-6.08,-6.08,-6.08,-6.08,-6.08,-6.08,-6.08,-6.08,-6.08,-6.08,-6.08,-6.08,-6.08,-6.08,-6.08,-6.08,-6.08,-6.08,-6.08,-6.08,-6.08,-6.08,-6.08,-6.08,-6.08,-6.08,-6.08,-6.08,-6.08,-6.08,-6.08,-6.08,-6.08,-6.08,-6.08,-6.08,-6.08,-6.08,-6.08,-6.08,-6.08,-6.08,-6.08,-6.08,-6.0777,-6.0753,-6.068,-6.061,-6.0277,-5.9748,-5.8864,-5.8166,-5.7927,-5.7516,-5.6691,-5.6256,-5.6136,-5.5919,-5.5604,-5.5361,-5.5119,-5.4745,-5.439,-5.4277,-5.6602,-5.6577,-5.6542,-5.6491,-5.6471,-5.6422,-5.6405,-5.6387,-5.6407,-5.6345,-5.6333,-5.6349,-5.6336,-5.6297,-5.6343,-5.7465,-5.8241,-5.8528,-5.965,-6.0674,-6.1002,-6.098,-6.0916,-6.0872,-6.0869,-6.0823,-6.0823,-6.08,-6.08,-6.08,-6.08,-6.08,-6.08,-6.08,-6.08,-6.08,-6.08,-6.08,-6.08,-6.08,-6.08,-6.08,-6.08,-6.08,-6.08,-6.08,-6.08,-6.08,-6.08,-6.08,-6.08,-6.08,-6.08,-6.08,-6.08,-6.08,-6.08,-6.08,-6.08,-6.08,-6.08,-6.08,-6.08,-6.08,-6.08,-6.08,-6.08,-6.08,-6.08,-6.08,-6.08,-6.08,-6.08,-6.08,-6.08,-6.08,-6.08,-6.08,-6.08,-6.08,-6.08,-6.08,-6.08,-6.08,-6.08,-6.08,-6.08,-6.08,-6.08,-6.08,-6.08,-6.0777,-6.0753,-6.0757,-6.0777,-6.0753,-6.0704,-6.0629,-6.0552,-6.0417,-6.0151,-5.9395,-5.8843,-5.8621,-5.806,-5.7495,-5.7092,-5.691,-5.665,-5.6329,-5.5879,-5.5542,-5.5312,-5.4973,-5.4633,-5.6524,-5.6517,-5.6515,-5.648,-5.6433,-5.6387,-5.6407,-5.6397,-5.6341,-5.6304,-5.6272,-5.6251,-5.6238,-5.6199,-5.6153,-5.705,-5.8405,-5.8568,-5.9572,-6.079,-6.092,-6.0935,-6.0891,-6.0846,-6.0823,-6.08,-6.08,-6.08,-6.08,-6.08,-6.08,-6.08,-6.08,-6.08,-6.08,-6.08,-6.08,-6.08,-6.08,-6.08,-6.08,-6.08,-6.08,-6.08,-6.08,-6.08,-6.08,-6.08,-6.08,-6.08,-6.08,-6.08,-6.08,-6.08,-6.08,-6.08,-6.08,-6.08,-6.08,-6.08,-6.08,-6.08,-6.08,-6.08,-6.08,-6.08,-6.08,-6.08,-6.08,-6.08,-6.08,-6.08,-6.08,-6.08,-6.08,-6.08,-6.08,-6.08,-6.08,-6.08,-6.08,-6.08,-6.08,-6.08,-6.08,-6.08,-6.08,-6.08,-6.0781,-6.08,-6.0796,-6.0753,-6.071,-6.071,-6.071,-6.0685,-6.0635,-6.0578,-6.0499,-6.0313,-6.0148,-6.0026,-5.9582,-5.908,-5.898,-5.8613,-5.8222,-5.7622,-5.7262,-5.6881,-5.6336,-5.5918,-5.578,-5.5623,-5.536]}]]